[[{"header":{"parameterUnit":"m.s-1","parameterCategory":1,"la1":30.6,"la2":28.766,"lo1":-90.7593,"lo2":-88.6598,"dy":0.0162,"dx":0.0183,"nx":116,"ny":114,"refTime":"2024-07-05T18:00:00:Z","depth":0,"parameterNumber":2,"parameterNumberName":"U-component_of_WINDS"},"data":[0.0,0.0,0.0,0.0,0.0,0.0,0.0,0.0,0.0,0.0,0.0,0.0,0.0,0.0,0.0,0.0,0.0,0.0,0.0,0.0,0.0,0.0,0.0,0.0,0.0,0.0,0.0,0.0,0.0,0.0,0.0,0.0,0.0,0.0,0.0,0.0,0.0,0.0,0.0,0.0,0.0,0.0,0.0,0.0,0.0,0.0,0.0,0.0,0.0,0.0,0.0,0.0,0.0,0.0,0.0,0.0,0.0,0.0,0.0,0.0,0.0,0.0,0.0,0.0,0.0,0.0,0.0,0.0,0.0,0.0,0.0,0.0,0.0,0.0,0.0,0.0,0.0,0.0,0.0,0.0,0.0,0.0,0.0,0.0,0.0,0.0,0.0,0.0,0.0,0.0,0.0,0.0,0.0,0.0,0.0,0.0,0.0,0.0,0.0,0.0,0.0,0.0,0.0,0.0,0.0,0.0,0.0,0.0,0.0,0.0,0.0,0.0,0.0,0.0,0.0,0.0,0.0,0.0,0.0,0.0,0.0,0.0,0.0,0.0,0.0,0.0,0.0,0.0,0.0,0.0,0.0,0.0,0.0,0.0,0.0,0.0,0.0,0.0,0.0,0.0,0.0,0.0,0.0,0.0,0.0,0.0,0.0,0.0,0.0,0.0,0.0,0.0,0.0,0.0,0.0,0.0,0.0,0.0,0.0,0.0,0.0,0.0,0.0,0.0,0.0,0.0,0.0,0.0,0.0,0.0,0.0,0.0,0.0,0.0,0.0,0.0,0.0,0.0,0.0,0.0,0.0,0.0,0.0,0.0,0.0,0.0,0.0,0.0,0.0,0.0,0.0,0.0,0.0,0.0,0.0,0.0,0.0,0.0,0.0,0.0,0.0,0.0,0.0,0.0,0.0,0.0,0.0,0.0,0.0,0.0,0.0,0.0,0.0,0.0,0.0,0.0,0.0,0.0,0.0,0.0,0.0,0.0,0.0,0.0,0.0,0.0,0.0,0.0,0.0,0.0,0.0,0.0,0.0,0.0,0.0,0.0,0.0,0.0,0.0,0.0,0.0,0.0,0.0,0.0,0.0,0.0,0.0,0.0,0.0,0.0,0.0,0.0,0.0,0.0,0.0,0.0,0.0,0.0,0.0,0.0,0.0,0.0,0.0,0.0,0.0,0.0,0.0,0.0,0.0,0.0,0.0,0.0,0.0,0.0,0.0,0.0,0.0,0.0,0.0,0.0,0.0,0.0,0.0,0.0,0.0,0.0,0.0,0.0,0.0,0.0,0.0,0.0,0.0,0.0,0.0,0.0,0.0,0.0,0.0,0.0,0.0,0.0,0.0,0.0,0.0,0.0,0.0,0.0,0.0,0.0,0.0,0.0,0.0,0.0,0.0,0.0,0.0,0.0,0.0,0.0,0.0,0.0,0.0,0.0,0.0,0.0,0.0,0.0,0.0,0.0,0.0,0.0,0.0,0.0,0.0,0.0,0.0,0.0,0.0,0.0,0.0,0.0,0.0,0.0,0.0,0.0,0.0,0.0,0.0,0.0,0.0,0.0,0.0,0.0,0.0,0.0,0.0,0.0,0.0,0.0,0.0,0.0,0.0,0.0,0.0,0.0,0.0,0.0,0.0,0.0,0.0,0.0,0.0,0.0,0.0,0.0,0.0,0.0,0.0,0.0,0.0,0.0,0.0,0.0,0.0,0.0,0.0,0.0,0.0,0.0,0.0,0.0,0.0,0.0,0.0,0.0,0.0,0.0,0.0,0.0,0.0,0.0,0.0,0.0,0.0,0.0,0.0,0.0,0.0,0.0,0.0,0.0,0.0,0.0,0.0,0.0,0.0,0.0,0.0,0.0,0.0,0.0,0.0,0.0,0.0,0.0,0.0,0.0,0.0,0.0,0.0,0.0,0.0,0.0,0.0,0.0,0.0,0.0,0.0,0.0,0.0,0.0,0.0,0.0,0.0,0.0,0.0,0.0,0.0,0.0,0.0,0.0,0.0,0.0,0.0,0.0,0.0,0.0,0.0,0.0,0.0,0.0,0.0,0.0,0.0,0.0,0.0,0.0,0.0,0.0,0.0,0.0,0.0,0.0,0.0,0.0,0.0,0.0,0.0,0.0,0.0,0.0,0.0,0.0,0.0,0.0,0.0,0.0,0.0,0.0,0.0,0.0,0.0,0.0,0.0,0.0,0.0,0.0,0.0,0.0,0.0,0.0,0.0,0.0,0.0,0.0,0.0,0.0,0.0,0.0,0.0,0.0,0.0,0.0,0.0,0.0,0.0,0.0,0.0,0.0,0.0,0.0,0.0,0.0,0.0,0.0,0.0,0.0,0.0,0.0,0.0,0.0,0.0,0.0,0.0,0.0,0.0,0.0,0.0,0.0,0.0,0.0,0.0,0.0,0.0,0.0,0.0,0.0,0.0,0.0,0.0,0.0,0.0,0.0,0.0,0.0,0.0,0.0,0.0,0.0,0.0,0.0,0.0,0.0,0.0,0.0,0.0,0.0,0.0,0.0,0.0,0.0,0.0,0.0,0.0,0.0,0.0,0.0,0.0,0.0,0.0,0.0,0.0,0.0,0.0,0.0,0.0,0.0,0.0,0.0,0.0,0.0,0.0,0.0,0.0,0.0,0.0,0.0,0.0,0.0,0.0,0.0,0.0,0.0,0.0,0.0,0.0,0.0,0.0,0.0,0.0,0.0,0.0,0.0,0.0,0.0,0.0,0.0,0.0,0.0,0.0,0.0,0.0,0.0,0.0,0.0,0.0,0.0,0.0,0.0,0.0,0.0,0.0,0.0,0.0,0.0,0.0,0.0,0.0,0.0,0.0,0.0,0.0,0.0,0.0,0.0,0.0,0.0,0.0,0.0,0.0,0.0,0.0,0.0,0.0,0.0,0.0,0.0,0.0,0.0,0.0,0.0,0.0,0.0,0.0,0.0,0.0,0.0,0.0,0.0,0.0,0.0,0.0,0.0,0.0,0.0,0.0,0.0,0.0,0.0,0.0,0.0,0.0,0.0,0.0,0.0,0.0,0.0,0.0,0.0,0.0,0.0,0.0,0.0,0.0,0.0,0.0,0.0,0.0,0.0,0.0,0.0,0.0,0.0,0.0,0.0,0.0,0.0,0.0,0.0,0.0,0.0,0.0,0.0,0.0,0.0,0.0,0.0,0.0,0.0,0.0,0.0,0.0,0.0,0.0,0.0,0.0,0.0,0.0,0.0,0.0,0.0,0.0,0.0,0.0,0.0,0.0,0.0,0.0,0.0,0.0,0.0,0.0,0.0,0.0,0.0,0.0,0.0,0.0,0.0,0.0,0.0,0.0,0.0,0.0,0.0,0.0,0.0,0.0,0.0,0.0,0.0,0.0,0.0,0.0,0.0,0.0,0.0,0.0,0.0,0.0,0.0,0.0,0.0,0.0,0.0,0.0,0.0,0.0,0.0,0.0,0.0,0.0,0.0,0.0,0.0,0.0,0.0,0.0,0.0,0.0,0.0,0.0,0.0,0.0,0.0,0.0,0.0,0.0,0.0,0.0,0.0,0.0,0.0,0.0,0.0,0.0,0.0,0.0,0.0,0.0,0.0,0.0,0.0,0.0,0.0,0.0,0.0,0.0,0.0,0.0,0.0,0.0,0.0,0.0,0.0,0.0,0.0,0.0,0.0,0.0,0.0,0.0,0.0,0.0,0.0,0.0,0.0,0.0,0.0,0.0,0.0,0.0,0.0,0.0,0.0,0.0,0.0,0.0,0.0,0.0,0.0,0.0,0.0,0.0,0.0,0.0,0.0,0.0,0.0,0.0,0.0,0.0,0.0,0.0,0.0,0.0,0.0,0.0,0.0,0.0,0.0,0.0,0.0,0.0,0.0,0.0,0.0,0.0,0.0,0.0,0.0,0.0,0.0,0.0,0.0,0.0,0.0,0.0,0.0,0.0,0.0,0.0,0.0,0.0,0.0,0.0,0.0,0.0,0.0,0.0,0.0,0.0,0.0,0.0,0.0,0.0,0.0,0.0,0.0,0.0,0.0,0.0,0.0,0.0,0.0,0.0,0.0,0.0,0.0,0.0,0.0,0.0,0.0,0.0,0.0,0.0,0.0,0.0,0.0,0.0,0.0,0.0,0.0,0.0,0.0,0.0,0.0,0.0,0.0,0.0,0.0,0.0,0.0,0.0,0.0,0.0,0.0,0.0,0.0,0.0,0.0,0.0,0.0,0.0,0.0,0.0,0.0,0.0,0.0,0.0,0.0,0.0,0.0,0.0,0.0,0.0,0.0,0.0,0.0,0.0,0.0,0.0,0.0,0.0,0.0,0.0,0.0,0.0,0.0,0.0,0.0,0.0,0.0,0.0,0.0,0.0,0.0,0.0,0.0,0.0,0.0,0.0,0.0,0.0,0.0,0.0,0.0,0.0,0.0,0.0,0.0,0.0,0.0,0.0,0.0,0.0,0.0,0.0,0.0,0.0,0.0,0.0,0.0,0.0,0.0,0.0,0.0,0.0,0.0,0.0,0.0,0.0,0.0,0.0,0.0,0.0,0.0,0.0,0.0,0.0,0.0,0.0,0.0,0.0,0.0,0.0,0.0,0.0,0.0,0.0,0.0,0.0,0.0,0.0,0.0,0.0,0.0,0.0,0.0,0.0,0.0,0.0,0.0,0.0,0.0,0.0,0.0,0.0,0.0,0.0,0.0,0.0,0.0,0.0,0.0,0.0,0.0,0.0,0.0,0.0,0.0,0.0,0.0,0.0,0.0,0.0,0.0,0.0,0.0,0.0,0.0,0.0,0.0,0.0,0.0,0.0,0.0,0.0,0.0,0.0,0.0,0.0,0.0,0.0,0.0,0.0,0.0,0.0,0.0,0.0,0.0,0.0,0.0,0.0,0.0,0.0,0.0,0.0,0.0,0.0,0.0,0.0,0.0,0.0,0.0,0.0,0.0,0.0,0.0,0.0,0.0,0.0,0.0,0.0,0.0,0.0,0.0,0.0,0.0,0.0,0.0,0.0,0.0,0.0,0.0,0.0,0.0,0.0,0.0,0.0,0.0,0.0,0.0,0.0,0.0,0.0,0.0,0.0,0.0,0.0,0.0,0.0,0.0,0.0,0.0,0.0,0.0,0.0,0.0,0.0,0.0,0.0,0.0,0.0,0.0,0.0,0.0,0.0,0.0,0.0,0.0,0.0,0.0,0.0,0.0,0.0,0.0,0.0,0.0,0.0,0.0,0.0,0.0,0.0,0.0,0.0,0.0,0.0,0.0,0.0,0.0,0.0,0.0,0.0,0.0,0.0,0.0,0.0,0.0,0.0,0.0,0.0,0.0,0.0,0.0,0.0,0.0,0.0,0.0,0.0,0.0,0.0,0.0,0.0,0.0,0.0,0.0,0.0,0.0,0.0,0.0,0.0,0.0,0.0,0.0,0.0,0.0,0.0,0.0,0.0,0.0,0.0,0.0,0.0,0.0,0.0,0.0,0.0,0.0,0.0,0.0,0.0,0.0,0.0,0.0,0.0,0.0,0.0,0.0,0.0,0.0,0.0,0.0,0.0,0.0,0.0,0.0,0.0,0.0,0.0,0.0,0.0,0.0,0.0,0.0,0.0,0.0,0.0,0.0,0.0,0.0,0.0,0.0,0.0,0.0,0.0,0.0,0.0,0.0,0.0,0.0,0.0,0.0,0.0,0.0,0.0,0.0,0.0,0.0,0.0,0.0,0.0,0.0,0.0,0.0,0.0,0.0,0.0,0.0,0.0,0.0,0.0,0.0,0.0,0.0,0.0,0.0,0.0,0.0,0.0,0.0,0.0,0.0,0.0,0.0,0.0,0.0,0.0,0.0,0.0,0.0,0.0,0.0,0.0,0.0,0.0,0.0,0.0,0.0,0.0,0.0,0.0,0.0,0.0,0.0,0.0,0.0,0.0,0.0,0.0,0.0,0.0,0.0,0.0,0.0,0.0,0.0,0.0,0.0,0.0,0.0,0.0,0.0,0.0,0.0,0.0,0.0,0.0,0.0,0.0,0.0,0.0,0.0,0.0,0.0,0.0,0.0,0.0,0.0,0.0,0.0,0.0,0.0,0.0,0.0,0.0,0.0,0.0,0.0,-1.868,-1.8032,0.0,0.0,0.0,0.0,0.0,0.0,0.0,0.0,0.0,0.0,0.0,0.0,0.0,0.0,0.0,0.0,0.0,0.0,0.0,0.0,0.0,0.0,0.0,-1.283,-1.3626,-1.3721,-1.3883,-1.4047,-1.4225,0.0,0.0,0.0,0.0,0.0,-1.3982,-1.369,-1.3571,-1.3584,-1.3761,-1.3894,-1.3964,-1.4447,-1.4687,-1.4716,0.0,0.0,0.0,0.0,0.0,0.0,0.0,0.0,0.0,0.0,0.0,0.0,0.0,0.0,0.0,0.0,0.0,0.0,0.0,0.0,0.0,0.0,0.0,0.0,0.0,0.0,0.0,0.0,0.0,0.0,0.0,0.0,0.0,0.0,0.0,0.0,0.0,0.0,0.0,0.0,0.0,0.0,0.0,0.0,0.0,0.0,0.0,0.0,0.0,0.0,0.0,0.0,0.0,0.0,0.0,0.0,0.0,0.0,0.0,0.0,0.0,0.0,0.0,0.0,0.0,0.0,0.0,0.0,0.0,0.0,-2.0148,-1.9409,0.0,0.0,0.0,0.0,0.0,0.0,0.0,0.0,0.0,0.0,0.0,0.0,0.0,0.0,0.0,0.0,0.0,0.0,0.0,0.0,0.0,-1.091,-1.0968,-1.2441,-1.3503,-1.3636,-1.3713,-1.387,-1.4114,-1.4202,0.0,0.0,0.0,-1.4578,-1.4584,-1.4799,-1.4875,-1.4905,-1.5121,-1.5189,-1.5078,-1.4511,-1.4563,-1.5151,-1.5232,0.0,0.0,0.0,0.0,0.0,0.0,0.0,0.0,0.0,0.0,0.0,0.0,0.0,0.0,0.0,0.0,0.0,0.0,0.0,0.0,0.0,0.0,0.0,0.0,0.0,0.0,0.0,0.0,0.0,0.0,0.0,0.0,0.0,0.0,0.0,0.0,0.0,0.0,0.0,0.0,0.0,0.0,0.0,0.0,0.0,0.0,0.0,0.0,0.0,0.0,0.0,0.0,0.0,0.0,0.0,0.0,0.0,0.0,0.0,0.0,0.0,0.0,0.0,-2.24,-2.2391,-2.2376,-2.2243,-2.2454,-2.2897,-2.1488,-2.0814,-2.0705,-2.0082,0.0,0.0,0.0,0.0,0.0,0.0,0.0,0.0,0.0,0.0,0.0,0.0,0.0,0.0,0.0,0.0,0.0,0.0,0.0,-1.0591,-1.0895,-1.2256,-1.321,-1.3412,-1.3605,-1.3728,-1.3774,-1.4046,0.0,0.0,-1.4411,-1.4493,-1.4497,-1.4728,-1.4846,-1.4893,-1.5153,-1.492,-1.4285,-1.4915,-1.4826,-1.4137,-1.4871,-1.5165,-1.5127,0.0,0.0,0.0,0.0,0.0,0.0,0.0,0.0,0.0,0.0,0.0,0.0,0.0,0.0,0.0,0.0,0.0,0.0,0.0,0.0,0.0,0.0,0.0,0.0,0.0,0.0,0.0,0.0,0.0,0.0,0.0,0.0,0.0,0.0,0.0,0.0,0.0,0.0,0.0,0.0,0.0,-1.6865,-1.7664,0.0,0.0,0.0,0.0,0.0,0.0,0.0,0.0,0.0,0.0,0.0,0.0,0.0,-2.2651,-2.312,-2.3759,-2.4036,-2.3925,-2.4479,-2.473,-2.4646,-2.4017,-2.4414,-2.5634,-2.443,0.0,-2.2479,-2.2716,0.0,0.0,0.0,0.0,0.0,0.0,0.0,0.0,0.0,0.0,0.0,0.0,0.0,0.0,0.0,0.0,0.0,0.0,0.0,0.0,0.0,-1.2605,-1.3436,-1.3501,-1.3705,-1.3855,-1.3906,-1.453,-1.4724,-1.4337,-1.4836,-1.5142,-1.5154,-1.5403,-1.5647,-1.5855,-1.5475,-1.5156,-1.4834,-1.5187,-1.5088,-1.4653,-1.4981,-1.5366,-1.5725,-1.5151,0.0,0.0,0.0,0.0,0.0,0.0,0.0,0.0,0.0,0.0,0.0,0.0,0.0,0.0,0.0,0.0,0.0,0.0,0.0,0.0,0.0,0.0,0.0,0.0,0.0,0.0,0.0,0.0,0.0,0.0,0.0,0.0,0.0,0.0,0.0,0.0,0.0,0.0,0.0,-1.6992,-1.839,-1.872,-1.9656,-2.0269,0.0,0.0,0.0,0.0,0.0,0.0,0.0,0.0,0.0,-2.3667,-2.4236,-2.4604,-2.4628,-2.5309,-2.5597,-2.5514,-2.573,-2.576,-2.5689,-2.5358,-2.5451,-2.5779,-2.5571,-2.4885,-2.3935,-2.3519,-2.2674,-2.1705,0.0,0.0,0.0,0.0,-2.0727,-2.0262,0.0,0.0,0.0,0.0,0.0,0.0,0.0,0.0,0.0,0.0,0.0,0.0,-1.1777,-1.284,-1.3517,-1.3557,-1.3743,-1.3891,0.0,0.0,-1.4821,-1.4293,-1.4938,-1.5396,-1.566,-1.5948,-1.615,-1.6272,-1.5647,-1.5234,0.0,0.0,0.0,0.0,0.0,-1.5463,-1.5902,-1.5384,-1.5517,0.0,0.0,0.0,0.0,0.0,0.0,0.0,0.0,0.0,0.0,0.0,0.0,0.0,0.0,0.0,0.0,0.0,0.0,0.0,0.0,0.0,0.0,0.0,0.0,0.0,0.0,0.0,0.0,0.0,0.0,0.0,0.0,0.0,0.0,0.0,0.0,0.0,0.0,-1.8416,-1.9818,-2.0231,-2.1631,-2.251,0.0,0.0,0.0,0.0,0.0,0.0,-2.4856,-2.4835,-2.4927,-2.519,-2.5968,-2.6243,-2.6009,-2.6504,-2.6725,-2.6708,-2.6521,-2.6383,-2.6292,-2.6221,-2.6008,-2.5687,-2.6045,-2.577,-2.4976,-2.4198,-2.3288,-2.2415,-2.2133,-2.2019,-2.1996,-2.217,-2.1895,-2.1605,0.0,0.0,0.0,0.0,0.0,0.0,0.0,0.0,0.0,0.0,0.0,-1.1726,-1.1967,-1.2723,-1.3295,-1.3479,-1.362,-1.3667,0.0,0.0,-1.4019,-1.3934,-1.4252,-1.4805,-1.5608,-1.5913,-1.5844,0.0,0.0,0.0,0.0,0.0,0.0,0.0,0.0,0.0,0.0,-1.5687,-1.5971,-1.6063,0.0,0.0,0.0,0.0,0.0,0.0,0.0,0.0,0.0,0.0,0.0,0.0,0.0,0.0,0.0,0.0,0.0,0.0,0.0,0.0,0.0,0.0,0.0,0.0,0.0,0.0,0.0,0.0,0.0,0.0,0.0,0.0,0.0,0.0,0.0,0.0,0.0,0.0,0.0,-2.281,-2.3657,0.0,0.0,0.0,0.0,-2.5017,-2.4827,-2.5327,-2.68,-2.6604,-2.6644,-2.7043,-2.7128,-2.7128,-2.7112,-2.7165,-2.7213,-2.7257,-2.6985,-2.6757,-2.6571,-2.631,-2.6185,-2.6168,-2.6185,-2.5936,-2.5481,-2.5398,-2.5022,-2.4429,-2.3956,-2.3661,-2.3455,-2.3009,-2.283,-2.2801,0.0,0.0,0.0,-0.835,-0.846,-0.8548,-0.8511,-0.9172,-0.979,-1.0133,-1.1148,-1.1827,0.0,-1.241,-1.2599,-1.2238,-1.2849,-1.3026,-1.2484,0.0,-1.4457,-1.3433,-1.4472,-1.5343,-1.5833,-1.6054,-1.6122,0.0,0.0,0.0,0.0,0.0,0.0,0.0,0.0,0.0,0.0,0.0,0.0,-1.6793,-1.6966,-1.6904,0.0,0.0,0.0,0.0,0.0,0.0,0.0,0.0,0.0,0.0,0.0,0.0,0.0,0.0,0.0,0.0,0.0,0.0,0.0,0.0,0.0,0.0,0.0,0.0,0.0,0.0,0.0,0.0,0.0,0.0,0.0,0.0,0.0,0.0,0.0,0.0,0.0,-2.4487,-2.5346,0.0,-2.5742,-2.5822,-2.6123,-2.6706,-2.6465,-2.6688,-2.767,-2.761,-2.7543,-2.7502,-2.7695,-2.7695,-2.7537,-2.7522,-2.7487,-2.7422,-2.7065,-2.684,-2.6742,-2.638,-2.6185,-2.6185,-2.6185,-2.5936,-2.5486,-2.5486,-2.5202,-2.4744,-2.4131,-2.3858,-2.3709,-2.3135,-2.2888,-2.2888,-0.8109,-0.816,0.0,-0.8286,-0.8492,-0.8604,-0.8561,-0.9455,-1.0264,-1.0636,-1.1425,-1.1959,-1.1926,-1.1991,-1.1871,-1.1449,-1.2089,-1.2288,-1.1783,0.0,-1.4246,-1.3459,-1.502,-1.5931,-1.5998,-1.6129,-1.6135,0.0,0.0,0.0,0.0,0.0,0.0,0.0,0.0,0.0,0.0,0.0,0.0,0.0,0.0,-1.7435,-1.7298,0.0,0.0,0.0,0.0,0.0,0.0,0.0,0.0,0.0,0.0,0.0,0.0,0.0,0.0,0.0,0.0,0.0,0.0,0.0,0.0,0.0,0.0,0.0,0.0,0.0,0.0,0.0,0.0,0.0,0.0,0.0,0.0,0.0,0.0,-2.3644,-2.506,-2.5884,-2.6679,-2.7089,-2.7027,-2.7332,-2.7669,-2.8017,-2.7815,-2.7869,-2.8272,-2.8281,-2.8134,-2.784,-2.8024,-2.7988,-2.7826,-2.7826,-2.7783,-2.7631,-2.7253,-2.6971,-2.6758,-2.6365,-2.6185,-2.6185,-2.6185,-2.5936,-2.5486,-2.5486,-2.5272,-2.4823,-2.4173,-2.3858,-2.3709,-2.3135,-2.2888,-2.2888,-0.8109,-0.8109,-0.8157,-0.826,-0.8409,-0.8556,-0.8691,-1.0018,-1.1009,-1.1016,-1.1647,-1.2098,-1.2065,-1.1533,-1.1165,-1.1131,-1.1381,-1.1516,-1.1391,-1.2381,-1.3294,-1.3977,-1.5706,-1.6455,-1.5967,-1.605,0.0,0.0,0.0,0.0,0.0,0.0,0.0,0.0,0.0,0.0,0.0,0.0,0.0,0.0,0.0,0.0,-1.8126,0.0,0.0,0.0,0.0,0.0,0.0,0.0,0.0,0.0,0.0,0.0,0.0,0.0,0.0,0.0,0.0,0.0,0.0,0.0,0.0,0.0,0.0,0.0,0.0,0.0,0.0,0.0,0.0,0.0,0.0,0.0,0.0,0.0,-2.4857,-2.5544,-2.626,-2.7047,-2.7561,-2.7824,-2.7824,-2.8546,-2.8964,-2.8917,-2.8834,-2.8773,-2.8712,-2.8637,-2.8448,-2.8147,-2.8098,-2.8098,-2.8098,-2.8098,-2.8016,-2.7911,-2.7562,-2.7147,-2.6691,-2.6329,-2.6185,-2.6185,-2.6185,-2.5903,-2.5454,-2.5435,-2.5157,-2.476,-2.4142,-2.3743,-2.3537,-2.3031,-2.283,-2.283,-0.8109,-0.8109,-0.8116,-0.8161,-0.8211,-0.8521,-0.9189,-1.0145,-1.0996,-1.1651,-1.1884,-1.1801,-1.1289,-1.0634,-1.0036,-0.9491,-1.0109,-1.0551,-1.0656,-1.2048,-1.3275,-1.4164,-1.5385,-1.5722,-1.5072,0.0,0.0,0.0,0.0,0.0,0.0,0.0,0.0,0.0,0.0,0.0,0.0,0.0,0.0,0.0,0.0,0.0,-1.8881,0.0,0.0,0.0,0.0,0.0,0.0,0.0,0.0,0.0,0.0,0.0,0.0,0.0,0.0,0.0,0.0,0.0,0.0,0.0,0.0,0.0,0.0,0.0,0.0,0.0,0.0,0.0,0.0,0.0,0.0,0.0,-2.5069,-2.6571,-2.65,-2.7072,-2.7734,-2.8413,-2.8588,-2.8656,-2.8656,-2.8877,-2.8964,-2.8917,-2.8834,-2.8773,-2.8712,-2.8637,-2.8562,-2.8461,-2.8448,-2.8448,-2.8448,-2.8228,-2.8071,-2.8016,-2.7361,-2.6952,-2.684,-2.6399,-2.6185,-2.6152,-2.5623,-2.5183,-2.4778,-2.3903,-2.333,-2.3033,-2.3253,-2.3254,-2.3039,-2.2031,-2.1632,-2.154,-0.8109,-0.8109,-0.8102,-0.8099,-0.8168,-0.8468,-0.9206,-1.0093,-1.0985,-1.1744,-1.1654,-1.1364,-1.0897,-0.9964,-0.9168,-0.8757,-0.9782,-1.0376,-1.0214,-1.2062,-1.3793,-1.5185,0.0,-1.5472,0.0,0.0,0.0,0.0,0.0,0.0,0.0,0.0,0.0,0.0,0.0,0.0,0.0,0.0,0.0,0.0,0.0,-1.8507,-1.9149,-1.8383,-1.8222,-1.8246,-1.7371,-1.7129,-1.7183,-1.682,0.0,0.0,0.0,0.0,0.0,0.0,0.0,0.0,0.0,0.0,0.0,0.0,0.0,0.0,0.0,0.0,0.0,0.0,0.0,0.0,0.0,0.0,0.0,0.0,-2.6851,-2.8085,-2.8168,-2.8521,-2.8815,-2.9093,-2.9055,-2.8987,-2.8987,-2.8987,-2.8975,-2.894,-2.8846,-2.8785,-2.8749,-2.865,-2.86,-2.86,-2.86,-2.86,-2.86,-2.8268,-2.8029,-2.7926,-2.6926,-2.6395,-2.6233,-2.5597,-2.5276,-2.5259,-2.4845,-2.441,-2.4029,-2.333,-2.2799,-2.2462,0.0,0.0,0.0,0.0,-2.1058,-2.0988,-0.8109,-0.8109,-0.8126,-0.8176,-0.8233,-0.8515,-0.9219,-1.0153,-1.0986,-1.1654,-1.1213,-1.0849,-1.0778,-0.9494,-0.8604,-0.8598,-1.0003,-1.071,0.0,-1.2628,0.0,-1.6232,-1.5735,0.0,0.0,0.0,0.0,0.0,0.0,0.0,0.0,0.0,0.0,0.0,0.0,0.0,0.0,0.0,0.0,0.0,0.0,-1.8777,-1.9182,-1.8989,-1.8921,-1.8849,-1.8205,-1.7992,-1.7959,-1.7271,0.0,0.0,0.0,0.0,0.0,0.0,0.0,0.0,0.0,0.0,0.0,0.0,0.0,0.0,0.0,0.0,0.0,0.0,0.0,0.0,0.0,0.0,0.0,0.0,-2.8237,-2.8969,-2.9639,-2.9681,-2.9514,-2.9312,-2.9123,-2.8998,-2.9021,-2.9021,-2.9021,-2.9021,-2.8917,-2.8822,-2.8798,-2.8675,0.0,0.0,0.0,-2.8587,-2.8549,-2.8215,-2.7926,-2.7642,-2.6458,-2.5741,-2.5497,-2.4531,-2.4116,-2.4116,-2.3951,-2.3638,-2.3282,-2.32,-2.2876,-2.2329,-2.168,-2.1346,-2.1147,-2.0866,-2.0785,-2.0785,-0.8202,-0.8089,-0.8268,-0.8728,-0.8788,-0.9206,-1.0589,-1.098,-1.1448,-1.2375,-1.1381,-1.0606,-1.0717,-0.9453,-0.8587,-0.8511,-0.9881,-1.1267,0.0,0.0,-1.5482,-1.4545,0.0,0.0,0.0,0.0,0.0,0.0,0.0,0.0,0.0,0.0,0.0,0.0,0.0,0.0,0.0,0.0,0.0,0.0,0.0,-1.9339,-1.9368,-1.9196,-1.9154,-1.9134,-1.9039,-1.8995,-1.8939,-1.8773,-1.876,-1.8718,-1.806,0.0,0.0,0.0,0.0,0.0,0.0,0.0,0.0,0.0,0.0,0.0,0.0,0.0,0.0,0.0,0.0,0.0,0.0,0.0,0.0,-2.8274,-2.9085,-2.9633,-2.9829,-2.975,-2.9541,-2.9112,-2.901,-2.9067,-2.9228,-2.9249,-2.9249,-2.9249,-2.9104,-2.8984,-2.881,-2.8675,-2.86,-2.86,-2.86,-2.8461,-2.8201,-2.7911,-2.7627,-2.7291,-2.6656,0.0,-2.6251,-2.5328,-2.4878,-2.4812,-2.3619,-2.2915,-2.254,-2.1956,-2.1307,-2.0707,-2.0916,-2.0509,-1.9744,-1.9555,-1.9478,-1.9478,-0.9181,-0.9088,-0.9171,-0.9449,-0.9451,-0.9766,-1.0828,-1.1126,-1.1497,-1.2299,-1.1607,-1.1049,-1.1098,-1.0233,-0.9653,-0.9611,-1.0977,0.0,0.0,-1.4984,-1.5122,0.0,0.0,0.0,0.0,0.0,0.0,0.0,0.0,0.0,0.0,0.0,0.0,0.0,0.0,0.0,0.0,0.0,0.0,0.0,0.0,-1.9803,-1.9663,-1.9439,-1.9354,-1.9383,-1.9398,-1.9398,-1.9331,-1.9352,-1.9344,-1.9271,-1.8926,-1.9111,-1.9287,0.0,0.0,0.0,0.0,0.0,0.0,0.0,0.0,0.0,0.0,0.0,0.0,0.0,0.0,-2.5197,-2.6805,0.0,-2.8234,-2.9117,-2.9536,-2.9784,-2.9939,-2.9414,-2.9111,-2.9295,-2.9301,-2.9353,-2.9426,-2.9436,-2.9397,-2.9322,-2.918,-2.9004,-2.881,-2.8675,-2.86,-2.86,-2.86,-2.8536,-2.837,-2.8051,-2.7739,-2.7446,-2.6546,-2.6084,-2.5933,-2.4963,-2.4547,-2.4514,-2.3785,-2.3373,-2.3178,-2.2606,-2.2011,-2.149,-2.1442,-2.0595,-1.9391,-1.9157,-1.9101,-1.9101,-1.0466,-1.05,-1.0425,-1.0239,-1.0146,-1.0292,-1.0912,-1.1192,-1.1524,-1.2025,-1.1737,-1.1471,-1.1426,-1.0943,-1.0776,0.0,0.0,0.0,0.0,0.0,0.0,0.0,0.0,0.0,0.0,0.0,0.0,0.0,0.0,0.0,0.0,0.0,0.0,0.0,0.0,0.0,0.0,0.0,0.0,0.0,0.0,-2.0079,-2.0,-1.975,-1.9663,-1.9663,-1.9594,-1.9559,-1.952,-1.9522,-1.9472,-1.9427,-1.9472,-1.953,-1.9538,-1.953,-1.9545,0.0,0.0,0.0,0.0,0.0,0.0,0.0,0.0,-2.387,-2.4468,-2.5844,-2.6422,-2.7018,-2.8241,-2.8623,-2.8998,-2.9679,-2.959,-2.9519,-2.9794,-2.8911,-2.8491,-2.9132,-2.9174,-2.9176,-2.9409,-2.9409,-2.9411,-2.9357,-2.9243,-2.9049,-2.881,-2.8675,-2.86,-2.86,-2.86,-2.8574,-2.8487,-2.8228,-2.794,-2.7597,-2.6557,-2.5907,-2.5564,-2.4663,-2.4232,-2.4216,-2.405,-2.4017,-2.3984,-2.361,-2.3209,-2.2744,-2.2186,-2.1057,-1.9744,-1.9555,-1.9391,-1.9304,-1.183,-1.1913,-1.1678,-1.0999,-1.0781,-1.0912,-1.158,-1.1721,-1.1826,-1.2065,-1.1504,-1.1114,-1.1206,-1.0652,-1.1062,-1.3112,0.0,0.0,0.0,0.0,0.0,0.0,0.0,0.0,0.0,0.0,0.0,0.0,0.0,0.0,0.0,0.0,0.0,0.0,0.0,0.0,0.0,0.0,0.0,0.0,-2.02,-2.0182,-2.0152,-2.013,-2.0035,-1.9866,-1.992,-1.9803,-1.9592,-1.9585,-1.9525,-1.9478,-1.9485,-1.9527,-1.9606,-1.9609,0.0,-1.9663,-1.9688,-1.9781,-2.0419,-2.2598,-2.2171,-2.177,0.0,-2.4906,-2.5686,-2.6469,-2.784,-2.8973,-2.9095,-2.9227,-2.9418,-2.9758,-2.9031,-2.8646,-2.9111,-2.8286,-2.7702,-2.7904,-2.7584,-2.7737,-2.8628,-2.872,-2.8957,-2.9533,-2.9456,-2.9212,-2.8822,-2.8675,-2.86,-2.86,-2.86,-2.8448,-2.8174,-2.8098,-2.7826,-2.726,-2.703,-2.6756,-2.6368,-2.5463,-2.5029,-2.4944,-2.4282,-2.4017,-2.3984,-2.3843,-2.3386,-2.2771,-2.2385,-2.1828,-2.1147,-2.0895,-2.0436,-2.0001,-1.2046,-1.2158,-1.1973,-1.1647,-1.1505,-1.1522,-1.176,-1.179,-1.1822,-1.1917,-1.1779,-1.1821,-1.2261,-1.2468,-1.303,-1.4087,-1.4875,0.0,-1.5733,0.0,0.0,0.0,0.0,0.0,0.0,0.0,0.0,0.0,0.0,0.0,0.0,0.0,0.0,0.0,0.0,0.0,0.0,0.0,0.0,0.0,-2.1785,-2.1752,-2.1658,-2.1184,-2.0954,-2.0766,-2.0222,-2.0,0.0,0.0,-1.9748,-1.9744,-1.9688,-1.9688,-1.9738,-1.9701,-1.9732,0.0,-2.0332,-2.0787,-2.1463,-2.2935,-2.3229,-2.3543,-2.4843,-2.5491,-2.5991,-2.6692,-2.7456,-2.8166,-2.866,-2.8849,-2.899,-2.9255,-2.8936,-2.857,-2.8387,-2.7502,-2.6924,-2.698,-2.6802,-2.7068,-2.7975,-2.8096,-2.8298,-2.8809,-2.8755,-2.8734,-2.8785,-2.8712,-2.865,-2.86,-2.86,-2.8549,-2.8396,-2.8396,-2.8079,-2.7491,-2.7562,-2.7244,-2.6502,-2.6253,-2.6,-2.5722,-2.5391,-2.5154,-2.4857,-2.4544,-2.4147,-2.3634,-2.3185,-2.2816,-2.2384,-2.1362,-2.0843,-2.0611,-1.1789,-1.2015,-1.2127,-1.2033,-1.197,-1.1906,-1.1801,-1.179,-1.179,-1.179,-1.1929,-1.2288,-1.2936,-1.3594,-1.4179,-1.4684,-1.5475,-1.5861,0.0,-1.621,0.0,0.0,0.0,0.0,0.0,0.0,0.0,0.0,0.0,0.0,0.0,0.0,0.0,0.0,0.0,0.0,0.0,0.0,0.0,-2.2931,-2.2902,-2.2865,-2.2752,-2.1875,-2.1567,-2.1405,-2.0472,-2.0112,0.0,0.0,-1.9919,-1.9887,-1.9877,-1.9866,-1.9909,-2.0157,-2.0215,-2.0387,-2.1211,-2.1564,-2.2039,-2.3313,-2.3937,-2.4492,-2.5195,-2.5629,-2.5988,-2.6515,-2.6885,-2.7281,-2.7951,-2.8172,-2.8305,-2.8502,-2.8338,-2.8033,-2.7528,-2.6716,-2.6222,-2.6462,-2.6427,-2.6746,-2.7625,-2.7701,-2.7892,-2.8353,-2.8258,-2.8383,-2.8855,-2.8761,-2.865,-2.86,-2.86,-2.86,-2.86,-2.86,-2.8331,-2.7797,-2.7855,-2.7441,-2.6606,-2.664,-2.6486,-2.6185,-2.6185,-2.5936,-2.5481,-2.5079,-2.4675,-2.4255,-2.3683,-2.34,-2.3172,-2.1974,-2.1423,-2.1278,-1.1133,-1.1697,-1.219,-1.2096,-1.2033,-1.1959,-1.1811,-1.179,-1.179,-1.179,-1.1801,-1.207,-1.2752,-1.2985,-1.3651,-1.4975,-1.5627,-1.6228,-1.6797,-1.657,0.0,0.0,0.0,0.0,0.0,0.0,0.0,0.0,0.0,0.0,0.0,0.0,0.0,0.0,0.0,0.0,0.0,0.0,-2.3007,-2.3008,-2.2931,-2.2901,-2.2773,-2.1845,-2.1544,-2.1477,-2.0623,0.0,0.0,0.0,-2.0002,-1.9903,-1.9972,-2.0002,0.0,-2.1028,-2.1221,-2.1342,-2.2304,-2.18,-2.1601,-2.4054,-2.3937,-2.3471,-2.4351,-2.5132,-2.5734,-2.5889,-2.6551,-2.7165,-2.7281,-2.7358,-2.7411,-2.7611,-2.6912,-2.6432,-2.66,-2.5844,-2.5532,-2.6408,-2.6438,-2.6746,-2.7625,-2.7701,-2.794,-2.857,-2.8303,-2.8386,-2.9078,-2.8785,-2.86,-2.86,-2.86,-2.86,-2.86,-2.86,-2.8422,-2.8071,-2.7704,-2.728,-2.6855,-2.6434,-2.6203,-2.6185,-2.6185,-2.5936,-2.5481,-2.5079,-2.4675,-2.4234,-2.3566,-2.3282,-2.326,-2.2971,-2.2475,-2.1975,-1.101,-1.1697,-1.219,-1.2096,-1.2075,-1.2023,-1.1895,-1.1822,-1.179,-1.179,-1.2556,0.0,0.0,0.0,0.0,0.0,-1.596,-1.6312,-1.6939,-1.6812,0.0,0.0,0.0,0.0,0.0,0.0,0.0,0.0,0.0,0.0,0.0,0.0,0.0,0.0,0.0,0.0,0.0,0.0,-2.4726,-2.4733,-2.4763,-2.4719,-2.4523,-2.3689,-2.3024,-2.2422,0.0,0.0,0.0,0.0,-2.0259,-2.0241,-2.0227,0.0,0.0,-2.0538,-2.0945,-2.1458,-2.2288,-2.2628,-2.3044,-2.4315,-2.446,-2.4383,-2.4572,-2.4918,-2.5175,-2.5227,-2.5501,-2.5963,-2.658,-2.6772,-2.6845,-2.6929,-2.671,-2.6299,-2.5803,-2.547,-2.5554,-2.6414,-2.6948,-2.7376,-2.7663,-2.7166,-2.7331,-2.8502,-2.7867,-2.7923,-2.9052,-2.8868,-2.8687,-2.86,-2.86,-2.86,-2.86,-2.86,-2.8435,-2.8084,-2.7437,-2.7001,-2.6807,-2.6382,-2.6185,-2.6185,-2.6185,-2.5789,-2.5098,-2.4962,-2.4482,-2.3803,-2.3553,-2.34,-2.329,-2.309,-2.2862,-2.2591,-1.0703,-1.1512,-1.219,-1.2158,-1.2137,0.0,0.0,0.0,0.0,0.0,0.0,0.0,0.0,0.0,0.0,0.0,0.0,-1.626,-1.6644,-1.6786,0.0,0.0,0.0,0.0,0.0,0.0,0.0,0.0,0.0,0.0,0.0,0.0,0.0,0.0,0.0,0.0,0.0,0.0,-2.5575,-2.5579,-2.53,-2.5159,-2.4955,-2.3803,-2.3019,0.0,0.0,0.0,0.0,-2.0383,-2.0394,-2.0396,0.0,0.0,0.0,0.0,-2.1188,-2.1883,-2.267,-2.3194,-2.37,-2.4467,-2.476,-2.4823,-2.4773,-2.4854,-2.4915,-2.4968,-2.505,-2.5273,-2.5888,-2.6069,-2.6154,-2.6154,-2.6154,-2.5923,-2.5385,-2.5288,-2.5718,-2.6841,-2.7419,-2.7956,-2.8542,-2.7816,-2.7694,-2.8662,-2.798,-2.8045,-2.9169,-2.9004,-2.8797,-2.86,-2.8675,-2.8675,-2.86,-2.86,-2.8357,-2.7833,-2.733,-2.6906,-2.6589,-2.6328,-2.6185,-2.6185,-2.6185,-2.5715,-2.4902,-2.4902,-2.44,-2.3588,-2.3458,-2.34,-2.329,-2.309,-2.2955,-2.2888,-1.0272,-1.1276,-1.22,0.0,0.0,0.0,0.0,0.0,0.0,0.0,0.0,0.0,0.0,0.0,0.0,0.0,0.0,0.0,-1.6111,0.0,0.0,0.0,-1.7195,-1.7448,-1.776,-1.7726,-1.7882,0.0,0.0,0.0,0.0,0.0,0.0,0.0,0.0,0.0,0.0,0.0,-2.5412,-2.5381,-2.4568,-2.4246,-2.4045,-2.2394,0.0,0.0,0.0,0.0,0.0,0.0,0.0,0.0,0.0,0.0,0.0,-2.1613,-2.206,-2.2707,-2.3404,-2.3549,-2.3678,-2.4579,-2.4775,-2.4752,-2.4897,-2.491,-2.4968,-2.5097,-2.5126,-2.516,-2.5298,-2.5351,-2.5351,-2.5351,-2.5423,-2.5423,-2.5385,-2.537,-2.5964,-2.762,-2.7738,-2.8352,-3.0046,-2.9459,-2.8949,-2.8949,-2.8615,-2.8679,-2.9381,-2.9206,-2.8959,-2.8625,-2.881,-2.881,-2.86,-2.86,-2.821,-2.7411,-2.7411,-2.6971,-2.6185,-2.6185,-2.6185,-2.6185,-2.6168,-2.5663,-2.4902,-2.4902,-2.44,-2.3631,-2.3414,-2.3326,-2.3282,-2.3,-2.2888,-2.2888,0.0,0.0,0.0,0.0,0.0,0.0,0.0,0.0,0.0,0.0,0.0,0.0,0.0,0.0,0.0,0.0,0.0,0.0,-1.6111,0.0,0.0,0.0,0.0,0.0,-1.7507,-1.7589,0.0,0.0,0.0,0.0,0.0,0.0,0.0,0.0,0.0,0.0,0.0,0.0,-2.3531,-2.3572,0.0,-2.3349,-2.3277,0.0,0.0,0.0,0.0,0.0,0.0,0.0,0.0,0.0,0.0,-2.2479,-2.2669,0.0,0.0,-2.3562,-2.3715,-2.4125,-2.4568,-2.4792,-2.5006,-2.5164,-2.5198,-2.5236,-2.5278,-2.5303,-2.5312,-2.5314,-2.5374,-2.5919,-2.6344,-2.6344,-2.6863,-2.7005,-2.6346,-2.6294,-2.6737,-2.7762,-2.7867,-2.85,-3.012,-3.0042,-2.9879,-2.9879,-2.9049,-2.8873,-2.9579,-2.9444,-2.9174,-2.8846,-2.8881,-2.881,-2.86,-2.86,-2.821,-2.7411,-2.7411,-2.6971,-2.6185,-2.6185,-2.6185,-2.6168,-2.583,-2.5387,-2.4902,-2.4902,-2.4583,-2.4099,-2.3867,-2.373,-2.3666,-2.3112,-2.2888,-2.2888,0.0,0.0,0.0,0.0,0.0,0.0,0.0,0.0,0.0,0.0,0.0,0.0,0.0,0.0,0.0,0.0,0.0,0.0,0.0,0.0,0.0,0.0,0.0,0.0,0.0,0.0,0.0,0.0,0.0,0.0,0.0,0.0,0.0,0.0,0.0,0.0,0.0,0.0,0.0,0.0,0.0,0.0,0.0,0.0,0.0,0.0,0.0,0.0,0.0,0.0,0.0,-2.2965,-2.2975,-2.2977,-2.3029,-2.3379,0.0,-2.4,-2.4279,-2.4662,-2.5013,-2.5062,-2.5198,-2.5321,-2.5332,-2.5389,-2.5407,-2.5447,-2.5433,-2.5422,-2.5455,-2.6164,-2.6749,-2.6749,-2.7446,-2.7808,-2.7344,-2.7307,-2.7621,-2.8405,-2.8516,-2.898,-3.0169,-3.0254,-3.024,-3.0192,-2.9619,-2.9396,-2.968,-2.9617,-2.9363,-2.8917,-2.895,-2.8857,-2.86,-2.86,-2.8264,-2.7562,-2.7457,-2.7035,-2.638,-2.6239,-2.6185,-2.6185,-2.5936,-2.5556,-2.5176,-2.5176,-2.4922,-2.4533,-2.4235,-2.4101,-2.4048,-2.3392,-2.3105,-2.3083,0.0,0.0,0.0,0.0,0.0,0.0,0.0,0.0,0.0,-1.3039,-1.3168,-1.3715,0.0,0.0,0.0,0.0,0.0,0.0,0.0,0.0,0.0,0.0,0.0,0.0,0.0,0.0,0.0,0.0,0.0,0.0,0.0,0.0,0.0,0.0,0.0,0.0,0.0,0.0,0.0,0.0,0.0,0.0,0.0,0.0,0.0,0.0,0.0,0.0,0.0,0.0,-2.3845,-2.3262,-2.3323,-2.3302,-2.3364,-2.4092,-2.4221,-2.4322,-2.4963,-2.5121,-2.5138,-2.5283,-2.5293,-2.5303,-2.5361,-2.5391,-2.5425,-2.5503,-2.5433,-2.5413,-2.5485,-2.6318,-2.6982,-2.6982,-2.7795,-2.8372,-2.8297,-2.8265,-2.8521,-2.9237,-2.9303,-2.9592,-3.0281,-3.0322,-3.0267,-3.0199,-3.0128,-3.0007,-2.9744,-2.9761,-2.9541,-2.8964,-2.9019,-2.8879,-2.86,-2.86,-2.8317,-2.7803,-2.7532,-2.7099,-2.6606,-2.631,-2.6185,-2.6185,-2.6132,-2.5866,-2.5486,-2.5486,-2.5278,-2.4962,-2.4652,-2.4532,-2.445,-2.373,-2.345,-2.3384,0.0,0.0,0.0,0.0,0.0,0.0,0.0,0.0,0.0,0.0,0.0,0.0,0.0,0.0,0.0,0.0,0.0,0.0,0.0,0.0,0.0,0.0,0.0,0.0,0.0,0.0,0.0,0.0,0.0,0.0,0.0,0.0,0.0,0.0,0.0,0.0,0.0,0.0,0.0,0.0,0.0,0.0,0.0,0.0,0.0,0.0,0.0,0.0,0.0,0.0,-2.4641,-2.5039,-2.5072,-2.5046,-2.5077,-2.5215,-2.517,-2.5111,-2.5244,-2.5182,-2.5138,-2.5283,-2.5303,-2.5322,-2.5365,-2.5404,0.0,-2.5503,-2.5476,-2.5485,-2.558,-2.6872,-2.796,-2.796,-2.921,-2.992,-2.9263,-2.9188,-2.9243,-2.9368,-2.9386,-2.9683,-3.038,-3.0381,-3.0267,-3.0199,-3.0178,-3.0098,-2.9872,-2.9872,-2.9626,-2.9082,-2.8821,-2.8675,-2.86,-2.86,-2.8317,-2.7803,-2.7532,-2.7099,-2.6606,-2.631,-2.6185,-2.6168,-2.5793,-2.5594,-2.5486,-2.5486,-2.5449,-2.5373,-2.5291,-2.5234,-2.5118,-2.4038,-2.3636,-2.3644,0.0,0.0,0.0,0.0,0.0,0.0,0.0,0.0,0.0,0.0,0.0,0.0,0.0,0.0,0.0,0.0,0.0,0.0,0.0,0.0,0.0,0.0,0.0,0.0,0.0,0.0,-1.776,0.0,0.0,0.0,0.0,0.0,0.0,0.0,0.0,0.0,0.0,0.0,0.0,0.0,0.0,0.0,0.0,0.0,0.0,0.0,0.0,0.0,0.0,0.0,-2.5535,-2.6126,-2.5634,-2.5517,-2.5565,-2.5523,-2.5437,-2.5406,-2.54,-2.5355,-2.5332,-2.5373,-2.5387,-2.5275,-2.4876,0.0,0.0,-2.4953,-2.5229,-2.5583,-2.5623,-2.6721,-2.7734,-2.8163,-2.9279,-3.0087,-3.0128,-3.0143,-3.0149,-3.0128,-3.0144,-3.0254,-3.0509,-3.0423,-3.0302,-3.0241,-3.0219,-3.0121,-2.9905,-2.9635,-2.9387,-2.9115,-2.8773,-2.86,-2.86,-2.86,-2.8419,-2.7989,-2.776,-2.7415,-2.7006,-2.6742,-2.6538,-2.6398,-2.6155,-2.5994,-2.5848,-2.5848,-2.5848,-2.5848,-2.5701,-2.5645,-2.5551,-2.4623,-2.4277,-2.4214,0.0,0.0,0.0,0.0,0.0,0.0,0.0,0.0,0.0,0.0,0.0,0.0,0.0,0.0,0.0,0.0,0.0,0.0,0.0,0.0,0.0,0.0,0.0,0.0,0.0,0.0,0.0,-1.8016,0.0,0.0,0.0,0.0,0.0,0.0,0.0,0.0,0.0,0.0,0.0,0.0,0.0,0.0,0.0,0.0,0.0,0.0,0.0,0.0,0.0,0.0,-2.605,-2.6501,-2.5741,-2.5578,-2.5593,-2.5566,-2.5504,-2.5511,-2.5494,-2.5503,-2.5488,-2.5488,-2.5488,-2.5333,-2.4633,-2.5018,0.0,-2.4703,-2.512,-2.5613,-2.5683,-2.6547,-2.7485,0.0,-2.9165,-3.014,-3.0962,-3.0921,-3.0875,-3.1059,-3.0917,-3.0756,-3.0605,-3.0486,-3.037,-3.0316,-3.0181,-3.0083,-2.9905,-2.9436,-2.9148,-2.9115,-2.8821,-2.865,-2.86,-2.86,-2.8484,-2.8246,-2.7933,-2.7672,-2.7434,-2.7152,-2.6859,-2.6606,-2.6606,-2.645,-2.6185,-2.6185,-2.6185,-2.6168,-2.6041,-2.5954,-2.5862,-2.5188,-2.4914,-2.4795,0.0,0.0,0.0,0.0,0.0,0.0,0.0,0.0,0.0,0.0,0.0,0.0,0.0,0.0,0.0,0.0,0.0,0.0,0.0,0.0,0.0,0.0,0.0,0.0,0.0,0.0,0.0,-1.8001,-1.8328,0.0,0.0,0.0,0.0,0.0,0.0,-1.9887,0.0,0.0,0.0,0.0,0.0,0.0,0.0,0.0,0.0,0.0,0.0,0.0,0.0,0.0,0.0,-2.5694,-2.5624,-2.5599,-2.5598,-2.5673,0.0,0.0,-2.5514,-2.5505,-2.5488,-2.5488,-2.5488,-2.5461,-2.5385,0.0,-2.5505,-2.5468,-2.5522,-2.5613,-2.5683,-2.7054,-2.8191,-2.8279,-2.9639,-3.1002,-3.1872,-3.1318,-3.1074,-3.1893,-3.1278,-3.0767,-3.0604,-3.047,-3.037,-3.0316,-3.0082,-2.9913,-2.9897,-2.957,-2.9301,-2.9115,-2.895,-2.8785,-2.86,-2.86,-2.8523,-2.8367,-2.7975,-2.773,-2.7567,-2.7165,-2.6859,-2.6606,-2.6606,-2.645,-2.6185,-2.6185,-2.6185,-2.6185,-2.6168,-2.6168,-2.6114,-2.5551,-2.5246,-2.5033,0.0,0.0,0.0,0.0,0.0,0.0,0.0,0.0,0.0,0.0,0.0,0.0,0.0,0.0,0.0,0.0,0.0,0.0,0.0,0.0,0.0,0.0,0.0,0.0,0.0,0.0,0.0,-1.8307,-1.8581,0.0,0.0,0.0,0.0,0.0,0.0,-1.9881,-2.002,0.0,0.0,0.0,0.0,0.0,0.0,0.0,0.0,0.0,0.0,0.0,0.0,0.0,0.0,0.0,-2.5813,-2.5664,0.0,0.0,-2.5641,-2.5603,-2.5502,-2.5502,-2.5511,-2.5503,-2.5518,-2.5353,-2.4856,-2.5143,-2.542,-2.4939,-2.527,-2.5832,-2.6389,-2.6624,-2.7251,-2.8819,-2.9205,-2.9789,-3.1122,-3.147,-3.1504,-3.1348,-3.1475,-3.1364,-3.0762,-3.0611,-3.0462,-3.0316,-3.0133,-2.9977,-2.9897,-2.958,-2.9312,-2.9115,-2.8973,-2.881,-2.86,-2.86,-2.8523,-2.838,-2.8178,-2.7961,-2.7839,-2.7552,-2.7213,-2.6842,-2.6842,-2.6589,-2.6185,-2.6185,-2.6185,-2.6185,-2.6185,-2.6185,-2.615,-2.5826,-2.5551,-2.5362,0.0,0.0,0.0,0.0,0.0,0.0,0.0,0.0,0.0,0.0,0.0,0.0,0.0,0.0,0.0,0.0,0.0,0.0,0.0,0.0,0.0,0.0,0.0,0.0,0.0,0.0,0.0,-1.8378,-1.8676,-1.8789,0.0,0.0,-1.9478,-1.9649,0.0,0.0,0.0,0.0,0.0,0.0,0.0,0.0,0.0,0.0,0.0,0.0,0.0,0.0,0.0,0.0,0.0,0.0,0.0,0.0,0.0,0.0,-2.5659,-2.5643,-2.5587,-2.5556,-2.5529,-2.5498,-2.5525,-2.5368,-2.4768,-2.5141,-2.5421,-2.4843,-2.5248,-2.5883,-2.6508,-2.6546,-2.7056,-2.8934,-2.9126,-2.9631,-3.1315,-3.1898,-3.2051,-3.1973,-3.2026,-3.1846,-3.1252,-3.0839,-3.0535,-3.0322,-3.0195,-3.006,-2.9905,-2.9654,-2.9404,-2.9115,-2.9019,-2.8833,-2.86,-2.86,-2.8549,-2.8445,-2.8327,-2.8191,-2.8053,-2.7861,-2.7537,-2.7101,-2.7021,-2.6742,-2.631,-2.6221,-2.6185,-2.6185,-2.6185,-2.6185,-2.6168,-2.6041,-2.5826,-2.5602,0.0,0.0,0.0,0.0,0.0,0.0,0.0,0.0,0.0,0.0,0.0,0.0,0.0,0.0,0.0,0.0,0.0,0.0,0.0,0.0,0.0,0.0,0.0,0.0,0.0,0.0,0.0,-1.8083,-1.8574,-1.8789,-1.8807,-1.9209,-1.9449,-1.9506,0.0,0.0,0.0,0.0,0.0,0.0,0.0,0.0,0.0,0.0,0.0,0.0,0.0,0.0,0.0,0.0,0.0,0.0,0.0,-2.4978,-2.5616,0.0,-2.5663,-2.5614,-2.5682,-2.5657,-2.5574,-2.5514,-2.5546,-2.5617,-2.5587,-2.5583,-2.5623,-2.5683,-2.5687,-2.5687,-2.5726,-2.7132,-2.8269,-2.8319,-2.9718,-3.1393,-3.3122,-3.2646,-3.2755,-3.4471,-3.3131,-3.2097,-3.2075,-3.1195,-3.0535,-3.0322,-3.0248,-3.0126,-2.9905,-2.9813,-2.9589,-2.9126,-2.9104,-2.8925,-2.86,-2.86,-2.86,-2.8587,-2.8458,-2.8327,-2.8205,-2.8053,-2.778,-2.7388,-2.7136,-2.6859,-2.6589,-2.631,-2.6185,-2.6185,-2.6185,-2.6185,-2.6185,-2.6185,-2.5936,-2.5621,0.0,0.0,0.0,0.0,0.0,0.0,0.0,0.0,0.0,0.0,0.0,0.0,0.0,0.0,0.0,0.0,0.0,0.0,0.0,0.0,0.0,0.0,0.0,0.0,0.0,0.0,0.0,-1.8661,-1.8816,-1.8957,-1.9162,-1.9839,-1.9907,-1.9541,-2.0245,-2.0331,0.0,0.0,0.0,0.0,0.0,0.0,-2.346,0.0,0.0,0.0,0.0,0.0,0.0,0.0,0.0,0.0,0.0,0.0,0.0,-2.4826,-2.5231,-2.5664,-2.5659,-2.5644,-2.5657,-2.5576,-2.5585,-2.5603,-2.5595,-2.5621,-2.568,-2.5686,-2.6156,-2.6781,-2.7366,-2.7913,-2.8852,-3.0614,-3.0844,-3.1427,-3.315,-3.3694,-3.3651,-3.2988,-3.1909,-3.1208,-3.1161,-3.0846,-3.0574,-3.0375,-3.0308,-3.019,-3.0046,-2.9893,-2.9589,-2.9126,-2.9115,-2.8925,-2.86,-2.86,-2.86,-2.86,-2.8458,-2.8367,-2.8327,-2.8095,-2.7839,-2.7507,-2.7149,-2.6859,-2.6589,-2.631,-2.6185,-2.6185,-2.6185,-2.6185,-2.6185,-2.6185,-2.6041,-2.5789,0.0,0.0,0.0,0.0,0.0,0.0,0.0,0.0,0.0,0.0,0.0,0.0,0.0,0.0,0.0,0.0,0.0,0.0,0.0,0.0,0.0,0.0,0.0,0.0,0.0,0.0,0.0,-1.8753,-1.8895,-1.9092,-1.9327,-1.9803,-1.9992,-1.9908,-2.0236,-2.0339,0.0,0.0,0.0,0.0,0.0,0.0,-2.2925,0.0,0.0,0.0,0.0,0.0,0.0,0.0,0.0,0.0,0.0,0.0,0.0,0.0,-2.4745,-2.5695,-2.5664,-2.5662,-2.5691,-2.5636,-2.5604,-2.5611,-2.5591,-2.5644,-2.5694,-2.5688,-2.6391,-2.7172,-2.7717,-2.8342,-2.9318,-3.092,-3.0958,-3.1425,-3.3143,-3.3886,-3.3806,-3.2708,-3.1822,-3.1117,-3.0756,-3.0683,-3.0578,-3.0413,-3.0342,-3.0222,-3.0091,-2.9943,-2.9645,-2.9191,-2.9137,-2.8925,-2.86,-2.86,-2.86,-2.86,-2.851,-2.8445,-2.838,-2.8178,-2.7968,-2.7716,-2.7341,-2.7055,0.0,-2.6606,-2.6486,-2.6486,-2.6398,-2.6415,-2.6469,-2.6274,-2.6221,-2.6188,0.0,0.0,0.0,0.0,0.0,0.0,0.0,0.0,0.0,0.0,0.0,0.0,0.0,0.0,0.0,0.0,0.0,0.0,0.0,0.0,0.0,0.0,0.0,0.0,0.0,-1.8256,-1.8506,-1.8558,-1.8921,-1.9166,-1.929,-1.9363,-1.9782,-2.0474,-1.9915,0.0,0.0,0.0,0.0,0.0,-2.3346,-2.3002,0.0,0.0,0.0,0.0,0.0,0.0,0.0,0.0,0.0,0.0,0.0,0.0,0.0,0.0,0.0,0.0,0.0,-2.5661,-2.5703,-2.5625,-2.5662,-2.5661,-2.5615,-2.5657,0.0,-2.5692,-2.643,-2.7094,-2.7094,-2.8499,-2.9709,-2.9788,-3.0411,-3.1464,-3.3143,-3.3338,-3.3295,-3.3317,-3.2556,-3.1673,-3.0784,-3.0626,-3.0534,-3.0413,-3.0331,-3.0248,-3.0098,-2.9999,-2.9744,-2.9326,-2.9201,-2.8959,-2.86,-2.8612,-2.8612,-2.86,-2.8612,-2.8549,-2.8406,-2.8286,-2.815,-2.7982,-2.7587,-2.7404,-2.7373,-2.712,-2.6989,-2.699,-2.6725,-2.6775,-2.6923,-2.6417,-2.6452,-2.6674,0.0,0.0,0.0,0.0,0.0,0.0,0.0,0.0,0.0,0.0,0.0,0.0,0.0,0.0,0.0,0.0,0.0,0.0,0.0,0.0,0.0,0.0,0.0,0.0,0.0,0.0,-1.8584,-1.8895,-1.8981,-1.9113,-1.93,-1.9916,-2.0319,0.0,-2.1129,0.0,0.0,0.0,0.0,0.0,-2.4459,-2.3848,0.0,0.0,0.0,0.0,-2.0093,-2.0246,0.0,0.0,0.0,0.0,0.0,0.0,0.0,0.0,-2.3323,-2.4701,-2.4726,0.0,-2.5698,-2.5698,-2.5699,-2.57,0.0,-2.5703,-2.5702,-2.5701,0.0,-2.7991,-2.7991,-2.9396,-3.0723,-3.1388,-3.166,-3.2168,-3.326,-3.2831,-3.2397,-3.2418,-3.1655,-3.1006,-3.0745,-3.0701,-3.0586,-3.0418,-3.0386,-3.0334,-3.0178,-3.0091,-2.9934,-2.9636,-2.9485,-2.9169,-2.86,-2.8761,-2.8761,-2.86,-2.8761,-2.8737,-2.8549,-2.8406,-2.8286,-2.8136,-2.7716,-2.7476,-2.7373,-2.712,-2.6989,-2.6972,-2.6941,-2.6923,-2.6972,-2.6875,-2.6841,-2.6891,0.0,0.0,0.0,0.0,0.0,0.0,0.0,0.0,0.0,0.0,0.0,0.0,0.0,0.0,0.0,0.0,0.0,0.0,0.0,0.0,0.0,0.0,0.0,0.0,0.0,0.0,0.0,0.0,0.0,-1.9198,0.0,0.0,0.0,0.0,0.0,0.0,0.0,0.0,0.0,0.0,-2.4241,0.0,0.0,0.0,0.0,0.0,-2.0184,-2.0196,0.0,-2.0184,-2.0262,-2.0349,0.0,0.0,0.0,0.0,-2.3626,-2.4999,-2.4984,-2.5629,-2.6271,-2.6261,-2.6263,-2.6269,-2.6277,0.0,0.0,0.0,0.0,-2.8317,-2.8313,-2.9679,-3.0966,-3.1427,-3.1856,-3.2402,-3.3299,-3.2636,-3.2085,-3.2106,-3.1343,-3.0772,-3.0706,-3.0626,-3.0534,-3.0413,-3.0331,-3.0273,-3.0192,-3.0159,-2.9983,-2.9717,-2.9579,-2.9268,-2.8845,-2.8893,-2.8846,-2.8749,-2.8761,-2.8712,-2.8587,-2.8458,-2.8353,-2.8286,-2.7989,-2.7789,-2.7662,-2.7542,-2.74,-2.7307,-2.7213,-2.7228,-2.7291,-2.7069,-2.7133,-2.7291,0.0,0.0,0.0,0.0,0.0,0.0,0.0,0.0,0.0,0.0,0.0,0.0,0.0,0.0,0.0,0.0,0.0,0.0,0.0,0.0,0.0,0.0,0.0,0.0,0.0,0.0,0.0,0.0,0.0,0.0,0.0,0.0,-2.0213,0.0,0.0,0.0,0.0,0.0,0.0,-2.3045,-2.3793,0.0,0.0,0.0,0.0,0.0,0.0,0.0,0.0,-2.0305,-2.0349,-2.04,-2.04,0.0,0.0,0.0,0.0,0.0,-2.564,-2.6438,-2.7111,-2.6776,-2.6807,-2.6893,-2.6957,0.0,0.0,0.0,0.0,0.0,-2.8476,-2.9764,-3.0856,-3.0999,-3.1621,-3.2363,-3.3103,-3.2441,-3.1891,-3.1915,-3.1231,-3.0777,-3.0712,-3.0552,-3.0438,-3.0407,-3.0298,-3.0226,-3.0192,-3.0128,-3.0014,-2.977,-2.9635,-2.9465,-2.9212,-2.9052,-2.8964,-2.8905,-2.8761,-2.8662,-2.8587,-2.8471,-2.8406,-2.838,-2.8286,-2.815,-2.7996,-2.7996,-2.7896,-2.7686,-2.7526,-2.7537,-2.7657,-2.726,-2.7369,-2.7672,0.0,0.0,0.0,0.0,0.0,0.0,0.0,0.0,0.0,0.0,0.0,0.0,0.0,0.0,0.0,0.0,0.0,0.0,0.0,0.0,0.0,0.0,0.0,0.0,0.0,0.0,0.0,0.0,0.0,0.0,-1.9315,-1.9315,-2.0246,-2.197,0.0,0.0,0.0,0.0,0.0,-2.4809,-2.4952,0.0,0.0,0.0,0.0,0.0,0.0,0.0,0.0,-2.0289,-2.0349,-2.04,-2.04,0.0,0.0,0.0,0.0,0.0,-2.529,-2.6812,-2.7671,-2.6225,-2.642,-2.6887,-2.6891,0.0,0.0,0.0,0.0,0.0,0.0,-3.0116,-3.1051,-3.1781,-3.2013,-3.2169,-3.2285,-3.1543,-3.0995,-3.0993,-3.0863,-3.0804,-3.0777,-3.07,-3.0579,-3.0418,-3.0381,-3.0334,-3.0199,-3.0178,-3.0128,-3.0038,-2.9897,-2.9796,-2.9681,-2.9444,-2.9174,-2.8905,-2.8971,-2.8855,-2.86,-2.8574,-2.8497,-2.8393,-2.8367,-2.8219,-2.7996,-2.7996,-2.7896,-2.7701,-2.7672,-2.7672,-2.7701,-2.7627,-2.7642,-2.7701,0.0,0.0,0.0,0.0,0.0,0.0,0.0,0.0,0.0,0.0,0.0,0.0,0.0,0.0,0.0,0.0,0.0,0.0,0.0,0.0,0.0,0.0,0.0,0.0,0.0,0.0,0.0,0.0,0.0,-1.9185,-1.9315,-2.0233,-2.1139,-2.2046,0.0,0.0,0.0,0.0,-2.4337,-2.5153,0.0,0.0,0.0,0.0,0.0,0.0,0.0,0.0,0.0,0.0,-2.042,-2.0435,-2.0435,0.0,0.0,0.0,0.0,0.0,-2.4783,-2.6225,-2.7314,-2.6537,-2.7314,-2.8288,-2.8288,-2.795,0.0,0.0,0.0,0.0,0.0,-3.0195,-3.1093,-3.1977,-3.2091,-3.2091,-3.2091,-3.1348,-3.08,-3.08,-3.0788,-3.0615,-3.0124,-2.9997,-2.9679,-2.9105,-2.9011,-2.8966,-2.8854,-2.8848,-2.9005,-2.9383,-2.9338,-2.9442,-2.9808,-2.9692,-2.9454,-2.9152,-2.9052,-2.8904,-2.8761,-2.865,-2.8562,-2.8497,-2.8497,-2.8393,-2.8205,-2.8136,-2.8025,-2.7868,-2.7745,-2.7701,-2.7701,-2.7701,-2.7701,-2.7701,0.0,0.0,0.0,0.0,0.0,0.0,0.0,0.0,0.0,0.0,0.0,0.0,0.0,0.0,0.0,0.0,0.0,0.0,0.0,0.0,0.0,0.0,0.0,0.0,0.0,0.0,-1.8706,-1.8947,-1.9031,-1.9146,-1.9315,-2.0821,-2.1693,-2.2091,0.0,0.0,0.0,-2.4365,-2.4545,-2.5153,0.0,0.0,0.0,0.0,0.0,0.0,0.0,0.0,0.0,0.0,0.0,0.0,0.0,0.0,0.0,-2.1745,-2.2876,-2.4199,-2.4588,-2.5792,-2.6957,-2.7152,-2.8052,-2.8989,-2.9418,-2.8834,0.0,0.0,0.0,0.0,0.0,-3.0505,-3.125,-3.1705,-3.1816,-3.1738,-3.1544,-3.0958,-3.0528,-3.0528,-3.0519,-3.0232,-2.9589,-2.9224,-2.8713,-2.7961,-2.785,-2.7873,-2.7969,-2.7962,-2.8318,-2.9101,-2.9117,-2.9353,-2.9876,-2.9825,-2.9682,-2.9384,-2.913,-2.8973,-2.8927,-2.8773,-2.8712,-2.8675,-2.8675,-2.8574,-2.838,-2.8259,-2.8122,-2.7968,-2.7774,-2.7701,-2.7701,-2.7701,-2.7701,-2.7701,0.0,0.0,0.0,0.0,0.0,0.0,0.0,0.0,0.0,0.0,0.0,0.0,0.0,0.0,0.0,0.0,0.0,0.0,0.0,0.0,0.0,0.0,0.0,0.0,0.0,-1.8574,-1.8789,-1.8816,-1.915,-1.93,-1.9315,-2.0181,-2.1094,-2.2046,0.0,0.0,-2.4902,-2.4839,-2.4962,-2.5191,-2.5143,0.0,0.0,0.0,0.0,0.0,0.0,0.0,0.0,0.0,0.0,0.0,0.0,0.0,-2.0732,-2.1551,-2.2447,-2.3536,-2.5173,-2.6249,-2.7092,-2.7909,-2.7573,-2.7509,-2.9145,-2.8834,0.0,-3.0275,0.0,-3.0713,-3.0717,-3.1403,-3.1755,-3.0999,-3.0878,-3.0645,-2.9866,-2.9749,-2.9709,-2.9709,-2.9708,-2.9624,-2.9528,-2.8743,-2.8187,-2.7933,-2.7907,-2.8163,-2.8771,-2.8796,-2.9223,-3.0063,-3.0037,-3.003,-3.0099,-2.9893,-2.9682,-2.9384,-2.9363,-2.927,-2.9093,-2.9071,-2.9019,-2.8881,-2.8881,-2.87,-2.838,-2.8259,-2.8122,-2.7968,-2.7774,-2.7701,-2.7701,-2.7701,-2.7701,-2.7701,0.0,0.0,0.0,0.0,0.0,0.0,0.0,0.0,0.0,0.0,0.0,0.0,0.0,0.0,0.0,0.0,0.0,0.0,0.0,0.0,0.0,0.0,0.0,-1.82,-1.82,-1.8483,-1.8669,-1.8798,-1.9158,-1.9572,-2.0071,-2.0923,0.0,0.0,0.0,-2.4195,-2.4593,-2.4825,-2.4935,-2.5038,-2.5147,-2.4706,0.0,0.0,0.0,0.0,0.0,0.0,0.0,0.0,-2.0439,-2.0509,-2.0467,-2.0482,-2.0576,-2.0888,-2.1979,-2.3226,-2.3887,-2.5479,-2.7106,-2.7984,-2.7948,0.0,0.0,-2.9616,-2.9958,-3.0598,-3.0733,-3.0763,-3.0805,-3.1523,-3.1668,-3.0295,-3.0489,-3.0332,-2.8967,-2.8771,-2.8771,-2.8771,-2.8771,-2.8572,-2.801,-2.7657,-2.716,-2.6473,-2.6407,-2.6738,-2.7508,-2.7451,-2.805,-2.9481,-2.9428,-2.9587,-3.0122,-3.0014,-2.9876,-2.9664,-2.9464,-2.9353,-2.9291,-2.9158,-2.9071,-2.9004,-2.9004,-2.8915,-2.8712,-2.8587,-2.838,-2.8109,-2.7803,-2.7701,-2.7701,-2.7701,-2.7701,-2.7701,0.0,0.0,0.0,0.0,0.0,0.0,0.0,0.0,0.0,0.0,0.0,0.0,0.0,0.0,0.0,0.0,0.0,0.0,0.0,0.0,0.0,0.0,0.0,-1.82,-1.82,-1.8393,-1.8584,-1.8798,-1.9158,-1.9711,-2.0511,0.0,0.0,0.0,0.0,-2.4211,-2.4518,-2.4495,0.0,-2.5025,-2.5136,-2.4854,0.0,0.0,0.0,0.0,0.0,0.0,0.0,0.0,-2.0394,-2.0468,-2.0439,-2.0463,-2.0524,-2.0807,-2.2135,-2.3575,-2.3848,-2.555,-2.7444,-2.8059,0.0,0.0,-2.9341,-2.9913,-3.0403,-3.0658,-3.0703,-3.0704,-3.0776,-3.1289,-3.1128,-2.9477,-2.9669,-2.9434,-2.7717,-2.7717,-2.7874,-2.7874,-2.7874,-2.7676,-2.7043,-2.6767,-2.6399,-2.595,-2.5921,-2.6382,-2.7438,-2.7407,-2.8022,-2.9421,-2.9392,-2.958,-3.0113,-3.0091,-3.0007,-2.9842,-2.9608,-2.9531,-2.9501,-2.9353,-2.9243,-2.9191,-2.9191,-2.913,-2.895,-2.8821,-2.8601,-2.8317,-2.8065,-2.7926,-2.7826,-2.7826,-2.7754,-2.7701,0.0,0.0,0.0,0.0,0.0,0.0,0.0,0.0,0.0,0.0,0.0,0.0,0.0,0.0,0.0,0.0,0.0,0.0,0.0,0.0,0.0,0.0,0.0,-1.82,-1.82,-1.8393,-1.8619,-1.8798,-1.915,-1.9711,-2.0539,-2.14,0.0,0.0,0.0,0.0,-2.4632,0.0,0.0,0.0,-2.5191,-2.5187,-2.5116,0.0,0.0,0.0,0.0,0.0,0.0,0.0,-2.0331,-2.0418,-2.0473,0.0,0.0,-2.154,-2.303,-2.4588,-2.5446,-2.6887,-2.8133,-2.8171,0.0,0.0,-2.9488,-2.9499,-2.9727,-3.0505,-3.0664,-3.0711,-3.0742,-3.0778,-3.0228,-2.8544,-2.8303,-2.7678,-2.5922,-2.643,-2.6977,-2.6977,-2.6977,-2.6977,-2.6977,-2.6196,-2.6026,-2.6838,-2.6845,-2.7495,-2.9111,-2.9207,-2.9555,-3.0272,-3.031,-3.026,-3.0192,-3.0121,-3.003,-2.9897,-2.9851,-2.9755,-2.9701,-2.9701,-2.9579,-2.9384,-2.9384,-2.9301,-2.9104,-2.8945,-2.8784,-2.8591,-2.8591,-2.8389,-2.8098,-2.8098,-2.794,-2.7716,0.0,0.0,0.0,0.0,0.0,0.0,0.0,0.0,0.0,0.0,0.0,0.0,0.0,0.0,0.0,0.0,0.0,0.0,0.0,0.0,0.0,0.0,0.0,0.0,0.0,0.0,-1.9366,-1.9563,-1.9253,-1.9771,0.0,0.0,0.0,-2.2143,0.0,0.0,0.0,0.0,0.0,0.0,-2.4223,-2.4662,-2.5116,0.0,0.0,0.0,0.0,0.0,0.0,0.0,0.0,0.0,-2.0331,0.0,-2.2094,-2.1806,-2.3368,-2.5118,-2.4851,-2.6448,0.0,-2.8215,0.0,0.0,0.0,-3.0298,0.0,0.0,-2.9333,-2.8957,-2.902,-2.9023,-2.8667,-2.7564,-2.7406,-2.6977,-2.5844,-2.5922,-2.6078,-2.6078,-2.6078,-2.6078,-2.6078,-2.5844,-2.5801,-2.6025,-2.6594,-2.7385,-2.8432,-2.8985,-2.9657,-3.0496,-3.0375,-3.0292,-3.026,-3.0206,-3.0121,-3.0038,-2.9905,-2.9816,-2.9701,-2.9701,-2.9683,-2.9598,-2.9598,-2.9511,-2.9301,-2.899,-2.8865,-2.8795,-2.8652,-2.8529,-2.844,-2.8402,-2.8337,-2.8232,0.0,0.0,0.0,0.0,0.0,0.0,0.0,0.0,0.0,0.0,0.0,-1.387,0.0,0.0,0.0,0.0,0.0,0.0,0.0,0.0,0.0,0.0,0.0,0.0,0.0,-1.9438,-1.993,0.0,0.0,0.0,0.0,0.0,-2.0832,-2.1625,0.0,-2.1545,-2.1873,0.0,0.0,0.0,-2.329,-2.3929,-2.4661,0.0,0.0,0.0,0.0,0.0,0.0,0.0,0.0,0.0,-2.1274,0.0,0.0,-2.3134,-2.4549,-2.607,-2.6366,-2.7775,0.0,-2.924,-2.9969,-3.0619,-3.029,-3.0189,-2.9945,-2.9075,-2.8503,-2.82,-2.8274,-2.8241,-2.7968,-2.7137,-2.7016,-2.6703,-2.5805,-2.5687,-2.5687,-2.5687,-2.5687,-2.5687,-2.5687,-2.5687,-2.5844,-2.6196,-2.6691,-2.7495,-2.8649,-2.9099,-2.974,-3.0586,-3.0482,-3.0386,-3.031,-3.0248,-3.0199,-3.0114,-3.0022,-2.9901,-2.9719,-2.972,-2.9701,-2.9701,-2.9701,-2.9617,-2.9511,-2.9312,-2.9191,-2.9158,-2.9027,-2.8902,-2.8736,-2.8725,-2.8603,-2.8491,0.0,0.0,-1.2354,-1.2292,0.0,0.0,0.0,0.0,0.0,0.0,0.0,-1.3568,0.0,0.0,0.0,-1.6409,0.0,0.0,0.0,0.0,0.0,0.0,0.0,0.0,0.0,0.0,0.0,0.0,0.0,0.0,0.0,0.0,-2.0517,-2.1206,0.0,-2.0997,-2.1711,-2.1249,0.0,-2.2261,-2.2413,-2.3033,-2.3899,-2.386,0.0,0.0,0.0,0.0,0.0,0.0,0.0,0.0,-2.2804,-2.2919,-2.3317,-2.4891,-2.6094,-2.7239,-2.8815,-2.9905,-3.0595,-3.0658,-3.0647,-3.0392,-2.9572,-2.9302,-2.9032,-2.8251,-2.7959,-2.7904,-2.8033,-2.7949,-2.7641,-2.6986,-2.6861,-2.6586,-2.5805,-2.5687,-2.5687,-2.5687,-2.5687,-2.5687,-2.5687,-2.5687,-2.6039,-2.6821,-2.6964,-2.7656,-2.9175,-2.9372,-2.9751,-3.0474,-3.0552,-3.0501,-3.0334,-3.0322,-3.0241,-3.0106,-3.0098,-3.0007,-2.9825,-2.9766,-2.9711,-2.9701,-2.9701,-2.9701,-2.9701,-2.9701,-2.9673,-2.9579,-2.954,-2.9332,-2.9038,-2.903,-2.8832,-2.8578,0.0,0.0,-1.3605,-1.3093,0.0,0.0,0.0,0.0,-1.299,-1.299,-1.3248,-1.3768,-1.4578,-1.5016,0.0,-1.6517,-1.7241,0.0,0.0,0.0,0.0,0.0,0.0,0.0,0.0,0.0,0.0,0.0,0.0,0.0,0.0,0.0,0.0,-1.9754,0.0,-1.97,0.0,0.0,-2.0432,-2.1299,-2.1464,-2.2081,-2.2982,-2.2964,-2.3031,0.0,0.0,0.0,0.0,0.0,0.0,0.0,-2.2803,-2.3655,-2.4648,-2.4452,-2.599,-2.7706,-2.7433,-2.8529,0.0,-2.9766,-2.9764,-2.9518,-2.8618,-2.7901,-2.7374,-2.7131,-2.6578,-2.6149,-2.6172,-2.6157,-2.6092,-2.6014,-2.5968,-2.5922,-2.5726,-2.5687,-2.5687,-2.5687,-2.5687,-2.5687,-2.5687,-2.5687,-2.5765,-2.5961,-2.6622,-2.7162,-2.7537,-2.8778,-2.9533,-2.9638,-3.0288,-3.0578,-3.0554,-3.0413,-3.0325,-3.0254,-3.0202,-3.0111,-3.0014,-2.9851,-2.9737,-2.9701,-2.9701,-2.9701,-2.9701,-2.9701,-2.9701,-2.9683,-2.9589,-2.9511,-2.9384,-2.9322,-2.9286,-2.9189,0.0,0.0,0.0,0.0,0.0,0.0,0.0,0.0,-1.3667,-1.3667,-1.3783,-1.3999,-1.4413,-1.4797,0.0,0.0,-1.693,-1.7531,0.0,0.0,0.0,0.0,0.0,0.0,0.0,0.0,0.0,0.0,0.0,0.0,0.0,0.0,0.0,-1.9569,0.0,-1.9858,0.0,-1.9596,-1.9823,-2.0371,-2.0541,-2.1183,-2.2115,-2.213,-2.2421,-2.2837,-2.3274,0.0,0.0,0.0,0.0,0.0,0.0,0.0,-2.5203,-2.526,-2.6539,-2.7902,-2.8025,0.0,0.0,-3.0112,0.0,-2.9255,-2.8335,-2.7493,-2.676,-2.6329,-2.5873,-2.558,-2.5598,-2.5579,-2.5566,-2.5625,-2.5663,-2.57,-2.5689,-2.5689,-2.5689,-2.5687,-2.5687,-2.5687,-2.5687,-2.5687,-2.5687,-2.5687,-2.6117,-2.6544,-2.6965,-2.7815,-2.8464,-2.8792,-2.9213,-2.9627,-2.9966,-2.991,-3.0032,-3.0337,-3.0308,-3.0247,-3.0195,-2.9913,-2.9755,-2.9701,-2.9701,-2.9701,-2.9701,-2.9701,-2.9701,-2.9701,-2.9645,-2.9569,-2.954,-2.9451,-2.9411,-2.937,0.0,0.0,0.0,0.0,0.0,0.0,0.0,0.0,0.0,-1.4363,-1.4363,-1.4387,-1.4448,-1.4574,-1.5023,0.0,0.0,0.0,-1.7893,0.0,0.0,0.0,0.0,0.0,0.0,0.0,0.0,0.0,0.0,0.0,0.0,0.0,0.0,-2.0032,0.0,0.0,0.0,-1.9745,-1.9552,-1.9682,-1.9809,-2.0423,-2.122,-2.1247,-2.1816,-2.2654,-2.3394,-2.386,-2.4206,-2.4889,0.0,0.0,0.0,0.0,-2.5367,-2.614,-2.6925,-2.7803,-2.8691,0.0,-3.0439,-3.0536,-2.9925,0.0,-2.8167,-2.7312,-2.6489,-2.5763,-2.5582,-2.5613,-2.5615,-2.5566,-2.5548,-2.5577,-2.5661,-2.5703,-2.5696,-2.5694,-2.5692,-2.5689,-2.5687,-2.5687,-2.5687,-2.5687,-2.5687,-2.5687,-2.5687,-2.6,-2.6742,-2.6926,-2.7306,-2.7968,-2.8126,-2.8507,-2.9116,-2.9117,-2.9373,-2.9998,-3.0137,-3.0144,-3.0077,-2.9924,-2.9868,-2.9782,-2.9737,-2.9719,-2.971,-2.972,-2.9701,-2.9701,-2.9655,-2.9626,-2.9607,-2.9471,-2.9394,-2.9384,0.0,0.0,0.0,0.0,0.0,0.0,0.0,0.0,0.0,0.0,-1.507,-1.5142,-1.5392,-1.5071,-1.5038,-1.5487,-1.6298,-1.686,0.0,0.0,0.0,0.0,0.0,0.0,0.0,0.0,0.0,0.0,0.0,0.0,0.0,0.0,0.0,-2.0896,0.0,0.0,0.0,-1.9646,-1.9405,-1.9552,-1.9676,-1.989,-2.0136,-2.0317,-2.0911,-2.1692,-2.1799,-2.2816,-2.4129,-2.4202,-2.4736,0.0,0.0,0.0,-2.5301,-2.5372,-2.6043,-2.6795,-2.6921,0.0,-2.9587,0.0,-2.9028,-2.8167,-2.7252,-2.6446,-2.5823,-2.5657,-2.5604,-2.561,-2.5605,-2.5576,-2.5591,-2.5582,-2.5658,-2.5703,-2.5702,-2.57,-2.5689,-2.5693,-2.5689,-2.5687,-2.5687,-2.5687,-2.5687,-2.5687,-2.5687,-2.5765,-2.5883,-2.6584,-2.7046,-2.7147,-2.7829,-2.8231,-2.8357,-2.8285,-2.8275,-2.832,-2.9033,-2.928,-2.9187,-2.9889,-3.0208,-3.0133,-2.9945,-2.9864,-2.9847,-2.9737,-2.9701,-2.9701,-2.9701,-2.9664,-2.9569,-2.9521,-2.9434,-2.9309,0.0,0.0,0.0,0.0,0.0,0.0,0.0,0.0,0.0,0.0,0.0,-1.5703,-1.5518,-1.5534,-1.5692,-1.5943,-1.655,0.0,0.0,0.0,0.0,0.0,0.0,0.0,0.0,0.0,0.0,0.0,0.0,0.0,0.0,-1.9737,-2.0499,0.0,0.0,0.0,0.0,0.0,-1.9804,-1.9518,-1.9579,-2.0314,-2.1271,-2.0426,-2.0962,-2.2105,-2.1667,-2.1991,-2.2778,-2.3783,-2.4356,-2.4697,-2.5154,0.0,0.0,0.0,-2.5828,-2.6759,-2.7788,-2.8718,-2.9548,0.0,-2.9223,-2.8091,-2.7731,-2.6647,-2.5673,-2.5654,-2.5637,-2.5587,-2.5585,-2.5587,-2.5608,-2.5609,-2.5629,-2.5647,-2.5702,-2.5703,-2.5703,-2.5699,-2.5694,-2.5691,-2.5691,-2.5691,-2.569,-2.5687,-2.5689,-2.569,-2.5687,-2.6078,-2.6271,-2.6264,-2.6591,-2.6998,-2.7454,-2.7451,-2.7644,-2.8043,-2.8404,-2.8805,-2.9253,-2.9617,-2.9935,-3.0202,-3.0052,-3.0,-3.0,-2.9969,-2.9937,-2.9929,-2.9822,-2.9808,-2.9764,-2.9608,-2.9521,-2.9397,0.0,0.0,0.0,0.0,0.0,0.0,0.0,0.0,0.0,0.0,0.0,-1.6061,-1.5749,0.0,0.0,0.0,-1.6699,0.0,0.0,0.0,0.0,0.0,0.0,0.0,0.0,0.0,0.0,0.0,0.0,0.0,-2.0002,-2.0077,-2.0903,0.0,-2.2576,-2.2308,0.0,0.0,-2.0207,-1.9789,-2.001,-2.1012,-2.2281,-2.154,-2.2098,-2.3158,-2.2407,-2.2286,-2.2649,-2.374,-2.4091,-2.4206,-2.4812,-2.4836,0.0,0.0,0.0,0.0,0.0,0.0,-2.9225,-3.014,-2.9427,-2.8464,-2.8231,-2.7033,-2.5991,-2.5991,-2.5784,-2.561,-2.5629,-2.5618,-2.5593,-2.5598,-2.5598,-2.5653,-2.5654,-2.5655,-2.5698,-2.5703,-2.5663,-2.5661,-2.5698,-2.5698,-2.5698,-2.5697,-2.5695,-2.5694,-2.5693,-2.5689,-2.5687,-2.5687,-2.563,-2.5925,-2.6574,-2.6565,-2.6883,-2.7463,-2.7696,-2.8123,-2.8787,-2.8999,-2.9287,-2.9669,-2.9788,-2.9864,-2.9812,-2.958,-2.9605,-2.9751,-2.9665,-2.9771,-2.9945,-2.9761,-2.9645,-2.9495,0.0,0.0,0.0,0.0,0.0,0.0,0.0,0.0,0.0,0.0,0.0,-1.6287,-1.6494,-1.5921,-1.5779,-1.6453,-1.6507,0.0,0.0,0.0,0.0,0.0,0.0,0.0,0.0,0.0,0.0,0.0,0.0,0.0,-2.0014,-2.0252,-2.1335,-2.3,-2.2283,-2.1825,-2.1562,0.0,-2.0478,-2.0535,-2.147,-2.1919,-2.2233,-2.3973,-2.4681,-2.4721,-2.4082,-2.4384,-2.5009,-2.4351,-2.4091,-2.4129,-2.4168,-2.3586,-2.3077,0.0,0.0,0.0,0.0,-2.7937,0.0,-2.9032,-2.9315,-2.9101,-2.8282,-2.7434,-2.6846,-2.6846,-2.6223,-2.5677,-2.5675,-2.5622,-2.5608,-2.561,-2.5653,-2.5666,-2.5626,-2.5626,-2.5611,-2.5694,-2.5653,-2.5618,-2.5703,-2.5703,-2.5703,-2.5701,-2.5701,-2.5697,-2.5702,-2.5695,-2.5687,-2.5687,-2.569,-2.568,-2.5679,-2.5668,-2.5679,-2.5757,-2.6572,-2.7003,-2.708,-2.7838,-2.817,-2.8233,-2.8869,-2.9171,-2.9093,-2.8116,-2.8178,-2.8872,-2.8859,-2.9362,-3.0087,-2.9999,-2.9885,-2.9549,0.0,0.0,0.0,0.0,0.0,0.0,0.0,0.0,0.0,0.0,0.0,0.0,0.0,-1.6422,-1.6576,-1.7039,-1.74,0.0,0.0,0.0,0.0,0.0,0.0,0.0,0.0,0.0,0.0,0.0,0.0,-1.829,-1.9316,-1.9889,-2.0597,-2.1405,-2.2503,-2.2792,-2.2438,-2.2191,-2.1823,-2.1408,-2.2305,-2.334,-2.4405,-2.4534,-2.5284,-2.617,-2.4999,-2.4445,-2.4345,-2.4758,-2.4534,-2.4091,-2.4091,-2.3898,-2.3697,-2.3928,-2.4579,-2.545,0.0,0.0,0.0,-2.8844,-2.8848,-2.8574,-2.8851,-2.8297,-2.7507,-2.6996,-2.6652,-2.6303,-2.5796,-2.5673,-2.5669,-2.5669,-2.5661,-2.5619,-2.5589,-2.5546,-2.5554,-2.5623,-2.5598,-2.5607,-2.5615,-2.5658,-2.5699,-2.57,-2.5702,-2.5702,-2.5702,-2.5703,-2.5703,-2.5703,-2.5702,-2.5658,-2.5602,-2.5591,-2.5611,-2.5615,-2.5926,-2.6376,-2.6925,-2.7191,-2.7608,-2.8096,-2.7764,-2.7916,-2.8352,-2.7995,-2.8047,-2.8312,-2.8806,-2.9199,-2.9493,-2.9893,-2.9687,-2.9065,0.0,0.0,0.0,-1.6594,0.0,-1.6194,-1.6194,-1.6194,-1.6194,-1.6194,0.0,0.0,0.0,0.0,-1.6977,-1.7437,-1.7917,-1.82,-1.82,0.0,0.0,0.0,0.0,0.0,0.0,0.0,0.0,0.0,0.0,0.0,0.0,-1.9406,-1.9926,-2.0464,-2.1917,-2.26,0.0,-2.2867,-2.2639,-2.2263,-2.3373,-2.4542,-2.5644,-2.5931,-2.6777,-2.7669,-2.6502,-2.5766,-2.545,-2.5873,-2.5346,-2.4481,-2.449,-2.4312,-2.4086,-2.4063,-2.4594,-2.5417,-2.6308,0.0,0.0,-2.8669,-2.8748,-2.8593,-2.9502,-2.9094,-2.8369,-2.7865,-2.7303,-2.6729,-2.6186,-2.5874,-2.5718,-2.5718,-2.5654,-2.5639,-2.5587,-2.5561,-2.5554,-2.5587,-2.5611,-2.5582,-2.5582,-2.5679,-2.5686,-2.5683,-2.569,-2.5694,-2.5695,-2.5699,-2.5699,-2.5696,-2.5702,-2.5664,-2.5623,-2.5618,-2.5606,-2.558,-2.558,-2.5919,-2.6474,-2.6456,-2.6751,-2.7245,-2.6663,-2.6861,-2.7613,-2.755,-2.7542,-2.7654,-2.843,-2.89,-2.9203,-2.9663,-2.943,-2.8861,-1.8069,-1.7669,-1.727,-1.7239,-1.6686,-1.6239,-1.6239,-1.6194,-1.6194,-1.6239,0.0,0.0,0.0,0.0,0.0,-1.7554,-1.7972,-1.82,-1.82,-1.82,0.0,0.0,0.0,0.0,0.0,0.0,0.0,0.0,0.0,0.0,0.0,0.0,-1.9427,-2.0361,-2.0431,-2.1136,-2.2286,-2.262,-2.2838,-2.3115,-2.473,-2.5411,-2.5735,-2.8312,-2.9275,-2.9231,-2.8633,-2.8533,-2.8563,-2.7804,-2.6505,-2.5253,-2.5296,-2.4755,-2.4091,-2.4091,-2.4625,-2.5384,0.0,0.0,0.0,-2.8421,-2.8906,-2.9236,-3.0077,-2.9781,-2.9363,-2.9405,-2.8093,-2.6924,-2.6924,-2.6303,-2.5757,-2.5757,-2.5718,-2.5671,-2.5612,-2.5608,-2.5608,-2.5608,-2.5608,-2.5608,-2.5608,-2.565,-2.5655,-2.5612,-2.5671,-2.5689,-2.5719,-2.5694,-2.5695,-2.5719,-2.57,-2.5703,-2.57,-2.5623,-2.5615,-2.561,-2.561,-2.5609,-2.5608,-2.558,-2.5603,-2.56,-2.5618,-2.6029,-2.6765,-2.6699,-2.6648,-2.6764,-2.7619,-2.8474,-2.9248,-2.9248,-2.9178,-2.8923,-1.7546,-1.8161,-1.8531,-1.8007,-1.7362,-1.6932,-1.6932,-1.6502,-1.6379,0.0,0.0,0.0,-1.734,-1.7326,-1.7448,-1.7715,-1.8016,-1.82,-1.82,-1.82,-1.82,-1.82,-1.82,-1.8502,0.0,0.0,0.0,0.0,0.0,0.0,0.0,0.0,-1.906,-1.9347,-2.0107,-2.0708,-2.1255,-2.1604,-2.29,-2.4634,-2.4547,-2.5595,-2.721,-2.7937,-2.8585,-2.9086,-2.9072,-2.8717,-2.824,-2.8165,-2.7585,-2.6696,-2.5614,-2.4755,-2.4091,-2.4091,-2.4678,-2.5296,-2.5505,0.0,0.0,0.0,0.0,0.0,-2.9066,-2.8834,-2.8457,-2.9232,-2.8531,-2.7779,-2.7814,-2.7665,-2.7314,-2.6652,-2.6057,-2.5615,-2.561,-2.559,-2.5615,-2.5615,-2.5595,-2.5608,-2.5608,-2.5673,-2.5683,-2.5671,-2.5689,-2.5697,-2.5692,-2.5699,-2.5701,-2.5692,-2.5704,-2.571,-2.5711,-2.5686,-2.566,-2.5664,-2.5663,-2.566,-2.5609,-2.5603,-2.5599,-2.5598,-2.5584,-2.5745,-2.5924,-2.585,-2.5848,-2.5913,-2.6725,-2.7228,-2.7499,-2.8126,-2.795,-2.7334,-1.8161,-1.8731,-1.9179,-1.8746,-1.8084,-1.7608,-1.7608,-1.73,-1.7178,0.0,0.0,0.0,-1.8005,-1.8254,-1.8334,-1.8162,-1.8438,-1.8512,-1.8235,-1.82,-1.82,-1.82,-1.82,-1.865,-1.9613,-1.9292,0.0,0.0,0.0,0.0,0.0,-1.8234,-1.8437,-1.8482,-1.9041,-1.9797,-2.0603,-2.0215,-2.1696,-2.4322,-2.4911,-2.6004,-2.7383,-2.8044,-2.8583,-2.901,-2.9119,-2.8942,-2.8609,-2.8736,-2.8445,-2.7711,-2.6187,-2.5674,-2.5513,-2.4798,-2.5163,-2.5789,-2.5789,-2.5757,-2.5953,-2.6739,0.0,0.0,-2.8738,-2.8692,-2.8618,-2.9623,-2.9186,-2.8653,-2.8685,-2.8432,-2.8015,-2.7509,-2.7033,-2.6439,-2.5738,-2.5647,-2.5634,-2.5585,-2.5608,-2.5615,-2.5593,-2.5661,-2.5675,-2.5667,-2.5675,-2.5718,-2.5718,-2.5718,-2.5718,-2.5718,-2.5718,-2.5683,-2.5692,-2.5699,-2.5716,-2.5697,-2.5698,-2.5663,-2.5624,-2.5622,-2.5658,-2.5658,-2.561,-2.5593,-2.5601,-2.5559,-2.5535,-2.5565,-2.6377,-2.6683,-2.6764,-2.7271,-2.7151,-2.6683,0.0,-1.9364,-1.9395,-1.9395,-1.8808,-1.8315,-1.8315,-1.8253,-1.8222,0.0,-1.8346,-1.8486,-1.8803,-1.9284,-1.9378,-1.8835,-1.9117,-1.9064,-1.8373,-1.8304,-1.8304,-1.82,-1.82,-1.8855,-2.0245,-1.9589,-1.9576,-2.0272,-1.9423,-1.864,-1.7918,-1.785,-1.7783,-1.7783,-1.7783,-1.8688,-2.0062,-1.8953,-2.0159,-2.2955,-2.5168,-2.6329,-2.6906,-2.8326,-2.8913,-2.8987,-2.8987,-2.9097,-2.928,-2.9275,-2.9017,-2.8373,-2.6932,-2.707,-2.7476,-2.602,-2.6091,-2.665,-2.6721,-2.6688,-2.6801,-2.7419,-2.7625,0.0,-2.8556,-2.8774,-2.9054,-2.9934,-2.9597,-2.9143,-2.9233,-2.876,-2.8279,-2.8089,-2.8206,-2.7779,-2.6186,-2.5991,-2.5946,-2.5887,-2.5942,-2.5935,-2.5887,-2.5851,-2.5827,-2.5732,-2.5708,-2.5718,-2.5718,-2.5718,-2.5718,-2.5718,-2.5718,-2.5683,-2.5691,-2.5692,-2.5702,-2.5718,-2.5719,-2.5682,-2.5688,-2.5701,-2.5703,-2.5703,-2.5621,-2.5612,-2.5605,-2.5599,-2.5578,-2.5584,-2.6273,-2.6579,-2.6571,-2.6571,-2.6571,-2.6571,-1.9302,-1.9734,-2.0104,-2.0104,-1.9549,-1.9086,-1.9086,-1.8576,-1.8407,-1.9008,-1.9279,-1.9623,-2.0236,-1.9929,-1.9734,-1.9877,-2.0047,-1.9866,-1.9131,-1.9096,-1.8821,-1.8235,-1.82,-1.8581,-1.9419,-1.9793,-2.004,-2.0139,-1.9883,-1.9406,-1.8674,-1.8099,0.0,-1.7783,-1.7783,-1.8097,-1.8622,-1.9821,-2.1153,-2.2525,-2.3133,-2.5053,-2.7603,-2.7897,-2.8436,-2.8987,-2.8987,-2.9021,-2.9089,-2.9249,-2.8835,-2.8231,-2.822,-2.7901,-2.7521,-2.7349,-2.7422,-2.7532,-2.7576,-2.757,-2.7411,-2.688,-2.7251,0.0,-2.7092,-2.7006,-2.7253,-2.8188,-2.7777,-2.7462,-2.8273,-2.88,-2.8628,-2.7309,-2.8254,-2.8848,-2.7857,-2.7704,-2.7704,-2.7699,-2.7701,-2.7701,-2.7692,-2.7076,-2.6652,-2.6647,-2.6067,-2.5718,-2.5718,-2.5718,-2.5718,-2.5718,-2.5718,-2.5718,-2.5681,-2.5689,-2.5699,-2.5711,-2.5716,-2.5682,-2.5687,-2.5691,-2.5693,-2.5693,-2.5696,-2.5663,-2.5583,-2.5658,-2.5624,-2.5517,-2.5661,-2.5737,-2.572,-2.572,-2.572,-2.572,-1.9795,-2.0073,-2.032,-2.032,-2.0011,-1.9795,-1.9795,-1.9501,-1.9485,-2.0227,-2.0876,-2.1292,-2.131,-2.1301,-2.1239,-2.1063,-2.096,-2.0585,-1.9865,-1.9487,-1.9131,-1.8752,-1.8407,-1.8684,-1.975,-2.0043,-2.0368,-2.0705,-2.0221,-1.9608,-1.8877,-1.8166,-1.7986,-1.8369,-1.8369,-1.8846,-1.9691,-2.021,-2.122,-2.267,-2.3963,-2.5783,-2.7816,-2.8216,-2.8656,-2.895,-2.8546,-2.8411,-2.8459,-2.8986,-2.8968,-2.8666,-2.8437,-2.8428,-2.8409,-2.7806,-2.7891,-2.8255,-2.8383,-2.8407,-2.8292,-2.7844,-2.8074,0.0,0.0,-2.7138,-2.7396,-2.8307,-2.7894,-2.7611,-2.8543,-2.8738,-2.8492,-2.7621,-2.8583,-2.9141,-2.8313,-2.8217,-2.8228,-2.8182,-2.8182,-2.8219,-2.821,-2.7782,-2.7353,-2.6924,-2.651,-2.6077,-2.5716,-2.5718,-2.5718,-2.5718,-2.5718,-2.5718,-2.5718,-2.5683,-2.5694,-2.571,-2.5712,-2.5719,-2.5687,-2.5687,-2.5687,-2.5687,-2.5687,-2.5694,-2.5662,-2.5702,-2.566,-2.558,-2.5544,-2.5549,-2.5556,-2.5522,-2.5508,-2.5505,-2.032,-2.032,-2.032,-2.032,-2.0412,-2.0505,-2.0505,-2.0597,-2.0857,-2.1411,-2.2303,-2.2716,-2.2232,-2.2753,-2.2933,-2.2471,-2.2214,-2.1687,-2.0788,-2.0244,-1.9797,-1.9522,-1.8799,-1.8914,-2.007,-2.0021,-2.0347,-2.1105,-2.0234,-1.9575,-1.908,-1.8222,-1.82,-1.891,-1.891,-1.9769,-2.117,-2.0552,-2.1443,-2.3406,-2.5481,-2.6661,-2.7264,-2.8171,-2.8535,-2.8436,-2.7787,-2.7677,-2.7897,-2.8546,-2.8975,-2.9138,-2.8444,-2.8855,-2.9308,-2.8151,-2.8351,-2.8989,-2.9115,-2.9213,-2.9206,-2.9033,-2.916,-2.8975,0.0,0.0,0.0,-2.8275,-2.7875,-2.7696,-2.8366,-2.8148,-2.7828,-2.7681,-2.854,-2.8983,-2.8251,-2.8372,-2.851,-2.8455,-2.8569,-2.8682,-2.8664,-2.8508,-2.808,-2.7184,-2.6951,-2.6562,-2.595,-2.5749,-2.5667,-2.5667,-2.5667,-2.5667,-2.5667,-2.5675,-2.5691,-2.571,-2.571,-2.5716,-2.5687,-2.5687,-2.5687,-2.5687,-2.5687,-2.5687,-2.5687,-2.5692,-2.5701,-2.5702,-2.5634,-2.5609,-2.5598,-2.5556,-2.554,-2.5529,-2.032,-2.032,-2.032,-2.032,-2.0795,-2.1196,-2.1196,-2.1689,-2.212,-2.2182,-2.2616,-2.2996,-2.3198,-2.3671,-2.4041,-2.4271,-2.4413,-2.385,-2.2344,-2.224,-2.1627,-2.023,-1.9476,-1.9201,-1.9418,-1.9281,-1.9587,-2.0313,-1.9433,-1.9304,-1.9833,-1.8459,-1.82,-1.891,-1.891,-1.9769,-2.1204,-2.1374,-2.2841,-2.5134,-2.5718,-2.5649,-2.533,-2.6388,-2.6826,-2.6859,-2.6759,-2.72,-2.7824,-2.7908,-2.8422,-2.9067,-2.9138,-2.9258,-2.9319,-2.9336,-2.9552,-2.9761,-2.9787,-2.9944,-2.9908,-2.9243,-2.9607,-2.9542,-2.7264,0.0,-2.7467,-2.6038,0.0,-2.5659,-2.582,0.0,0.0,-2.5828,-2.7106,-2.8155,-2.8045,-2.8815,-2.9345,-2.9266,-2.9966,-3.0386,-3.0319,-2.969,-2.8913,-2.8016,-2.7281,-2.684,-2.6768,-2.5989,-2.5532,-2.5532,-2.5532,-2.5532,-2.5532,-2.5658,-2.5691,-2.571,-2.571,-2.5716,-2.5687,-2.5687,-2.5687,-2.5687,-2.5687,-2.5687,-2.5687,-2.5692,-2.5695,-2.5699,-2.5699,-2.5634,-2.56,-2.5595,-2.5593,-2.5587,-2.032,-2.061,-2.0764,-2.0381,-2.1165,-2.175,-2.135,-2.2212,-2.2717,-2.2366,-2.3318,-2.3986,-2.372,-2.4274,-2.468,-2.4812,-2.4778,-2.4437,-2.376,-2.3374,-2.2904,-2.2241,-2.1045,-2.0636,-2.108,-2.0189,-2.0263,-2.14,-2.0175,-1.971,0.0,0.0,-1.9237,-1.9575,-2.0467,-2.1481,-2.251,-2.3045,-2.363,-2.4315,-2.5038,-2.4651,-2.3873,-2.6279,-2.6669,-2.5952,-2.6429,-2.6502,-2.6476,-2.6943,-2.764,-2.8312,-2.8386,-2.875,-2.9152,-2.9384,-2.9475,-2.957,-2.9697,-2.9771,-2.9801,-2.9625,-2.9504,-2.906,-2.761,-2.722,-2.6928,-2.6192,0.0,0.0,0.0,0.0,0.0,0.0,-2.6463,-2.7115,-2.659,-2.7747,-2.9051,-3.0094,-3.0527,-3.0745,-3.0649,-3.0242,-2.9644,-2.8846,-2.8427,-2.7772,-2.6822,-2.6407,-2.5963,-2.5459,-2.5424,-2.5444,-2.5482,-2.5546,-2.5626,-2.571,-2.571,-2.5716,-2.5687,-2.5687,-2.5687,-2.5687,-2.5687,-2.5687,-2.5687,-2.5689,-2.5692,-2.5695,-2.5703,-2.5662,-2.5654,-2.5679,-2.5671,-2.5666,-2.0857,-2.0949,-2.0919,-2.0628,-2.1535,-2.2274,-2.2151,-2.2932,-2.3394,-2.2902,-2.4049,-2.4713,-2.4226,-2.485,-2.5292,-2.5292,-2.526,-2.5128,-2.4893,-2.4445,-2.4081,-2.3877,-2.2616,-2.2071,-2.2419,-2.1113,-2.0925,-2.2003,-2.0657,-2.0103,0.0,0.0,-2.0116,-2.0386,-2.1705,-2.2835,-2.3729,-2.4271,-2.4501,-2.449,-2.5021,-2.4503,-2.3667,-2.5815,-2.5957,-2.5134,-2.5731,-2.5695,-2.5485,-2.6062,-2.6796,-2.7493,-2.7714,-2.8191,-2.8727,-2.91,-2.927,-2.9316,-2.9465,-2.957,-2.9651,-2.9845,-2.9513,-2.8876,-2.7998,-2.7511,-2.7149,-2.6692,-2.6269,0.0,0.0,0.0,-2.5992,-2.576,0.0,-2.6509,-2.5848,-2.6872,-2.8309,-2.9864,-3.0488,-3.0733,-3.0658,-3.0511,-3.0199,-2.9655,-2.9312,-2.8602,-2.7452,-2.6893,-2.6378,-2.5721,-2.549,-2.5406,-2.5424,-2.5444,-2.5535,-2.564,-2.5652,-2.5665,-2.5677,-2.5684,-2.5687,-2.5687,-2.5687,-2.5687,-2.5687,-2.5687,-2.5689,-2.5693,-2.5697,-2.57,-2.5703,-2.57,-2.5695,-2.5693,-2.2243,-2.1196,-2.0535,-2.1165,-2.1843,-2.2717,-2.401,-2.4256,-2.4256,-2.4256,-2.4623,-2.4902,-2.4871,-2.5566,-2.6071,-2.6071,-2.6539,-2.6486,-2.5609,-2.5605,-2.5297,-2.4584,-2.3818,-2.3147,-2.2501,-2.1623,-2.1209,-2.123,-2.0399,-2.0386,0.0,0.0,0.0,0.0,-2.1955,-2.3105,-2.4474,-2.4474,-2.5509,-2.7009,-2.6331,-2.5756,-2.5209,-2.4215,-2.3977,-2.4158,-2.4244,-2.475,-2.5411,-2.5411,-2.5952,-2.6759,-2.753,-2.7824,-2.797,-2.8778,-2.913,-2.9285,-2.9322,-2.9436,-2.9644,-2.9837,-2.9893,-2.949,-2.8139,-2.8416,-2.8543,-2.6918,-2.7236,-2.7818,-2.7857,-2.7857,-2.7549,-2.6703,-2.6587,0.0,0.0,-2.6715,-2.709,-2.8084,-2.9609,-3.057,-3.0492,-3.043,-3.0398,-3.0365,-2.9651,-2.9187,-2.9114,-2.7446,-2.6505,-2.6467,-2.5697,-2.5313,-2.5317,-2.537,-2.5437,-2.5522,-2.5585,-2.5583,-2.5603,-2.5676,-2.5687,-2.5687,-2.5687,-2.5687,-2.5687,-2.5687,-2.5687,-2.5688,-2.5692,-2.5697,-2.57,-2.5703,-2.5703,-2.5703,-2.2305,-2.1935,-2.1689,-2.1935,-2.2871,-2.3794,-2.4225,-2.4317,-2.4471,-2.4881,-2.5091,-2.5361,-2.5827,-2.6654,-2.7173,-2.7173,-2.7384,-2.7385,-2.708,-2.6606,-2.625,-2.6013,-2.5268,-2.4776,-2.4554,-2.3318,-2.266,-2.266,-2.1887,-2.1414,0.0,0.0,0.0,0.0,-2.2984,-2.4034,-2.4541,-2.5557,-2.6012,-2.6023,-2.4812,-2.4628,-2.4927,-2.3742,-2.3533,-2.3837,-2.3847,-2.4198,-2.4603,-2.4603,-2.5154,-2.5852,-2.6146,-2.6586,-2.7053,-2.7336,-2.7474,-2.7501,-2.7501,-2.7563,-2.7786,-2.854,-2.7892,-2.7215,-2.7525,-2.6969,-2.6424,-2.6561,-2.6813,-2.7236,-2.778,-2.7895,-2.7818,-2.7505,-2.6967,-2.6597,0.0,-2.667,-2.6835,-2.7129,-2.8663,-2.9876,-3.0467,-3.0409,-3.0328,-3.0343,-3.0035,-2.9607,-2.9051,-2.7941,-2.7036,-2.6468,-2.5663,-2.528,-2.5308,-2.5326,-2.5398,-2.5515,-2.5511,-2.5556,-2.5601,-2.5614,-2.5671,-2.5687,-2.5687,-2.5687,-2.5687,-2.5687,-2.5687,-2.5687,-2.5692,-2.5696,-2.57,-2.5702,-2.5703,-2.5703,-2.2994,-2.2994,-2.2932,-2.2686,-2.3579,-2.4317,-2.4317,-2.4502,-2.4789,-2.5219,-2.5669,-2.6109,-2.6607,-2.7421,-2.7931,-2.7931,-2.81,-2.8094,-2.7824,-2.735,-2.6962,-2.6691,-2.6251,-2.5879,-2.5609,-2.4661,-2.4052,-2.3797,-2.3038,-2.2564,0.0,0.0,0.0,0.0,-2.3763,-2.4508,-2.4609,-2.6065,-2.642,-2.5879,-2.4661,-2.4581,-2.5015,-2.3707,-2.3316,-2.35,-2.3544,-2.3764,-2.4026,-2.4036,-2.4461,-2.5007,-2.5301,-2.5778,-2.6245,-2.6539,-2.6602,-2.6602,-2.6602,-2.6602,-2.6775,-2.7489,-2.6888,-2.6364,-2.7214,-2.683,-2.6441,-2.6845,-2.7451,-2.7912,-2.7879,-2.8385,-2.8506,-2.7582,-2.7236,-2.6851,0.0,-2.6183,-2.6309,-2.6618,-2.8186,-2.9437,-2.9979,-3.0194,-3.0286,-3.0311,-3.0221,-2.9952,-2.9389,-2.8326,-2.7447,-2.6861,-2.5797,-2.5225,-2.5252,-2.5249,-2.5307,-2.539,-2.5441,-2.5496,-2.5549,-2.5587,-2.5614,-2.5675,-2.5684,-2.5687,-2.5687,-2.5687,-2.5687,-2.5687,-2.569,-2.5696,-2.57,-2.5702,-2.5703,-2.5703,-2.4317,-2.4348,-2.4164,-2.3517,-2.3917,-2.4317,-2.4327,-2.4881,-2.5312,-2.5342,-2.6385,-2.7126,-2.7158,-2.7928,-2.8423,-2.8475,-2.8803,-2.8703,-2.7959,-2.7891,-2.7519,-2.6793,-2.6759,-2.642,-2.566,-2.5626,-2.5304,-2.4541,-2.3864,-2.3864,0.0,0.0,0.0,0.0,-2.4203,-2.4508,-2.4643,-2.6099,-2.6691,-2.664,-2.5913,-2.5592,-2.5439,-2.3951,-2.3295,-2.314,-2.3259,-2.3477,-2.3721,-2.3795,-2.3986,-2.4337,-2.5081,-2.5338,-2.5485,-2.6245,-2.6492,-2.6492,-2.6492,-2.6492,-2.6554,-2.6757,-2.6814,-2.6832,-2.7064,-2.7842,-2.8281,-2.7573,-2.8829,-2.9639,-2.8115,-2.9208,-2.9533,-2.7154,-2.7467,-2.7351,-2.5615,-2.5346,-2.5654,-2.6505,-2.8102,-2.9162,-2.9201,-2.9825,-3.0273,-3.0304,-3.0241,-3.0195,-3.0195,-2.8632,-2.7739,-2.7701,-2.6103,-2.5229,-2.5191,-2.5181,-2.5209,-2.5198,-2.5321,-2.539,-2.5414,-2.5512,-2.5595,-2.56,-2.5675,-2.5685,-2.5685,-2.5686,-2.5687,-2.5687,-2.5687,-2.5694,-2.57,-2.5702,-2.5703,-2.5703,-2.4317,-2.4697,-2.4973,-2.4841,-2.4533,-2.4471,-2.4995,-2.5189,-2.5465,-2.5988,-2.6801,-2.7511,-2.8008,-2.8591,-2.9048,-2.9393,-2.9369,-2.9359,-2.9495,-2.8991,-2.8349,-2.7553,-2.7519,-2.7148,-2.642,-2.642,-2.6048,-2.5304,-2.5135,-2.4831,-2.4474,0.0,0.0,0.0,-2.4406,-2.4812,-2.5372,-2.6319,-2.6691,-2.664,-2.5913,-2.5592,-2.5439,-2.3951,-2.3357,-2.3295,-2.3182,-2.341,-2.3742,-2.3955,-2.4112,-2.4226,-2.4447,-2.453,-2.4566,-2.474,-2.4814,-2.4814,-2.4814,-2.4814,-2.498,-2.5638,-2.5353,-2.5088,-2.5892,-2.5818,-2.5737,-2.6269,-2.6759,-2.7421,-2.8357,-2.8925,-2.927,-2.9406,-2.9083,-2.8203,-2.6505,-2.6269,-2.6351,-2.6582,-2.757,-2.8476,-2.9054,-2.928,-2.9669,-3.0272,-3.0292,-3.0267,-3.0279,-2.9257,-2.8364,-2.7707,-2.665,-2.5809,-2.522,-2.5209,-2.5236,-2.5262,-2.5313,-2.5339,-2.541,-2.5452,-2.546,-2.5549,-2.56,-2.5616,-2.5618,-2.568,-2.5687,-2.5687,-2.5687,-2.5694,-2.57,-2.5703,-2.5703,-2.5703,-2.4748,-2.5549,-2.6226,-2.6226,-2.6164,-2.6134,-2.6226,-2.598,-2.601,-2.6696,-2.7507,-2.8153,-2.8509,-2.9424,-3.0118,-3.0372,-3.0288,-3.016,-3.0123,-2.9702,-2.9127,-2.8349,-2.8315,-2.7977,-2.7199,-2.7199,-2.6826,-2.6082,-2.5778,-2.5541,-2.5455,0.0,0.0,0.0,-2.4966,-2.5203,-2.5626,-2.6387,-2.6691,-2.6657,-2.6251,-2.6082,0.0,-2.444,-2.3898,-2.3788,-2.3159,-2.308,-2.3305,-2.3631,-2.3847,-2.4006,-2.4161,-2.419,-2.419,-2.419,-2.419,-2.419,-2.419,-2.419,-2.43,-2.475,-2.453,-2.4448,-2.5356,-2.5282,-2.5173,-2.5693,-2.6191,-2.6609,-2.6947,-2.8003,-2.9034,-2.9713,-2.9121,-2.8126,-2.6774,-2.6621,-2.6467,-2.6077,-2.6813,-2.7505,-2.7967,-2.8687,-2.9296,-2.9752,-2.9778,-2.9914,-3.0279,-2.9481,-2.8613,-2.772,-2.6847,-2.6,-2.5193,-2.522,-2.5241,-2.5311,-2.5293,-2.5337,-2.5352,-2.5394,-2.5437,-2.5441,-2.5546,-2.5583,-2.5603,-2.5624,-2.5677,-2.5687,-2.5689,-2.5694,-2.5698,-2.5702,-2.5703,-2.5703,-2.5558,-2.6718,-2.7642,-2.755,-2.8165,-2.8504,-2.8011,-2.7272,-2.6988,-2.7551,-2.8481,-2.906,-2.8929,-3.0273,-3.1153,-3.1112,-3.1112,-3.0861,-3.0258,-3.0243,-2.9905,-2.9179,-2.9145,-2.8755,-2.7959,-2.7858,-2.7486,-2.6826,-2.6116,-2.6082,-2.6657,0.0,0.0,0.0,0.0,-2.5626,-2.5778,-2.642,-2.6691,-2.6691,-2.6691,-2.6691,-2.6556,-2.5185,-2.4575,-2.4335,-2.3185,-2.2742,-2.2759,-2.3141,-2.3477,-2.3764,-2.4036,-2.4161,-2.419,-2.419,-2.419,-2.419,-2.419,-2.419,-2.419,-2.419,-2.419,-2.4373,-2.5081,-2.5383,-2.5476,-2.544,-2.6166,-2.64,-2.5069,-2.6887,-2.8688,-2.8975,-2.8472,-2.7715,-2.6864,-2.6836,-2.6615,-2.5731,-2.6385,0.0,-2.6621,-2.8132,-2.9093,-2.9088,-2.9214,-2.958,-3.0272,-2.9595,-2.872,-2.7726,-2.6968,-2.6121,-2.5198,-2.5182,-2.5247,-2.5316,-2.5298,-2.5308,-2.5308,-2.5357,-2.5394,-2.5398,-2.5479,-2.5502,-2.5583,-2.5589,-2.5616,-2.5683,-2.569,-2.5693,-2.5694,-2.57,-2.5703,-2.5703,-2.7026,-2.8134,-2.8873,-2.8319,-2.9243,-3.0228,-3.0628,-2.9673,-2.8865,-2.8818,-2.9943,-3.0488,-2.9707,-3.0424,-3.0849,-3.0647,-3.0621,-3.073,-3.1002,-3.0987,-3.0683,-2.9939,-2.9905,-2.9567,-2.8807,-2.8128,-2.7756,-2.7621,-2.686,-2.6556,-2.6657,-2.5812,-2.5812,-2.6488,-2.5879,-2.5947,-2.6522,-2.6657,-2.6691,-2.6691,-2.6691,-2.6691,-2.659,-2.5744,-2.5033,-2.4372,-2.357,-2.3014,-2.2746,-2.3033,-2.3398,-2.3721,-2.3774,-2.3986,-2.419,-2.419,-2.419,-2.419,-2.419,-2.419,-2.419,-2.419,-2.419,-2.4226,-2.4373,-2.4448,-2.4477,-2.4468,-2.4589,-2.4884,-2.5422,-2.6637,-2.7775,-2.8472,-2.862,-2.837,-2.7523,-2.8139,-2.8362,-2.7544,-2.8176,-2.8132,-2.6731,-2.8121,-2.9083,-2.9088,-2.9769,-3.0225,-3.0379,-3.0201,-2.9364,-2.7832,-2.7572,-2.673,-2.5225,-2.5192,-2.5214,-2.5298,-2.5303,-2.5308,-2.5308,-2.5327,-2.5332,-2.5337,-2.5394,-2.5402,-2.5459,-2.5479,-2.5571,-2.5614,-2.5681,-2.5691,-2.5694,-2.5695,-2.57,-2.5703,-2.8904,-2.9464,-2.9802,-2.9494,-3.0258,-3.1028,-3.1336,-3.1151,-3.0675,-2.9875,-3.0263,-3.0585,-3.0386,-3.0881,-3.1275,-3.1407,-3.1079,-3.0958,-3.119,-3.119,-3.1021,-3.0683,-3.0683,-3.0345,-2.96,-2.9194,-2.8601,-2.779,-2.7418,-2.7063,-2.6691,-2.6353,-2.6353,-2.6657,-2.6319,-2.6353,-2.6725,-2.7097,-2.7063,-2.6725,-2.7131,-2.7029,-2.6623,-2.5879,-2.5372,-2.4966,-2.4237,-2.3575,-2.3055,-2.2924,-2.3021,-2.3212,-2.3444,-2.371,-2.3955,-2.3986,-2.4075,-2.419,-2.419,-2.419,-2.419,-2.419,-2.419,-2.419,-2.419,-2.419,-2.419,-2.419,-2.419,-2.4505,-2.5528,-2.6534,-2.7387,-2.781,-2.8388,-2.846,-2.7531,-2.7909,-2.8116,-2.7733,-2.8472,-2.8405,-2.6705,-2.8093,-2.8912,-2.8511,-2.8835,-2.9444,-3.0346,-3.0343,-2.9512,-2.7867,-2.7762,-2.6951,-2.5252,-2.5252,-2.5273,-2.5308,-2.5308,-2.5308,-2.5308,-2.5308,-2.5308,-2.5308,-2.5321,-2.537,-2.5418,-2.5454,-2.5538,-2.5569,-2.5614,-2.5669,-2.5634,-2.5689,-2.5698,-2.5702,-3.0509,-3.0725,-3.0755,-3.0632,-3.1182,-3.1582,-3.1582,-3.2044,-3.2037,-3.0912,-3.0761,-3.0847,-3.1066,-3.1373,-3.1735,-3.2109,-3.1476,-3.1112,-3.119,-3.119,-3.119,-3.119,-3.119,-3.092,-3.0345,-3.0176,-2.9514,-2.8297,-2.7959,-2.7486,-2.6928,-2.6759,-2.6759,-2.6928,-2.6928,-2.7029,-2.725,-2.7807,-2.7638,-2.6996,-2.7553,-2.735,-2.6623,-2.6048,-2.5744,-2.5541,-2.4948,-2.4271,-2.357,-2.3206,-2.2907,-2.2759,-2.3081,-2.3398,-2.3621,-2.37,-2.3878,-2.4122,-2.4122,-2.4161,-2.419,-2.419,-2.419,-2.419,-2.419,-2.419,-2.419,-2.419,-2.419,-2.4487,-2.5457,-2.6146,-2.6631,-2.6852,-2.7607,-2.7858,-2.6984,-2.7403,-2.7618,-2.7227,-2.8261,-2.8306,-2.6553,-2.7691,-2.8422,-2.8115,-2.8076,-2.867,-3.0038,-3.026,-2.955,-2.7846,-2.7785,-2.7088,-2.557,-2.5383,-2.5283,-2.5308,-2.5308,-2.5308,-2.5308,-2.5308,-2.5308,-2.5308,-2.5308,-2.5312,-2.539,-2.5431,-2.546,-2.5508,-2.5566,-2.5587,-2.5593,-2.5636,-2.569,-2.5696,-3.1274,-3.1797,-3.2013,-3.1397,-3.1859,-3.229,-3.229,-3.2351,-3.2269,-3.1997,-3.253,-3.2603,-3.1821,-3.1801,-3.1795,-3.1581,-3.097,-3.0757,-3.1171,-3.119,-3.119,-3.119,-3.119,-3.1157,-3.1089,-3.0446,-3.0021,-2.9886,-2.8466,-2.7756,-2.7689,-2.6996,-2.7063,-2.7689,-2.7689,-2.8112,-2.8807,-2.8874,-2.8416,-2.7689,-2.7756,-2.735,-2.6691,-2.6623,-2.6184,-2.5609,-2.5541,-2.5033,-2.4372,-2.435,-2.3596,-2.2708,-2.2746,-2.3021,-2.3328,-2.3328,-2.3577,-2.3837,-2.3837,-2.4016,-2.419,-2.419,-2.419,-2.419,-2.419,-2.419,-2.419,-2.419,-2.419,-2.4456,-2.5267,-2.4919,-2.4717,-2.5463,-2.5801,-2.5968,-2.5867,-2.744,-2.7994,-2.6352,-2.7812,-2.8203,-2.6231,-2.6537,-2.734,-2.8637,-2.8886,-2.9044,-2.9204,-2.9962,-2.9586,-2.7844,-2.7796,-2.7336,-2.6414,-2.5679,-2.5283,-2.5308,-2.5308,-2.5308,-2.5308,-2.5308,-2.5308,-2.5308,-2.5308,-2.5313,-2.5327,-2.5386,-2.5422,-2.543,-2.5466,-2.549,-2.5538,-2.5591,-2.5614,-2.5626,-3.1982,-3.189,-3.1828,-3.1982,-3.189,-3.1921,-3.2321,-3.2382,-3.2372,-3.2284,-3.2524,-3.2703,-3.2654,-3.229,-3.1943,-3.1772,-3.1446,-3.1342,-3.1425,-3.1825,-3.2165,-3.2489,-3.251,-3.2307,-3.1887,-3.1582,-3.0987,-3.0108,-2.948,-2.8939,-2.8518,-2.8231,-2.8231,-2.8518,-2.8518,-2.8687,-2.9044,-2.9465,-2.9228,-2.8518,-2.8518,-2.8044,-2.7317,-2.686,-2.6522,-2.6251,-2.6251,-2.5778,-2.5169,-2.5169,-2.4532,-2.3793,-2.3842,-2.4061,-2.4322,-2.4362,-2.4286,-2.4205,-2.4352,-2.4179,-2.3996,-2.4161,-2.419,-2.419,-2.419,-2.419,-2.419,-2.419,-2.419,-2.43,-2.464,-2.4902,-2.5023,-2.4733,-2.5255,-2.567,-2.5532,-2.6738,-2.7327,-2.6621,-2.8198,-2.8658,-2.6892,-2.7409,-2.81,-2.8713,-2.8498,-2.8791,-2.9808,-3.0157,-2.9799,-2.8626,-2.8082,-2.7385,-2.6584,-2.5711,-2.5298,-2.5308,-2.5308,-2.5308,-2.5308,-2.5308,-2.5308,-2.5308,-2.5308,-2.5308,-2.5308,-2.5312,-2.533,-2.5339,-2.5426,-2.5459,-2.5469,-2.5535,-2.5525,-2.5541,-3.2382,-3.2013,-3.1828,-3.2321,-3.2013,-3.1828,-3.2321,-3.2382,-3.2382,-3.2382,-3.2382,-3.2547,-3.2922,-3.2295,-3.1905,-3.1967,-3.1742,-3.1611,-3.167,-3.2097,-3.2529,-3.2906,-3.3091,-3.2942,-3.2404,-3.2549,-3.2104,-3.1089,-3.0852,-3.0378,-2.9653,-2.9213,-2.9111,-2.9296,-2.9296,-2.945,-2.9687,-3.0209,-3.0006,-2.9296,-2.9296,-2.8721,-2.7756,-2.7232,-2.6894,-2.6691,-2.6691,-2.6353,-2.5913,-2.5913,-2.5575,-2.5083,-2.4674,-2.472,-2.4893,-2.4936,-2.4787,-2.4612,-2.4598,-2.4299,-2.3999,-2.4079,-2.4066,-2.4122,-2.418,-2.419,-2.419,-2.419,-2.419,-2.419,-2.419,-2.4774,-2.5014,-2.4329,-2.481,-2.5199,-2.5073,-2.5912,-2.6433,-2.6144,-2.7549,-2.8135,-2.7101,-2.7541,-2.816,-2.8855,-2.8096,-2.8332,-2.9888,-2.9934,-2.9544,-2.8697,-2.7884,-2.7155,-2.6595,-2.5721,-2.5308,-2.5308,-2.5308,-2.5308,-2.5308,-2.5308,-2.5308,-2.5308,-2.5308,-2.5308,-2.5308,-2.5308,-2.5308,-2.5313,-2.5344,-2.537,-2.5382,-2.5466,-2.546,-2.5479,-3.2382,-3.2382,-3.2382,-3.2382,-3.2382,-3.2382,-3.2382,-3.2382,-3.2382,-3.2382,-3.2382,-3.2382,-3.241,-3.1824,-3.1606,-3.2069,-3.1489,-3.13,-3.1757,-3.1804,-3.1804,-3.1837,-3.2348,-3.2618,-3.2618,-3.3134,-3.3389,-3.3355,-3.2632,-3.1887,-3.1123,-2.9687,-2.9397,-3.0108,-3.0108,-3.048,-3.1157,-3.119,-3.0751,-3.0108,-3.0108,-2.9176,-2.779,-2.779,-2.7317,-2.6691,-2.6691,-2.6691,-2.6708,-2.6708,-2.6657,-2.6437,-2.4948,-2.4538,-2.4618,-2.4618,-2.4834,-2.4941,-2.4278,-2.4241,-2.4302,-2.3902,-2.3806,-2.3858,-2.4141,-2.419,-2.419,-2.419,-2.419,-2.419,-2.419,-2.4199,-2.4199,-2.419,-2.4199,-2.4236,-2.419,-2.5097,-2.5338,-2.4338,-2.523,-2.6129,-2.6544,-2.6199,-2.6889,-2.9218,-2.8012,-2.7729,-2.8964,-2.9027,-2.8631,-2.7746,-2.7006,-2.6568,-2.6491,-2.57,-2.5308,-2.5308,-2.5308,-2.5308,-2.5308,-2.5308,-2.5308,-2.5308,-2.5308,-2.5308,-2.5308,-2.5308,-2.5308,-2.5308,-2.5308,-2.5308,-2.5322,-2.5378,-2.541,-2.5426,-3.2382,-3.2382,-3.2382,-3.2382,-3.2382,-3.2382,-3.2382,-3.2382,-3.2382,-3.2382,-3.2382,-3.2382,-3.2382,-3.2198,-3.1971,-3.1637,-3.1854,-3.1998,-3.2063,-3.2501,-3.2933,-3.3282,-3.3454,-3.3323,-3.2834,-3.3346,-3.3362,-3.284,-3.2984,-3.2679,-3.1955,-3.1481,-3.1108,-3.0852,-3.0852,-3.0987,-3.119,-3.119,-3.1055,-3.0818,-3.0311,-2.9499,-2.8552,-2.7993,-2.735,-2.6691,-2.6691,-2.6691,-2.6691,-2.6691,-2.6691,-2.6623,-2.6166,-2.5997,-2.6013,-2.6013,-2.5787,-2.5495,-2.5478,-2.4857,-2.4206,-2.4207,-2.3871,-2.3599,-2.3858,-2.4056,-2.419,-2.419,-2.419,-2.419,-2.419,-2.419,-2.419,-2.419,-2.419,-2.419,-2.419,-2.4965,-2.539,-2.5054,-2.6304,-2.7247,-2.7394,-2.7914,-2.8547,-2.9268,-2.9017,-2.9087,-2.9632,-2.8609,-2.8147,-2.8587,-2.7246,-2.6535,-2.6568,-2.5734,-2.5288,-2.5308,-2.5308,-2.5308,-2.5308,-2.5308,-2.5308,-2.5308,-2.5308,-2.5308,-2.5308,-2.5308,-2.5308,-2.5308,-2.5308,-2.5308,-2.5308,-2.5303,-2.5317,-2.533,-3.2382,-3.2382,-3.2382,-3.2382,-3.2382,-3.2382,-3.2382,-3.2382,-3.2382,-3.2382,-3.2382,-3.2382,-3.2382,-3.2382,-3.2228,-3.1797,-3.2167,-3.2362,-3.2274,-3.2676,-3.3055,-3.3397,-3.3783,-3.3684,-3.3033,-3.3743,-3.3806,-3.3112,-3.3373,-3.3388,-3.3139,-3.2835,-3.2327,-3.1596,-3.1596,-3.1481,-3.119,-3.119,-3.119,-3.1157,-3.0717,-3.0074,-2.9364,-2.8856,-2.8027,-2.7097,-2.7097,-2.6928,-2.6691,-2.6691,-2.6691,-2.6691,-2.6691,-2.6691,-2.6691,-2.6691,-2.6386,-2.6061,-2.5959,-2.534,-2.4635,-2.4318,-2.3952,-2.3638,-2.3725,-2.3878,-2.4036,-2.417,-2.419,-2.419,-2.419,-2.419,-2.419,-2.419,-2.419,-2.419,-2.419,-2.464,-2.5044,-2.5374,-2.6292,-2.7137,-2.775,-2.837,-2.8862,-2.9148,-2.8728,-2.8699,-2.9259,-2.8061,-2.7501,-2.7819,-2.66,-2.5956,-2.6002,-2.5526,-2.5293,-2.5308,-2.5308,-2.5308,-2.5308,-2.5308,-2.5308,-2.5308,-2.5308,-2.5308,-2.5308,-2.5308,-2.5308,-2.5308,-2.5308,-2.5308,-2.5308,-2.5308,-2.5308,-2.5317,-3.2475,-3.2505,-3.2505,-3.2413,-3.2444,-3.2444,-3.2413,-3.2382,-3.2382,-3.2382,-3.2382,-3.2382,-3.2382,-3.2382,-3.2382,-3.2382,-3.2382,-3.2382,-3.2382,-3.2382,-3.2382,-3.2382,-3.3371,-3.3681,-3.3156,-3.4178,-3.4529,-3.4111,-3.391,-3.4063,-3.4472,-3.3795,-3.3051,-3.2293,-3.2293,-3.1887,-3.119,-3.119,-3.119,-3.119,-3.119,-3.0751,-3.0108,-3.0108,-2.9176,-2.7891,-2.7891,-2.7402,-2.6759,-2.6759,-2.6725,-2.6691,-2.6691,-2.6691,-2.6691,-2.6691,-2.6691,-2.6573,-2.5926,-2.5739,-2.5459,-2.4372,-2.4079,-2.3972,-2.3762,-2.3714,-2.3774,-2.4122,-2.417,-2.418,-2.419,-2.419,-2.4226,-2.4263,-2.4263,-2.4263,-2.4263,-2.4337,-2.463,-2.5374,-2.5521,-2.6182,-2.7714,-2.7871,-2.8154,-2.8877,-2.7519,-2.7038,-2.788,-2.7307,-2.6643,-2.5904,-2.5298,-2.4981,-2.4987,-2.5171,-2.5293,-2.5308,-2.5308,-2.5308,-2.5308,-2.5308,-2.5308,-2.5308,-2.5308,-2.5308,-2.5308,-2.5308,-2.5308,-2.5308,-2.5308,-2.5308,-2.5308,-2.5308,-2.5308,-2.5308,-3.3275,-3.3614,-3.3673,-3.2567,-3.2813,-3.2998,-3.2475,-3.2382,-3.2382,-3.2382,-3.2382,-3.2382,-3.2382,-3.2382,-3.2382,-3.2382,-3.2382,-3.2382,-3.2382,-3.2382,-3.2382,-3.2382,-3.2656,-3.2738,-3.2602,-3.3656,-3.4529,-3.5224,-3.5171,-3.4936,-3.4506,-3.4303,-3.3546,-3.2293,-3.2293,-3.1887,-3.119,-3.119,-3.119,-3.119,-3.119,-3.0751,-3.0108,-3.0108,-2.9533,-2.8739,-2.8739,-2.8213,-2.7519,-2.7519,-2.7165,-2.6691,-2.6691,-2.6691,-2.6691,-2.6691,-2.6691,-2.6674,-2.6505,-2.608,-2.5635,-2.5338,-2.4675,-2.4073,-2.4005,-2.3721,-2.3555,-2.3827,-2.3878,-2.3966,-2.4161,-2.419,-2.441,-2.5007,-2.5117,-2.5117,-2.5117,-2.5621,-2.6098,-2.6282,-2.6869,-2.7603,-2.862,-2.873,-2.8546,-2.8117,-2.7714,-2.7085,-2.608,-2.5908,-2.582,-2.5896,-2.5182,-2.4782,-2.4847,-2.5,-2.5143,-2.5308,-2.5308,-2.5308,-2.5308,-2.5308,-2.5308,-2.5308,-2.5308,-2.5308,-2.5308,-2.5308,-2.5308,-2.5308,-2.5308,-2.5308,-2.5308,-2.5308,-2.5308,-2.5308,-3.3952,-3.4227,-3.4258,-3.3488,-3.3644,-3.3644,-3.2967,-3.2844,-3.2752,-3.2444,-3.2382,-3.2382,-3.2382,-3.2382,-3.2382,-3.2382,-3.2382,-3.2382,-3.2382,-3.2382,-3.2382,-3.2382,-3.2656,-3.2625,-3.241,-3.3214,-3.4028,-3.4864,-3.5131,-3.516,-3.5013,-3.5013,-3.4404,-3.3309,-3.2949,-3.2374,-3.1684,-3.1326,-3.119,-3.119,-3.119,-3.0954,-3.0615,-3.0615,-3.0142,-2.9499,-2.9499,-2.8991,-2.8349,-2.8349,-2.8078,-2.7757,-2.7757,-2.7757,-2.769,-2.73,-2.6962,-2.6691,-2.6691,-2.642,-2.608,-2.5725,-2.4974,-2.4247,-2.4066,-2.3797,-2.3601,-2.3538,-2.3555,-2.3642,-2.3935,-2.4288,-2.474,-2.5328,-2.5705,-2.5962,-2.5962,-2.6319,-2.6602,-2.6602,-2.6979,-2.742,-2.7849,-2.7886,-2.7703,-2.7273,-2.6917,-2.6329,-2.5448,-2.5044,-2.493,-2.5121,-2.4804,-2.4645,-2.4662,-2.4847,-2.4993,-2.5198,-2.5198,-2.5224,-2.5308,-2.5308,-2.5308,-2.5308,-2.5308,-2.5308,-2.5308,-2.5308,-2.5308,-2.5308,-2.5308,-2.5308,-2.5308,-2.5308,-2.5308,-2.5308,-3.469,-3.4751,-3.4751,-3.4536,-3.4597,-3.4412,-3.3675,-3.3552,-3.3367,-3.2782,-3.2598,-3.2536,-3.2536,-3.2444,-3.2382,-3.2382,-3.2382,-3.2382,-3.2382,-3.2382,-3.2382,-3.2382,-3.2841,-3.2895,-3.252,-3.3055,-3.3572,-3.4136,-3.4504,-3.4934,-3.5487,-3.5487,-3.5127,-3.4472,-3.3863,-3.3085,-3.2259,-3.163,-3.1292,-3.119,-3.119,-3.119,-3.119,-3.119,-3.0818,-3.0277,-3.0277,-2.9803,-2.9179,-2.9179,-2.9077,-2.901,-2.901,-2.901,-2.8874,-2.818,-2.7537,-2.6996,-2.6759,-2.6691,-2.6556,-2.5913,-2.5218,-2.4599,-2.4259,-2.3998,-2.3775,-2.3458,-2.3342,-2.3434,-2.3855,-2.452,-2.5208,-2.5664,-2.6319,-2.6796,-2.6796,-2.6895,-2.6859,-2.6638,-2.6722,-2.6722,-2.6602,-2.6602,-2.6539,-2.6429,-2.5778,-2.5338,-2.5227,-2.4566,-2.419,-2.419,-2.4366,-2.4488,-2.4493,-2.4678,-2.4871,-2.508,-2.508,-2.5132,-2.5257,-2.5278,-2.5283,-2.5283,-2.5298,-2.5308,-2.5308,-2.5308,-2.5308,-2.5308,-2.5308,-2.5308,-2.5308,-2.5308,-2.5308,-2.5308,-3.546,-3.5799,-3.583,-3.469,-3.4967,-3.5121,-3.4443,-3.4351,-3.4289,-3.4197,-3.3614,-3.3244,-3.3244,-3.2721,-3.2382,-3.2382,-3.2382,-3.2382,-3.2382,-3.2382,-3.2382,-3.2382,-3.2465,-3.268,-3.3082,-3.3598,-3.4161,-3.4673,-3.4309,-3.4407,-3.4911,-3.4911,-3.4777,-3.4506,-3.437,-3.3558,-3.2293,-3.2192,-3.1785,-3.119,-3.119,-3.119,-3.119,-3.119,-3.1123,-3.1021,-3.1021,-3.0548,-2.9939,-2.9939,-2.9499,-2.901,-2.901,-2.901,-2.8976,-2.884,-2.8739,-2.8367,-2.7029,-2.6691,-2.6657,-2.6556,-2.603,-2.5517,-2.5428,-2.4515,-2.3736,-2.4149,-2.372,-2.3648,-2.4755,-2.51,-2.5701,-2.7112,-2.7497,-2.7603,-2.7603,-2.8191,-2.8106,-2.6749,-2.72,-2.7346,-2.6686,-2.6602,-2.6319,-2.5631,-2.5485,-2.5081,-2.441,-2.4263,-2.419,-2.419,-2.4228,-2.433,-2.4489,-2.4607,-2.4746,-2.4935,-2.4935,-2.4948,-2.4974,-2.5086,-2.5138,-2.5143,-2.5229,-2.5308,-2.5308,-2.5308,-2.5308,-2.5308,-2.5308,-2.5308,-2.5308,-2.5308,-2.5308,-2.5308,-3.6076,-3.6292,-3.6292,-3.5706,-3.583,-3.5799,-3.5152,-3.5059,-3.4905,-3.4566,-3.4197,-3.3983,-3.3983,-3.3735,-3.3367,-3.2967,-3.2936,-3.2782,-3.2413,-3.2382,-3.2382,-3.2382,-3.2382,-3.252,-3.2761,-3.3578,-3.4136,-3.4382,-3.4697,-3.5015,-3.5224,-3.5224,-3.5194,-3.5081,-3.4675,-3.41,-3.3478,-3.3051,-3.2713,-3.2341,-3.1955,-3.1785,-3.1752,-3.1326,-3.119,-3.119,-3.119,-3.0987,-3.0683,-3.0683,-3.048,-3.0194,-3.0194,-3.0194,-3.0127,-2.9702,-2.8991,-2.8213,-2.7503,-2.6996,-2.6691,-2.6691,-2.6488,-2.6131,-2.5759,-2.5146,-2.4641,-2.4474,-2.4213,-2.4278,-2.5146,-2.5745,-2.6441,-2.7531,-2.8086,-2.8414,-2.8436,-2.8411,-2.7934,-2.6749,-2.6539,-2.6182,-2.5401,-2.5328,-2.5144,-2.4787,-2.475,-2.4603,-2.4226,-2.419,-2.419,-2.419,-2.419,-2.4229,-2.4355,-2.4373,-2.451,-2.4746,-2.4746,-2.4804,-2.4908,-2.4974,-2.5043,-2.5115,-2.5165,-2.5219,-2.5308,-2.5308,-2.5308,-2.5308,-2.5308,-2.5308,-2.5308,-2.5308,-2.5308,-2.5308,-3.6507,-3.6507,-3.6507,-3.6507,-3.6507,-3.6322,-3.5799,-3.5707,-3.5552,-3.5028,-3.4844,-3.4751,-3.4751,-3.4597,-3.4289,-3.3706,-3.3644,-3.3429,-3.2906,-3.2721,-3.2567,-3.2413,-3.252,-3.2602,-3.2602,-3.3397,-3.3834,-3.3834,-3.4649,-3.5131,-3.5224,-3.5339,-3.5487,-3.5566,-3.5013,-3.4641,-3.4438,-3.3897,-3.3558,-3.3355,-3.278,-3.2462,-3.2226,-3.1684,-3.1326,-3.119,-3.119,-3.119,-3.119,-3.119,-3.119,-3.119,-3.119,-3.119,-3.1089,-3.0514,-2.9379,-2.8297,-2.8128,-2.7537,-2.6962,-2.6962,-2.6826,-2.6556,-2.5981,-2.5728,-2.5455,-2.4958,-2.4732,-2.4874,-2.5518,-2.6326,-2.7089,-2.7707,-2.842,-2.882,-2.8695,-2.8168,-2.7409,-2.6429,-2.5778,-2.5081,-2.4263,-2.419,-2.419,-2.419,-2.419,-2.419,-2.419,-2.419,-2.419,-2.419,-2.419,-2.4209,-2.4183,-2.4183,-2.4302,-2.4526,-2.4534,-2.4631,-2.4782,-2.4832,-2.4915,-2.5019,-2.505,-2.5115,-2.5198,-2.5224,-2.5234,-2.5273,-2.5298,-2.5308,-2.5308,-2.5308,-2.5308,-2.5308,-3.6507,-3.6507,-3.6507,-3.6507,-3.6507,-3.6476,-3.6415,-3.6415,-3.6415,-3.6353,-3.5799,-3.5429,-3.5429,-3.4874,-3.4474,-3.4412,-3.4412,-3.4412,-3.4351,-3.3706,-3.3059,-3.2413,-3.2868,-3.313,-3.313,-3.3209,-3.3261,-3.3261,-3.3339,-3.3624,-3.4136,-3.4625,-3.5131,-3.56,-3.5532,-3.5148,-3.4506,-3.4438,-3.4032,-3.3423,-3.3355,-3.2916,-3.2293,-3.2226,-3.1785,-3.119,-3.119,-3.119,-3.119,-3.119,-3.119,-3.119,-3.119,-3.119,-3.119,-3.1123,-3.0548,-2.9803,-2.9111,-2.8315,-2.7722,-2.7722,-2.7199,-2.6708,-2.6623,-2.6082,-2.5639,-2.5853,-2.5345,-2.5201,-2.6212,-2.6783,-2.732,-2.804,-2.8527,-2.8566,-2.7894,-2.7723,-2.7171,-2.5658,-2.5448,-2.5081,-2.4263,-2.419,-2.419,-2.419,-2.419,-2.419,-2.419,-2.419,-2.419,-2.419,-2.419,-2.4209,-2.4183,-2.4183,-2.4257,-2.4321,-2.4403,-2.443,-2.4456,-2.4629,-2.473,-2.4746,-2.4861,-2.4929,-2.4942,-2.5074,-2.5121,-2.5132,-2.5234,-2.5308,-2.5308,-2.5308,-2.5308,-2.5308,-3.6507,-3.6507,-3.6507,-3.6507,-3.6507,-3.6507,-3.6507,-3.6507,-3.6507,-3.6507,-3.6261,-3.6107,-3.6107,-3.5861,-3.5553,-3.5183,-3.5121,-3.4936,-3.4536,-3.4258,-3.3583,-3.2444,-3.3005,-3.3115,-3.2711,-3.3029,-3.3182,-3.3182,-3.3521,-3.3809,-3.4011,-3.4553,-3.4887,-3.5131,-3.543,-3.543,-3.5182,-3.5182,-3.5025,-3.4721,-3.4269,-3.3897,-3.358,-3.2666,-3.2124,-3.1819,-3.136,-3.119,-3.119,-3.119,-3.119,-3.119,-3.119,-3.119,-3.119,-3.119,-3.0987,-3.0717,-3.0465,-2.9465,-2.8416,-2.7925,-2.7587,-2.7249,-2.6793,-2.6488,-2.6318,-2.6399,-2.6227,-2.6202,-2.6838,-2.7053,-2.7408,-2.8076,-2.7939,-2.7706,-2.7643,-2.6798,-2.5999,-2.5397,-2.4914,-2.453,-2.4226,-2.419,-2.419,-2.419,-2.419,-2.419,-2.419,-2.419,-2.419,-2.419,-2.419,-2.4199,-2.4218,-2.4218,-2.4201,-2.4247,-2.4266,-2.4303,-2.4403,-2.4491,-2.4572,-2.4707,-2.4731,-2.4818,-2.4908,-2.4961,-2.4987,-2.4994,-2.5037,-2.5056,-2.5068,-2.5143,-2.5171,-2.5182,-3.6507,-3.6507,-3.6507,-3.6507,-3.6507,-3.6507,-3.6507,-3.6507,-3.6507,-3.6507,-3.6507,-3.6507,-3.6507,-3.6507,-3.6292,-3.583,-3.5799,-3.5614,-3.5183,-3.5152,-3.4505,-3.3121,-3.349,-3.3429,-3.2721,-3.3045,-3.3168,-3.2949,-3.3501,-3.3758,-3.3783,-3.4309,-3.4553,-3.4577,-3.5108,-3.5339,-3.5339,-3.5532,-3.56,-3.5566,-3.5047,-3.4709,-3.4392,-3.3376,-3.2869,-3.2598,-3.207,-3.1901,-3.1901,-3.1901,-3.1732,-3.1549,-3.1549,-3.1413,-3.119,-3.119,-3.119,-3.119,-3.119,-3.0465,-2.9517,-2.8703,-2.8162,-2.7689,-2.7165,-2.686,-2.6691,-2.6691,-2.6691,-2.6775,-2.7005,-2.7133,-2.7369,-2.7826,-2.7556,-2.7316,-2.7405,-2.6291,-2.5412,-2.5309,-2.4627,-2.417,-2.419,-2.419,-2.419,-2.419,-2.419,-2.419,-2.419,-2.419,-2.419,-2.419,-2.419,-2.419,-2.419,-2.419,-2.4209,-2.4201,-2.421,-2.4257,-2.4358,-2.4376,-2.4474,-2.4604,-2.4604,-2.4684,-2.4768,-2.4811,-2.4832,-2.484,-2.4888,-2.4902,-2.4953,-2.5273,-2.5234,-2.51,-3.6507,-3.6507,-3.6507,-3.6507,-3.6507,-3.6507,-3.6507,-3.6507,-3.6507,-3.6507,-3.6507,-3.6507,-3.6507,-3.6507,-3.6507,-3.6507,-3.6507,-3.6507,-3.6507,-3.6507,-3.5891,-3.4566,-3.4505,-3.4137,-3.3429,-3.3429,-3.309,-3.2413,-3.2949,-3.3182,-3.3209,-3.3726,-3.3986,-3.4036,-3.4553,-3.4793,-3.4816,-3.5362,-3.56,-3.56,-3.56,-3.5182,-3.4506,-3.4506,-3.4032,-3.3423,-3.3423,-3.3423,-3.3423,-3.3423,-3.2916,-3.2293,-3.2293,-3.1819,-3.119,-3.119,-3.119,-3.119,-3.119,-3.119,-3.1021,-3.0277,-2.8939,-2.7824,-2.779,-2.7232,-2.6708,-2.6691,-2.6691,-2.6691,-2.6691,-2.6972,-2.7197,-2.7197,-2.7491,-2.7501,-2.704,-2.6315,-2.5661,-2.533,-2.4614,-2.4132,-2.4226,-2.4226,-2.4226,-2.4226,-2.419,-2.419,-2.419,-2.419,-2.419,-2.419,-2.419,-2.419,-2.419,-2.419,-2.419,-2.419,-2.4201,-2.4183,-2.4183,-2.4266,-2.4358,-2.4403,-2.4403,-2.4438,-2.4508,-2.4637,-2.47,-2.4715,-2.484,-2.4902,-2.5009,-2.579,-2.5608,-2.5015,-3.6507,-3.6507,-3.6507,-3.6507,-3.6507,-3.6507,-3.6507,-3.6507,-3.6507,-3.6507,-3.6507,-3.6507,-3.6507,-3.6507,-3.6507,-3.6507,-3.6507,-3.6507,-3.6507,-3.6507,-3.6322,-3.5922,-3.546,-3.4874,-3.4197,-3.4197,-3.3798,-3.309,-3.3259,-3.3122,-3.2625,-3.3214,-3.3443,-3.3443,-3.4011,-3.4456,-3.4793,-3.4958,-3.5247,-3.56,-3.56,-3.5464,-3.5194,-3.4709,-3.437,-3.41,-3.3592,-3.3423,-3.3423,-3.3423,-3.3254,-3.2983,-3.2462,-3.2158,-3.1887,-3.1326,-3.119,-3.119,-3.119,-3.119,-3.1021,-3.0277,-2.9751,-2.9108,-2.806,-2.7621,-2.7317,-2.6793,-2.6691,-2.6691,-2.6691,-2.6775,-2.6923,-2.7165,-2.6811,-2.6541,-2.6641,-2.6161,-2.5768,-2.5673,-2.5687,-2.5742,-2.5816,-2.5816,-2.5837,-2.5868,-2.5374,-2.4787,-2.4226,-2.419,-2.419,-2.419,-2.419,-2.419,-2.419,-2.419,-2.419,-2.419,-2.4209,-2.4191,-2.4183,-2.4238,-2.4266,-2.4312,-2.4312,-2.4385,-2.4438,-2.4482,-2.4534,-2.4539,-2.4596,-2.4949,-2.5481,-2.585,-2.6191,-2.65,-3.6507,-3.6507,-3.6507,-3.6507,-3.6507,-3.6507,-3.6507,-3.6507,-3.6507,-3.6507,-3.6507,-3.6507,-3.6507,-3.6507,-3.6507,-3.6507,-3.6507,-3.6507,-3.6507,-3.6507,-3.6507,-3.6507,-3.6107,-3.5553,-3.4905,-3.4905,-3.4566,-3.3829,-3.3829,-3.346,-3.2782,-3.3111,-3.3119,-3.2922,-3.3417,-3.3853,-3.4178,-3.4407,-3.4793,-3.527,-3.527,-3.5407,-3.5532,-3.5115,-3.4945,-3.4878,-3.4438,-3.4269,-3.4269,-3.4269,-3.41,-3.366,-3.2632,-3.2293,-3.2158,-3.1427,-3.119,-3.119,-3.119,-3.119,-3.1089,-3.0649,-3.0311,-2.9803,-2.8552,-2.8027,-2.7587,-2.686,-2.6691,-2.6691,-2.6691,-2.6691,-2.6775,-2.6972,-2.6596,-2.6399,-2.6735,-2.6255,-2.5981,-2.6254,-2.6213,-2.6256,-2.6436,-2.6447,-2.6479,-2.657,-2.6125,-2.5658,-2.5181,-2.5144,-2.5144,-2.5144,-2.485,-2.4677,-2.4677,-2.4373,-2.419,-2.419,-2.419,-2.4209,-2.4191,-2.4191,-2.4219,-2.4266,-2.4266,-2.4294,-2.4376,-2.4394,-2.4606,-2.4947,-2.4947,-2.5439,-2.621,-2.659,-2.685,-2.7072,-3.6507,-3.6507,-3.6507,-3.6507,-3.6507,-3.6507,-3.6507,-3.6507,-3.6507,-3.6507,-3.6507,-3.6507,-3.6507,-3.6507,-3.6507,-3.6507,-3.6507,-3.6507,-3.6507,-3.6507,-3.6507,-3.6507,-3.6507,-3.6199,-3.5614,-3.5614,-3.5275,-3.4597,-3.4597,-3.4227,-3.349,-3.349,-3.3183,-3.2595,-3.3164,-3.3367,-3.3382,-3.3873,-3.4374,-3.4793,-3.4793,-3.5108,-3.5532,-3.5577,-3.56,-3.56,-3.56,-3.56,-3.56,-3.56,-3.5126,-3.4336,-3.2936,-3.2496,-3.2327,-3.1549,-3.1292,-3.1292,-3.1224,-3.119,-3.119,-3.119,-3.0683,-3.0006,-2.9281,-2.8484,-2.7689,-2.6962,-2.6759,-2.6691,-2.6691,-2.6691,-2.6691,-2.6691,-2.6691,-2.6808,-2.7117,-2.6564,-2.6323,-2.6934,-2.6407,-2.6116,-2.652,-2.6588,-2.6596,-2.66,-2.6643,-2.6675,-2.6602,-2.6602,-2.6602,-2.6602,-2.5888,-2.5521,-2.5521,-2.4787,-2.4337,-2.419,-2.419,-2.419,-2.419,-2.419,-2.4255,-2.4284,-2.421,-2.4275,-2.4404,-2.4404,-2.4875,-2.5588,-2.5579,-2.6181,-2.7083,-2.7756,-2.7628,-2.7194,-3.6507,-3.6507,-3.6507,-3.6507,-3.6507,-3.6507,-3.6507,-3.6507,-3.6507,-3.6507,-3.6507,-3.6507,-3.6507,-3.6507,-3.6507,-3.6507,-3.6507,-3.6507,-3.6507,-3.6507,-3.6507,-3.6507,-3.6507,-3.6415,-3.6292,-3.6261,-3.5922,-3.5306,-3.5306,-3.4936,-3.4258,-3.4258,-3.4197,-3.4072,-3.4666,-3.4813,-3.4607,-3.4794,-3.4823,-3.4793,-3.4793,-3.4864,-3.5038,-3.543,-3.56,-3.56,-3.56,-3.56,-3.56,-3.56,-3.5498,-3.5194,-3.4303,-3.3998,-3.3761,-3.2462,-3.2056,-3.1955,-3.136,-3.119,-3.119,-3.119,-3.1089,-3.0784,-3.004,-2.9262,-2.8518,-2.7722,-2.7097,-2.6691,-2.6691,-2.6691,-2.6691,-2.6691,-2.6691,-2.6725,-2.6808,-2.6884,-2.7002,-2.7137,-2.7236,-2.7429,-2.7779,-2.8094,-2.8056,-2.7467,-2.7442,-2.7207,-2.6638,-2.6602,-2.6602,-2.6602,-2.6429,-2.6355,-2.6355,-2.6172,-2.5438,-2.419,-2.419,-2.419,-2.419,-2.419,-2.453,-2.51,-2.4466,-2.4605,-2.5206,-2.4505,-2.4774,-2.5579,-2.555,-2.6457,-2.7793,-2.7931,-2.8339,-2.8703,-3.6507,-3.6507,-3.6507,-3.6507,-3.6507,-3.6507,-3.6507,-3.6507,-3.6507,-3.6507,-3.6507,-3.6507,-3.6507,-3.6507,-3.6507,-3.6507,-3.6507,-3.6507,-3.6507,-3.6507,-3.6507,-3.6507,-3.6507,-3.6507,-3.6507,-3.6507,-3.6322,-3.5953,-3.5953,-3.5614,-3.4998,-3.4998,-3.4813,-3.4505,-3.4823,-3.4889,-3.479,-3.5117,-3.5344,-3.5472,-3.5415,-3.5523,-3.5726,-3.5644,-3.56,-3.56,-3.56,-3.56,-3.56,-3.56,-3.56,-3.5464,-3.4742,-3.4506,-3.4269,-3.3152,-3.2814,-3.2645,-3.1921,-3.1718,-3.165,-3.1292,-3.119,-3.0987,-3.0277,-2.9803,-2.9296,-2.8518,-2.8078,-2.7791,-2.7791,-2.7791,-2.7672,-2.73,-2.7232,-2.7097,-2.6759,-2.6858,-2.7021,-2.7181,-2.7353,-2.7636,-2.812,-2.836,-2.8407,-2.8178,-2.8248,-2.8112,-2.7743,-2.7728,-2.7739,-2.7739,-2.7383,-2.7163,-2.7163,-2.6796,-2.6172,-2.5328,-2.5328,-2.5328,-2.5328,-2.5328,-2.5585,-2.5952,-2.5511,-2.5605,-2.5993,-2.5571,-2.5906,-2.6693,-2.6663,-2.7432,-2.8556,-2.8524,-2.8841,-2.9238,-3.6476,-3.6507,-3.6507,-3.6507,-3.6507,-3.6507,-3.6507,-3.6507,-3.6507,-3.6507,-3.6507,-3.6507,-3.6507,-3.6507,-3.6507,-3.6507,-3.6507,-3.6507,-3.6507,-3.6507,-3.6507,-3.6507,-3.6507,-3.6507,-3.6507,-3.6507,-3.6507,-3.6507,-3.6507,-3.6199,-3.5645,-3.5645,-3.5398,-3.4844,-3.4962,-3.4929,-3.4835,-3.5351,-3.5732,-3.6061,-3.6047,-3.6288,-3.6639,-3.6027,-3.5825,-3.5769,-3.5633,-3.56,-3.56,-3.56,-3.56,-3.5498,-3.4878,-3.4675,-3.4539,-3.3795,-3.3592,-3.3423,-3.2699,-3.2496,-3.2327,-3.1562,-3.1413,-3.119,-3.0446,-3.0209,-2.9939,-2.9314,-2.9077,-2.901,-2.901,-2.901,-2.8773,-2.8094,-2.7993,-2.7722,-2.6996,-2.6894,-2.6944,-2.7085,-2.7213,-2.7441,-2.789,-2.8147,-2.836,-2.8589,-2.8785,-2.8881,-2.8905,-2.8952,-2.8975,-2.8987,-2.8338,-2.8007,-2.8007,-2.7346,-2.7005,-2.7005,-2.7005,-2.6859,-2.6602,-2.6602,-2.6686,-2.6796,-2.6638,-2.6686,-2.6796,-2.6728,-2.7153,-2.79,-2.79,-2.8412,-2.9167,-2.9112,-2.9167,-2.9291,-3.6445,-3.6507,-3.6507,-3.6507,-3.6507,-3.6507,-3.6507,-3.6507,-3.6507,-3.6507,-3.6507,-3.6507,-3.6507,-3.6507,-3.6507,-3.6507,-3.6507,-3.6507,-3.6507,-3.6507,-3.6507,-3.6507,-3.6507,-3.6507,-3.6507,-3.6507,-3.6507,-3.6507,-3.6507,-3.6445,-3.6353,-3.6353,-3.6322,-3.6261,-3.6746,-3.6639,-3.6043,-3.6219,-3.5925,-3.5467,-3.5969,-3.6202,-3.6319,-3.6544,-3.666,-3.6558,-3.5859,-3.56,-3.56,-3.56,-3.56,-3.5566,-3.5464,-3.543,-3.5318,-3.4573,-3.4336,-3.4201,-3.3457,-3.3254,-3.3085,-3.2327,-3.2158,-3.1955,-3.1224,-3.0548,-3.0074,-2.9973,-2.9431,-2.901,-2.901,-2.901,-2.8976,-2.8874,-2.884,-2.8552,-2.7756,-2.7655,-2.7435,-2.6826,-2.7291,-2.7567,-2.7353,-2.8051,-2.8461,-2.8281,-2.8551,-2.8785,-2.8893,-2.8917,-2.894,-2.8987,-2.8877,-2.884,-2.884,-2.873,-2.8693,-2.8693,-2.8693,-2.7959,-2.6602,-2.6602,-2.6979,-2.7603,-2.6906,-2.6979,-2.7567,-2.6906,-2.7122,-2.79,-2.7857,-2.8357,-2.91,-2.9089,-2.9145,-2.92,-3.632,-3.6352,-3.6383,-3.6476,-3.6414,-3.6383,-3.6476,-3.6507,-3.6507,-3.6507,-3.6507,-3.6507,-3.6507,-3.6507,-3.6507,-3.6507,-3.6507,-3.6507,-3.6507,-3.6507,-3.6507,-3.6507,-3.6507,-3.6507,-3.6507,-3.6507,-3.6507,-3.6507,-3.6507,-3.6507,-3.6507,-3.6507,-3.6507,-3.6507,-3.6785,-3.672,-3.647,-3.7176,-3.7071,-3.6495,-3.7026,-3.7236,-3.7222,-3.6987,-3.7119,-3.7313,-3.6535,-3.5994,-3.56,-3.56,-3.56,-3.56,-3.56,-3.56,-3.5532,-3.5216,-3.5115,-3.4945,-3.4201,-3.3998,-3.3829,-3.3085,-3.2598,-3.2226,-3.1887,-3.1224,-3.0717,-3.0717,-3.0446,-3.0228,-3.0228,-3.0228,-3.0093,-2.9668,-2.96,-2.9364,-2.8586,-2.8484,-2.818,-2.7402,-2.7212,-2.7165,-2.7197,-2.7562,-2.784,-2.7911,-2.8228,-2.8438,-2.8489,-2.8713,-2.887,-2.894,-2.894,-2.8952,-2.8987,-2.8987,-2.8987,-2.8987,-2.8987,-2.862,-2.7923,-2.7923,-2.8143,-2.8448,-2.8069,-2.8143,-2.8436,-2.8069,-2.8154,-2.8507,-2.8484,-2.8716,-2.9033,-2.9033,-2.9078,-2.9134]},{"header":{"parameterUnit":"m.s-1","parameterCategory":1,"la1":30.6,"la2":28.766,"lo1":-90.7593,"lo2":-88.6598,"dy":0.0162,"dx":0.0183,"nx":116,"ny":114,"refTime":"2024-07-05T18:00:00:Z","depth":0,"parameterNumber":3,"parameterNumberName":"V-component_of_WINDS"},"data":[0.0,0.0,0.0,0.0,0.0,0.0,0.0,0.0,0.0,0.0,0.0,0.0,0.0,0.0,0.0,0.0,0.0,0.0,0.0,0.0,0.0,0.0,0.0,0.0,0.0,0.0,0.0,0.0,0.0,0.0,0.0,0.0,0.0,0.0,0.0,0.0,0.0,0.0,0.0,0.0,0.0,0.0,0.0,0.0,0.0,0.0,0.0,0.0,0.0,0.0,0.0,0.0,0.0,0.0,0.0,0.0,0.0,0.0,0.0,0.0,0.0,0.0,0.0,0.0,0.0,0.0,0.0,0.0,0.0,0.0,0.0,0.0,0.0,0.0,0.0,0.0,0.0,0.0,0.0,0.0,0.0,0.0,0.0,0.0,0.0,0.0,0.0,0.0,0.0,0.0,0.0,0.0,0.0,0.0,0.0,0.0,0.0,0.0,0.0,0.0,0.0,0.0,0.0,0.0,0.0,0.0,0.0,0.0,0.0,0.0,0.0,0.0,0.0,0.0,0.0,0.0,0.0,0.0,0.0,0.0,0.0,0.0,0.0,0.0,0.0,0.0,0.0,0.0,0.0,0.0,0.0,0.0,0.0,0.0,0.0,0.0,0.0,0.0,0.0,0.0,0.0,0.0,0.0,0.0,0.0,0.0,0.0,0.0,0.0,0.0,0.0,0.0,0.0,0.0,0.0,0.0,0.0,0.0,0.0,0.0,0.0,0.0,0.0,0.0,0.0,0.0,0.0,0.0,0.0,0.0,0.0,0.0,0.0,0.0,0.0,0.0,0.0,0.0,0.0,0.0,0.0,0.0,0.0,0.0,0.0,0.0,0.0,0.0,0.0,0.0,0.0,0.0,0.0,0.0,0.0,0.0,0.0,0.0,0.0,0.0,0.0,0.0,0.0,0.0,0.0,0.0,0.0,0.0,0.0,0.0,0.0,0.0,0.0,0.0,0.0,0.0,0.0,0.0,0.0,0.0,0.0,0.0,0.0,0.0,0.0,0.0,0.0,0.0,0.0,0.0,0.0,0.0,0.0,0.0,0.0,0.0,0.0,0.0,0.0,0.0,0.0,0.0,0.0,0.0,0.0,0.0,0.0,0.0,0.0,0.0,0.0,0.0,0.0,0.0,0.0,0.0,0.0,0.0,0.0,0.0,0.0,0.0,0.0,0.0,0.0,0.0,0.0,0.0,0.0,0.0,0.0,0.0,0.0,0.0,0.0,0.0,0.0,0.0,0.0,0.0,0.0,0.0,0.0,0.0,0.0,0.0,0.0,0.0,0.0,0.0,0.0,0.0,0.0,0.0,0.0,0.0,0.0,0.0,0.0,0.0,0.0,0.0,0.0,0.0,0.0,0.0,0.0,0.0,0.0,0.0,0.0,0.0,0.0,0.0,0.0,0.0,0.0,0.0,0.0,0.0,0.0,0.0,0.0,0.0,0.0,0.0,0.0,0.0,0.0,0.0,0.0,0.0,0.0,0.0,0.0,0.0,0.0,0.0,0.0,0.0,0.0,0.0,0.0,0.0,0.0,0.0,0.0,0.0,0.0,0.0,0.0,0.0,0.0,0.0,0.0,0.0,0.0,0.0,0.0,0.0,0.0,0.0,0.0,0.0,0.0,0.0,0.0,0.0,0.0,0.0,0.0,0.0,0.0,0.0,0.0,0.0,0.0,0.0,0.0,0.0,0.0,0.0,0.0,0.0,0.0,0.0,0.0,0.0,0.0,0.0,0.0,0.0,0.0,0.0,0.0,0.0,0.0,0.0,0.0,0.0,0.0,0.0,0.0,0.0,0.0,0.0,0.0,0.0,0.0,0.0,0.0,0.0,0.0,0.0,0.0,0.0,0.0,0.0,0.0,0.0,0.0,0.0,0.0,0.0,0.0,0.0,0.0,0.0,0.0,0.0,0.0,0.0,0.0,0.0,0.0,0.0,0.0,0.0,0.0,0.0,0.0,0.0,0.0,0.0,0.0,0.0,0.0,0.0,0.0,0.0,0.0,0.0,0.0,0.0,0.0,0.0,0.0,0.0,0.0,0.0,0.0,0.0,0.0,0.0,0.0,0.0,0.0,0.0,0.0,0.0,0.0,0.0,0.0,0.0,0.0,0.0,0.0,0.0,0.0,0.0,0.0,0.0,0.0,0.0,0.0,0.0,0.0,0.0,0.0,0.0,0.0,0.0,0.0,0.0,0.0,0.0,0.0,0.0,0.0,0.0,0.0,0.0,0.0,0.0,0.0,0.0,0.0,0.0,0.0,0.0,0.0,0.0,0.0,0.0,0.0,0.0,0.0,0.0,0.0,0.0,0.0,0.0,0.0,0.0,0.0,0.0,0.0,0.0,0.0,0.0,0.0,0.0,0.0,0.0,0.0,0.0,0.0,0.0,0.0,0.0,0.0,0.0,0.0,0.0,0.0,0.0,0.0,0.0,0.0,0.0,0.0,0.0,0.0,0.0,0.0,0.0,0.0,0.0,0.0,0.0,0.0,0.0,0.0,0.0,0.0,0.0,0.0,0.0,0.0,0.0,0.0,0.0,0.0,0.0,0.0,0.0,0.0,0.0,0.0,0.0,0.0,0.0,0.0,0.0,0.0,0.0,0.0,0.0,0.0,0.0,0.0,0.0,0.0,0.0,0.0,0.0,0.0,0.0,0.0,0.0,0.0,0.0,0.0,0.0,0.0,0.0,0.0,0.0,0.0,0.0,0.0,0.0,0.0,0.0,0.0,0.0,0.0,0.0,0.0,0.0,0.0,0.0,0.0,0.0,0.0,0.0,0.0,0.0,0.0,0.0,0.0,0.0,0.0,0.0,0.0,0.0,0.0,0.0,0.0,0.0,0.0,0.0,0.0,0.0,0.0,0.0,0.0,0.0,0.0,0.0,0.0,0.0,0.0,0.0,0.0,0.0,0.0,0.0,0.0,0.0,0.0,0.0,0.0,0.0,0.0,0.0,0.0,0.0,0.0,0.0,0.0,0.0,0.0,0.0,0.0,0.0,0.0,0.0,0.0,0.0,0.0,0.0,0.0,0.0,0.0,0.0,0.0,0.0,0.0,0.0,0.0,0.0,0.0,0.0,0.0,0.0,0.0,0.0,0.0,0.0,0.0,0.0,0.0,0.0,0.0,0.0,0.0,0.0,0.0,0.0,0.0,0.0,0.0,0.0,0.0,0.0,0.0,0.0,0.0,0.0,0.0,0.0,0.0,0.0,0.0,0.0,0.0,0.0,0.0,0.0,0.0,0.0,0.0,0.0,0.0,0.0,0.0,0.0,0.0,0.0,0.0,0.0,0.0,0.0,0.0,0.0,0.0,0.0,0.0,0.0,0.0,0.0,0.0,0.0,0.0,0.0,0.0,0.0,0.0,0.0,0.0,0.0,0.0,0.0,0.0,0.0,0.0,0.0,0.0,0.0,0.0,0.0,0.0,0.0,0.0,0.0,0.0,0.0,0.0,0.0,0.0,0.0,0.0,0.0,0.0,0.0,0.0,0.0,0.0,0.0,0.0,0.0,0.0,0.0,0.0,0.0,0.0,0.0,0.0,0.0,0.0,0.0,0.0,0.0,0.0,0.0,0.0,0.0,0.0,0.0,0.0,0.0,0.0,0.0,0.0,0.0,0.0,0.0,0.0,0.0,0.0,0.0,0.0,0.0,0.0,0.0,0.0,0.0,0.0,0.0,0.0,0.0,0.0,0.0,0.0,0.0,0.0,0.0,0.0,0.0,0.0,0.0,0.0,0.0,0.0,0.0,0.0,0.0,0.0,0.0,0.0,0.0,0.0,0.0,0.0,0.0,0.0,0.0,0.0,0.0,0.0,0.0,0.0,0.0,0.0,0.0,0.0,0.0,0.0,0.0,0.0,0.0,0.0,0.0,0.0,0.0,0.0,0.0,0.0,0.0,0.0,0.0,0.0,0.0,0.0,0.0,0.0,0.0,0.0,0.0,0.0,0.0,0.0,0.0,0.0,0.0,0.0,0.0,0.0,0.0,0.0,0.0,0.0,0.0,0.0,0.0,0.0,0.0,0.0,0.0,0.0,0.0,0.0,0.0,0.0,0.0,0.0,0.0,0.0,0.0,0.0,0.0,0.0,0.0,0.0,0.0,0.0,0.0,0.0,0.0,0.0,0.0,0.0,0.0,0.0,0.0,0.0,0.0,0.0,0.0,0.0,0.0,0.0,0.0,0.0,0.0,0.0,0.0,0.0,0.0,0.0,0.0,0.0,0.0,0.0,0.0,0.0,0.0,0.0,0.0,0.0,0.0,0.0,0.0,0.0,0.0,0.0,0.0,0.0,0.0,0.0,0.0,0.0,0.0,0.0,0.0,0.0,0.0,0.0,0.0,0.0,0.0,0.0,0.0,0.0,0.0,0.0,0.0,0.0,0.0,0.0,0.0,0.0,0.0,0.0,0.0,0.0,0.0,0.0,0.0,0.0,0.0,0.0,0.0,0.0,0.0,0.0,0.0,0.0,0.0,0.0,0.0,0.0,0.0,0.0,0.0,0.0,0.0,0.0,0.0,0.0,0.0,0.0,0.0,0.0,0.0,0.0,0.0,0.0,0.0,0.0,0.0,0.0,0.0,0.0,0.0,0.0,0.0,0.0,0.0,0.0,0.0,0.0,0.0,0.0,0.0,0.0,0.0,0.0,0.0,0.0,0.0,0.0,0.0,0.0,0.0,0.0,0.0,0.0,0.0,0.0,0.0,0.0,0.0,0.0,0.0,0.0,0.0,0.0,0.0,0.0,0.0,0.0,0.0,0.0,0.0,0.0,0.0,0.0,0.0,0.0,0.0,0.0,0.0,0.0,0.0,0.0,0.0,0.0,0.0,0.0,0.0,0.0,0.0,0.0,0.0,0.0,0.0,0.0,0.0,0.0,0.0,0.0,0.0,0.0,0.0,0.0,0.0,0.0,0.0,0.0,0.0,0.0,0.0,0.0,0.0,0.0,0.0,0.0,0.0,0.0,0.0,0.0,0.0,0.0,0.0,0.0,0.0,0.0,0.0,0.0,0.0,0.0,0.0,0.0,0.0,0.0,0.0,0.0,0.0,0.0,0.0,0.0,0.0,0.0,0.0,0.0,0.0,0.0,0.0,0.0,0.0,0.0,0.0,0.0,0.0,0.0,0.0,0.0,0.0,0.0,0.0,0.0,0.0,0.0,0.0,0.0,0.0,0.0,0.0,0.0,0.0,0.0,0.0,0.0,0.0,0.0,0.0,0.0,0.0,0.0,0.0,0.0,0.0,0.0,0.0,0.0,0.0,0.0,0.0,0.0,0.0,0.0,0.0,0.0,0.0,0.0,0.0,0.0,0.0,0.0,0.0,0.0,0.0,0.0,0.0,0.0,0.0,0.0,0.0,0.0,0.0,0.0,0.0,0.0,0.0,0.0,0.0,0.0,0.0,0.0,0.0,0.0,0.0,0.0,0.0,0.0,0.0,0.0,0.0,0.0,0.0,0.0,0.0,0.0,0.0,0.0,0.0,0.0,0.0,0.0,0.0,0.0,0.0,0.0,0.0,0.0,0.0,0.0,0.0,0.0,0.0,0.0,0.0,0.0,0.0,0.0,0.0,0.0,0.0,0.0,0.0,0.0,0.0,0.0,0.0,0.0,0.0,0.0,0.0,0.0,0.0,0.0,0.0,0.0,0.0,0.0,0.0,0.0,0.0,0.0,0.0,0.0,0.0,0.0,0.0,0.0,0.0,0.0,0.0,0.0,0.0,0.0,0.0,0.0,0.0,0.0,0.0,0.0,0.0,0.0,0.0,0.0,0.0,0.0,0.0,0.0,0.0,0.0,0.0,0.0,0.0,0.0,0.0,0.0,0.0,0.0,0.0,0.0,0.0,0.0,0.0,0.0,0.0,0.0,0.0,0.0,0.0,0.0,0.0,0.0,0.0,0.0,0.0,0.0,0.0,0.0,0.0,0.0,0.0,0.0,0.0,0.0,0.0,0.0,0.0,0.0,0.0,0.0,0.0,0.0,0.0,0.0,0.0,0.0,0.0,0.0,0.0,0.0,0.0,0.0,0.0,0.0,0.0,0.0,0.0,0.0,0.0,0.0,0.0,0.0,0.0,0.0,0.0,0.0,0.0,0.0,0.0,0.0,0.0,-1.2044,-1.1823,0.0,0.0,0.0,0.0,0.0,0.0,0.0,0.0,0.0,0.0,0.0,0.0,0.0,0.0,0.0,0.0,0.0,0.0,0.0,0.0,0.0,0.0,0.0,0.7149,0.7322,0.6972,0.6734,0.6383,0.5874,0.0,0.0,0.0,0.0,0.0,0.4746,0.412,0.3684,0.3482,0.2488,0.1583,0.0762,0.041,-0.0032,-0.0562,0.0,0.0,0.0,0.0,0.0,0.0,0.0,0.0,0.0,0.0,0.0,0.0,0.0,0.0,0.0,0.0,0.0,0.0,0.0,0.0,0.0,0.0,0.0,0.0,0.0,0.0,0.0,0.0,0.0,0.0,0.0,0.0,0.0,0.0,0.0,0.0,0.0,0.0,0.0,0.0,0.0,0.0,0.0,0.0,0.0,0.0,0.0,0.0,0.0,0.0,0.0,0.0,0.0,0.0,0.0,0.0,0.0,0.0,0.0,0.0,0.0,0.0,0.0,0.0,0.0,0.0,0.0,0.0,0.0,0.0,-1.3368,-1.3277,0.0,0.0,0.0,0.0,0.0,0.0,0.0,0.0,0.0,0.0,0.0,0.0,0.0,0.0,0.0,0.0,0.0,0.0,0.0,0.0,0.0,0.6718,0.6623,0.7201,0.7466,0.7136,0.6987,0.6671,0.6137,0.5828,0.0,0.0,0.0,0.5055,0.5039,0.4366,0.3951,0.3837,0.2412,0.1179,0.0099,-0.0761,-0.1162,-0.1159,-0.1567,0.0,0.0,0.0,0.0,0.0,0.0,0.0,0.0,0.0,0.0,0.0,0.0,0.0,0.0,0.0,0.0,0.0,0.0,0.0,0.0,0.0,0.0,0.0,0.0,0.0,0.0,0.0,0.0,0.0,0.0,0.0,0.0,0.0,0.0,0.0,0.0,0.0,0.0,0.0,0.0,0.0,0.0,0.0,0.0,0.0,0.0,0.0,0.0,0.0,0.0,0.0,0.0,0.0,0.0,0.0,0.0,0.0,0.0,0.0,0.0,0.0,0.0,0.0,-1.376,-1.3924,-1.3948,-1.3865,-1.4409,-1.5372,-1.4596,-1.4881,-1.5816,-1.5409,0.0,0.0,0.0,0.0,0.0,0.0,0.0,0.0,0.0,0.0,0.0,0.0,0.0,0.0,0.0,0.0,0.0,0.0,0.0,0.7211,0.6742,0.7437,0.782,0.7549,0.7196,0.6957,0.6867,0.6291,0.0,0.0,0.5514,0.5293,0.5169,0.4468,0.3909,0.3558,0.1576,0.0212,-0.0577,-0.1174,-0.1689,-0.2129,-0.2239,-0.2385,-0.2616,0.0,0.0,0.0,0.0,0.0,0.0,0.0,0.0,0.0,0.0,0.0,0.0,0.0,0.0,0.0,0.0,0.0,0.0,0.0,0.0,0.0,0.0,0.0,0.0,0.0,0.0,0.0,0.0,0.0,0.0,0.0,0.0,0.0,0.0,0.0,0.0,0.0,0.0,0.0,0.0,0.0,-0.6201,-0.6517,0.0,0.0,0.0,0.0,0.0,0.0,0.0,0.0,0.0,0.0,0.0,0.0,0.0,-1.2556,-1.3315,-1.3925,-1.43,-1.4411,-1.4928,-1.5266,-1.5401,-1.5007,-1.533,-1.6252,-1.617,0.0,-1.6444,-1.598,0.0,0.0,0.0,0.0,0.0,0.0,0.0,0.0,0.0,0.0,0.0,0.0,0.0,0.0,0.0,0.0,0.0,0.0,0.0,0.0,0.0,0.7462,0.7506,0.7388,0.7002,0.6701,0.6503,0.6356,0.6099,0.5702,0.5714,0.568,0.5534,0.4526,0.3415,0.2264,0.1014,0.0083,-0.055,-0.1195,-0.1802,-0.237,-0.2541,-0.2831,-0.3235,-0.3655,0.0,0.0,0.0,0.0,0.0,0.0,0.0,0.0,0.0,0.0,0.0,0.0,0.0,0.0,0.0,0.0,0.0,0.0,0.0,0.0,0.0,0.0,0.0,0.0,0.0,0.0,0.0,0.0,0.0,0.0,0.0,0.0,0.0,0.0,0.0,0.0,0.0,0.0,0.0,-0.608,-0.6693,-0.6814,-0.6864,-0.7004,0.0,0.0,0.0,0.0,0.0,0.0,0.0,0.0,0.0,-1.322,-1.3159,-1.3463,-1.4219,-1.4834,-1.5191,-1.533,-1.5652,-1.5902,-1.6091,-1.5884,-1.6175,-1.6821,-1.6567,-1.6825,-1.743,-1.7205,-1.7164,-1.7265,0.0,0.0,0.0,0.0,-1.8662,-1.8244,0.0,0.0,0.0,0.0,0.0,0.0,0.0,0.0,0.0,0.0,0.0,0.0,0.7685,0.7526,0.7359,0.7285,0.6927,0.6626,0.0,0.0,0.6272,0.5811,0.5884,0.5891,0.5855,0.4611,0.3103,0.1352,0.0734,0.015,0.0,0.0,0.0,0.0,0.0,-0.2953,-0.3708,-0.3854,-0.4121,0.0,0.0,0.0,0.0,0.0,0.0,0.0,0.0,0.0,0.0,0.0,0.0,0.0,0.0,0.0,0.0,0.0,0.0,0.0,0.0,0.0,0.0,0.0,0.0,0.0,0.0,0.0,0.0,0.0,0.0,0.0,0.0,0.0,0.0,0.0,0.0,0.0,0.0,-0.6386,-0.6994,-0.7114,-0.7369,-0.7696,0.0,0.0,0.0,0.0,0.0,0.0,-1.1856,-1.2079,-1.277,-1.4179,-1.4063,-1.4212,-1.4715,-1.5187,-1.543,-1.5459,-1.57,-1.5931,-1.623,-1.6345,-1.6609,-1.6961,-1.6552,-1.6976,-1.7857,-1.7865,-1.8032,-1.8314,-1.8654,-1.8848,-1.8995,-1.9744,-1.9758,-1.9496,0.0,0.0,0.0,0.0,0.0,0.0,0.0,0.0,0.0,0.0,0.0,0.7762,0.7533,0.7721,0.7753,0.751,0.7166,0.7077,0.0,0.0,0.6444,0.6535,0.6013,0.5794,0.5991,0.4732,0.3241,0.0,0.0,0.0,0.0,0.0,0.0,0.0,0.0,0.0,0.0,-0.4387,-0.4674,-0.4911,0.0,0.0,0.0,0.0,0.0,0.0,0.0,0.0,0.0,0.0,0.0,0.0,0.0,0.0,0.0,0.0,0.0,0.0,0.0,0.0,0.0,0.0,0.0,0.0,0.0,0.0,0.0,0.0,0.0,0.0,0.0,0.0,0.0,0.0,0.0,0.0,0.0,0.0,0.0,-0.7412,-0.8204,0.0,0.0,0.0,0.0,-0.9603,-1.0188,-1.0914,-1.1932,-1.2547,-1.3357,-1.4455,-1.4462,-1.4462,-1.4492,-1.4558,-1.4469,-1.4302,-1.4728,-1.5216,-1.5769,-1.6202,-1.6402,-1.6431,-1.6402,-1.6722,-1.7268,-1.7252,-1.7725,-1.8534,-1.9141,-1.9505,-1.9812,-2.0446,-2.0646,-2.062,0.0,0.0,0.0,0.6052,0.5828,0.5698,0.5754,0.61,0.6511,0.698,0.7432,0.768,0.0,0.7255,0.6841,0.6439,0.618,0.5988,0.5855,0.0,0.623,0.5841,0.5994,0.5698,0.486,0.4227,0.3243,0.0,0.0,0.0,0.0,0.0,0.0,0.0,0.0,0.0,0.0,0.0,0.0,-0.5194,-0.5553,-0.5615,0.0,0.0,0.0,0.0,0.0,0.0,0.0,0.0,0.0,0.0,0.0,0.0,0.0,0.0,0.0,0.0,0.0,0.0,0.0,0.0,0.0,0.0,0.0,0.0,0.0,0.0,0.0,0.0,0.0,0.0,0.0,0.0,0.0,0.0,0.0,0.0,0.0,-0.8551,-0.8697,0.0,-0.9337,-0.9112,-0.9315,-1.0218,-1.0928,-1.1604,-1.2283,-1.251,-1.3027,-1.3825,-1.3433,-1.3433,-1.3842,-1.3872,-1.3855,-1.3897,-1.458,-1.507,-1.54,-1.6087,-1.6402,-1.6402,-1.6402,-1.6722,-1.7191,-1.7191,-1.7605,-1.8309,-1.9109,-1.9449,-1.9631,-2.0423,-2.0699,-2.0699,0.6307,0.6177,0.0,0.6007,0.5782,0.5614,0.568,0.6096,0.6571,0.7073,0.7366,0.7546,0.7598,0.6888,0.6296,0.6008,0.5685,0.5439,0.5323,0.0,0.6029,0.5782,0.6202,0.5798,0.4437,0.4096,0.3375,0.0,0.0,0.0,0.0,0.0,0.0,0.0,0.0,0.0,0.0,0.0,0.0,0.0,0.0,-0.5876,-0.5914,0.0,0.0,0.0,0.0,0.0,0.0,0.0,0.0,0.0,0.0,0.0,0.0,0.0,0.0,0.0,0.0,0.0,0.0,0.0,0.0,0.0,0.0,0.0,0.0,0.0,0.0,0.0,0.0,0.0,0.0,0.0,0.0,0.0,0.0,-0.7626,-0.8446,-0.8692,-0.9024,-0.9394,-0.9804,-0.9645,-0.9866,-1.0615,-1.1238,-1.1722,-1.2074,-1.2151,-1.2489,-1.313,-1.2734,-1.2718,-1.3161,-1.3161,-1.3252,-1.3476,-1.4225,-1.4835,-1.5294,-1.6038,-1.6402,-1.6402,-1.6402,-1.6722,-1.7191,-1.7191,-1.7573,-1.8201,-1.9056,-1.9449,-1.9631,-2.0423,-2.0699,-2.0699,0.6307,0.6307,0.6245,0.6043,0.5902,0.5757,0.555,0.6154,0.6631,0.6619,0.7085,0.7396,0.7375,0.6743,0.6285,0.6266,0.5799,0.5617,0.5866,0.5707,0.5867,0.6443,0.6586,0.6071,0.4824,0.4395,0.0,0.0,0.0,0.0,0.0,0.0,0.0,0.0,0.0,0.0,0.0,0.0,0.0,0.0,0.0,0.0,-0.662,0.0,0.0,0.0,0.0,0.0,0.0,0.0,0.0,0.0,0.0,0.0,0.0,0.0,0.0,0.0,0.0,0.0,0.0,0.0,0.0,0.0,0.0,0.0,0.0,0.0,0.0,0.0,0.0,0.0,0.0,0.0,0.0,0.0,-0.6226,-0.6994,-0.7623,-0.7852,-0.9222,-1.0127,-1.0127,-1.0425,-1.0649,-1.0776,-1.0996,-1.1153,-1.131,-1.1498,-1.1856,-1.2458,-1.2473,-1.2473,-1.2473,-1.2473,-1.2657,-1.2978,-1.3704,-1.451,-1.541,-1.6095,-1.6402,-1.6402,-1.6402,-1.6701,-1.7169,-1.7197,-1.7533,-1.8155,-1.9032,-1.9529,-1.9837,-2.0421,-2.0646,-2.0646,0.6307,0.6307,0.6298,0.6305,0.6174,0.6148,0.6286,0.6683,0.7022,0.7228,0.7372,0.7356,0.7071,0.6421,0.5897,0.5591,0.5532,0.5449,0.5328,0.5682,0.591,0.5921,0.581,0.5452,0.4807,0.0,0.0,0.0,0.0,0.0,0.0,0.0,0.0,0.0,0.0,0.0,0.0,0.0,0.0,0.0,0.0,0.0,-0.6942,0.0,0.0,0.0,0.0,0.0,0.0,0.0,0.0,0.0,0.0,0.0,0.0,0.0,0.0,0.0,0.0,0.0,0.0,0.0,0.0,0.0,0.0,0.0,0.0,0.0,0.0,0.0,0.0,0.0,0.0,0.0,-0.5673,-0.6287,-0.7349,-0.818,-0.8944,-0.9749,-1.0194,-1.0466,-1.0466,-1.0546,-1.0649,-1.0776,-1.0996,-1.1153,-1.131,-1.1498,-1.1685,-1.1825,-1.1856,-1.1856,-1.1856,-1.2274,-1.2535,-1.2657,-1.4016,-1.4787,-1.507,-1.598,-1.6402,-1.6381,-1.605,-1.6159,-1.6634,-1.6737,-1.7067,-1.7594,-1.8331,-1.8705,-1.8908,-1.9193,-1.935,-1.9394,0.6307,0.6307,0.6316,0.6384,0.6296,0.6352,0.6735,0.6969,0.7254,0.7663,0.7443,0.717,0.6959,0.6242,0.5673,0.5446,0.5791,0.5855,0.5502,0.6097,0.6377,0.6212,0.0,0.5574,0.0,0.0,0.0,0.0,0.0,0.0,0.0,0.0,0.0,0.0,0.0,0.0,0.0,0.0,0.0,0.0,0.0,-0.6828,-0.7231,-0.7779,-0.7758,-0.7395,-0.7262,-0.703,-0.679,-0.6753,0.0,0.0,0.0,0.0,0.0,0.0,0.0,0.0,0.0,0.0,0.0,0.0,0.0,0.0,0.0,0.0,0.0,0.0,0.0,0.0,0.0,0.0,0.0,0.0,-0.6292,-0.684,-0.7911,-0.8516,-0.9155,-1.0053,-1.0396,-1.0586,-1.0586,-1.0586,-1.0618,-1.0713,-1.0965,-1.1122,-1.1216,-1.1466,-1.1591,-1.1591,-1.1591,-1.1591,-1.1591,-1.2182,-1.2626,-1.2948,-1.4092,-1.4744,-1.5031,-1.5571,-1.5794,-1.5822,-1.5525,-1.5701,-1.6208,-1.626,-1.6602,-1.7119,0.0,0.0,0.0,0.0,-1.8878,-1.8898,0.6307,0.6307,0.6349,0.6475,0.6403,0.6549,0.7171,0.7292,0.7463,0.8009,0.7404,0.6962,0.6999,0.618,0.5614,0.5623,0.6327,0.6595,0.0,0.6785,0.0,0.6848,0.6518,0.0,0.0,0.0,0.0,0.0,0.0,0.0,0.0,0.0,0.0,0.0,0.0,0.0,0.0,0.0,0.0,0.0,0.0,-0.642,-0.7363,-0.7745,-0.791,-0.788,-0.7494,-0.7292,-0.7165,-0.6673,0.0,0.0,0.0,0.0,0.0,0.0,0.0,0.0,0.0,0.0,0.0,0.0,0.0,0.0,0.0,0.0,0.0,0.0,0.0,0.0,0.0,0.0,0.0,0.0,-0.704,-0.7492,-0.8011,-0.8301,-0.8742,-0.9524,-1.0206,-1.0555,-1.0491,-1.0491,-1.0491,-1.0491,-1.0776,-1.1028,-1.109,-1.1404,0.0,0.0,0.0,-1.1622,-1.1716,-1.2305,-1.2948,-1.3631,-1.4142,-1.4712,-1.5282,-1.5143,-1.507,-1.507,-1.4966,-1.5241,-1.5778,-1.576,-1.6092,-1.6712,-1.7793,-1.8312,-1.8423,-1.8624,-1.8715,-1.8715,0.6379,0.6334,0.6548,0.7036,0.7148,0.7439,0.8273,0.8406,0.8433,0.8545,0.7785,0.7188,0.7093,0.6242,0.5711,0.5754,0.6587,0.7178,0.0,0.0,0.7097,0.6514,0.0,0.0,0.0,0.0,0.0,0.0,0.0,0.0,0.0,0.0,0.0,0.0,0.0,0.0,0.0,0.0,0.0,0.0,0.0,-0.6214,-0.6859,-0.7106,-0.7328,-0.7489,-0.719,-0.7197,-0.7341,-0.723,-0.7154,-0.7045,-0.6797,0.0,0.0,0.0,0.0,0.0,0.0,0.0,0.0,0.0,0.0,0.0,0.0,0.0,0.0,0.0,0.0,0.0,0.0,0.0,0.0,-0.6723,-0.7353,-0.7733,-0.7437,-0.7902,-0.8786,-1.0238,-1.0523,-1.0364,-0.9779,-0.9716,-0.9716,-0.9716,-1.0021,-1.0478,-1.1059,-1.1404,-1.1591,-1.1591,-1.1591,-1.1825,-1.2336,-1.2978,-1.3662,-1.4321,-1.5158,0.0,-1.5773,-1.5635,-1.5546,-1.5504,-1.4759,-1.4704,-1.5132,-1.481,-1.5198,-1.6069,-1.6938,-1.7247,-1.7239,-1.7453,-1.7539,-1.7539,0.7157,0.7148,0.7295,0.7635,0.7756,0.805,0.8788,0.8791,0.8822,0.9122,0.828,0.7647,0.7645,0.6903,0.6435,0.6498,0.7266,0.0,0.0,0.8178,0.7664,0.0,0.0,0.0,0.0,0.0,0.0,0.0,0.0,0.0,0.0,0.0,0.0,0.0,0.0,0.0,0.0,0.0,0.0,0.0,0.0,-0.5329,-0.5825,-0.641,-0.6664,-0.6698,-0.6656,-0.6774,-0.6964,-0.702,-0.7041,-0.7014,-0.6819,-0.6767,-0.6735,0.0,0.0,0.0,0.0,0.0,0.0,0.0,0.0,0.0,0.0,0.0,0.0,0.0,0.0,-0.7077,-0.7845,0.0,-0.7368,-0.7226,-0.7639,-0.7772,-0.7153,-0.7641,-0.8451,-0.9448,-0.9556,-0.9396,-0.9032,-0.9,-0.9128,-0.9492,-0.9799,-1.0307,-1.1059,-1.1404,-1.1591,-1.1591,-1.1591,-1.1747,-1.2042,-1.2673,-1.3342,-1.4022,-1.4715,-1.5212,-1.5544,-1.541,-1.5339,-1.5318,-1.4863,-1.4783,-1.5016,-1.5105,-1.5556,-1.6268,-1.7094,-1.7205,-1.6931,-1.7136,-1.7199,-1.7199,0.8177,0.8259,0.8292,0.8273,0.8326,0.8579,0.9177,0.9083,0.9105,0.9543,0.8765,0.8201,0.8264,0.7663,0.7355,0.0,0.0,0.0,0.0,0.0,0.0,0.0,0.0,0.0,0.0,0.0,0.0,0.0,0.0,0.0,0.0,0.0,0.0,0.0,0.0,0.0,0.0,0.0,0.0,0.0,0.0,-0.436,-0.4709,-0.5524,-0.5825,-0.5825,-0.592,-0.6167,-0.6413,-0.6532,-0.6681,-0.6808,-0.6681,-0.663,-0.6608,-0.663,-0.6587,0.0,0.0,0.0,0.0,0.0,0.0,0.0,0.0,-0.6452,-0.6328,-0.7228,-0.7483,-0.7811,-0.8634,-0.8309,-0.7838,-0.771,-0.7894,-0.7703,-0.6742,-0.7242,-0.7768,-0.7942,-0.8228,-0.8366,-0.826,-0.826,-0.8538,-0.9256,-0.9608,-1.018,-1.1059,-1.1404,-1.1591,-1.1591,-1.1591,-1.1654,-1.1763,-1.2274,-1.2917,-1.3722,-1.4121,-1.4657,-1.5323,-1.5151,-1.5105,-1.5132,-1.5028,-1.5007,-1.506,-1.5851,-1.6365,-1.6677,-1.7727,-1.7748,-1.7239,-1.7453,-1.746,-1.7382,0.9222,0.937,0.9289,0.8887,0.8907,0.9177,0.9717,0.9792,0.9727,0.9618,0.9131,0.8742,0.856,0.8063,0.8167,0.9331,0.0,0.0,0.0,0.0,0.0,0.0,0.0,0.0,0.0,0.0,0.0,0.0,0.0,0.0,0.0,0.0,0.0,0.0,0.0,0.0,0.0,0.0,0.0,0.0,-0.3539,-0.3854,-0.4008,-0.4118,-0.4556,-0.5091,-0.4874,-0.5329,-0.606,-0.6081,-0.6273,-0.6541,-0.652,-0.6392,-0.6276,-0.6395,0.0,-0.5825,-0.5879,-0.5556,-0.5447,-0.6506,-0.6149,-0.5986,0.0,-0.7913,-0.8037,-0.8792,-0.9248,-0.9554,-0.9806,-0.9532,-0.8924,-0.7869,-0.8017,-0.7642,-0.5823,-0.6142,-0.6427,-0.6059,-0.723,-0.7855,-0.7404,-0.7361,-0.7691,-0.8538,-0.8935,-0.9703,-1.1028,-1.1404,-1.1591,-1.1591,-1.1591,-1.1856,-1.2397,-1.2473,-1.3161,-1.438,-1.4562,-1.5061,-1.5805,-1.549,-1.5451,-1.5587,-1.5173,-1.5007,-1.5133,-1.6618,-1.6991,-1.6773,-1.8535,-1.8891,-1.8423,-1.865,-1.8401,-1.8009,0.939,0.9563,0.9545,0.939,0.9442,0.9604,0.9868,0.9893,0.9854,0.9801,0.9475,0.9361,0.9622,0.961,0.9775,1.0118,0.9939,0.0,0.9688,0.0,0.0,0.0,0.0,0.0,0.0,0.0,0.0,0.0,0.0,0.0,0.0,0.0,0.0,0.0,0.0,0.0,0.0,0.0,0.0,0.0,-0.3013,-0.3494,-0.4038,-0.3807,-0.3978,-0.4319,-0.4437,-0.4709,0.0,0.0,-0.5384,-0.5545,-0.5739,-0.5739,-0.5707,-0.5836,-0.5728,0.0,-0.5902,-0.6157,-0.6485,-0.7149,-0.6853,-0.6751,-0.7982,-0.8007,-0.7977,-0.8737,-0.8789,-0.8746,-0.8865,-0.8511,-0.787,-0.699,-0.698,-0.6661,-0.5454,-0.5502,-0.56,-0.552,-0.6157,-0.6561,-0.6459,-0.6454,-0.6957,-0.8227,-0.8552,-0.9406,-1.1014,-1.131,-1.1466,-1.1591,-1.1591,-1.1716,-1.1981,-1.1981,-1.2612,-1.3932,-1.3704,-1.441,-1.5885,-1.5464,-1.5584,-1.6112,-1.5905,-1.5987,-1.6375,-1.7386,-1.7868,-1.8094,-1.9283,-1.9659,-1.9501,-1.9066,-1.8767,-1.8558,0.9211,0.9429,0.9603,0.9658,0.9736,0.9814,0.988,0.9893,0.9893,0.9893,0.9725,0.984,1.0405,1.0645,1.0782,1.089,1.0861,1.0573,0.0,1.0031,0.0,0.0,0.0,0.0,0.0,0.0,0.0,0.0,0.0,0.0,0.0,0.0,0.0,0.0,0.0,0.0,0.0,0.0,0.0,-0.2309,-0.2584,-0.3188,-0.391,-0.371,-0.3657,-0.3678,-0.4002,-0.4206,0.0,0.0,-0.4713,-0.4843,-0.5048,-0.5091,-0.5079,-0.5213,-0.5299,-0.5415,-0.5659,-0.6285,-0.7002,-0.7379,-0.7347,-0.74,-0.8035,-0.7958,-0.7852,-0.8265,-0.8124,-0.7887,-0.7817,-0.745,-0.6926,-0.6253,-0.6088,-0.5831,-0.5164,-0.5042,-0.5127,-0.5324,-0.5497,-0.5685,-0.5872,-0.5888,-0.6471,-0.783,-0.8303,-0.9222,-1.0717,-1.1185,-1.1466,-1.1591,-1.1591,-1.1591,-1.1591,-1.1591,-1.2135,-1.3221,-1.31,-1.3944,-1.5633,-1.5575,-1.5836,-1.6402,-1.6402,-1.6722,-1.7268,-1.7847,-1.8467,-1.9078,-1.9784,-2.0118,-2.0143,-1.9612,-1.929,-1.9159,0.8718,0.9139,0.9523,0.9579,0.9658,0.9749,0.9867,0.9893,0.9893,0.9893,0.988,1.0106,1.063,1.0469,1.0762,1.1858,1.1121,1.0869,1.1491,1.0632,0.0,0.0,0.0,0.0,0.0,0.0,0.0,0.0,0.0,0.0,0.0,0.0,0.0,0.0,0.0,0.0,0.0,0.0,-0.0125,-0.1332,-0.2309,-0.2913,-0.3277,-0.3656,-0.3557,-0.3234,-0.3382,0.0,0.0,0.0,-0.4526,-0.4778,-0.4657,-0.4526,0.0,-0.459,-0.4802,-0.4976,-0.4792,-0.541,-0.6296,-0.6954,-0.7347,-0.7654,-0.7853,-0.8105,-0.8145,-0.7638,-0.7739,-0.7725,-0.7151,-0.7012,-0.6802,-0.6121,-0.5843,-0.5468,-0.481,-0.4819,-0.4992,-0.5193,-0.5439,-0.5685,-0.5872,-0.5888,-0.6258,-0.7157,-0.8149,-0.9086,-0.9977,-1.1014,-1.1591,-1.1591,-1.1591,-1.1591,-1.1591,-1.1591,-1.1919,-1.2535,-1.3326,-1.4088,-1.4963,-1.5923,-1.6374,-1.6402,-1.6402,-1.6722,-1.7268,-1.7847,-1.8467,-1.9105,-1.9862,-2.0195,-2.022,-2.0548,-2.0281,-1.9786,0.8622,0.9139,0.9523,0.9579,0.9605,0.9671,0.9827,0.9854,0.9893,0.9893,1.0559,0.0,0.0,0.0,0.0,0.0,1.2247,1.1906,1.156,1.126,0.0,0.0,0.0,0.0,0.0,0.0,0.0,0.0,0.0,0.0,0.0,0.0,0.0,0.0,0.0,0.0,0.0,0.0,0.0162,-0.1269,-0.1433,-0.2054,-0.2848,-0.2568,-0.2547,-0.2654,0.0,0.0,0.0,0.0,-0.3186,-0.3296,-0.3385,0.0,0.0,-0.3414,-0.4024,-0.4635,-0.5043,-0.5642,-0.6364,-0.7174,-0.6956,-0.6648,-0.7133,-0.7057,-0.6863,-0.6671,-0.6388,-0.6143,-0.6075,-0.5752,-0.5401,-0.5174,-0.5071,-0.4934,-0.4608,-0.4692,-0.488,-0.5164,-0.5483,-0.5725,-0.588,-0.5774,-0.6122,-0.7106,-0.7827,-0.8737,-0.9933,-1.0793,-1.1373,-1.1591,-1.1591,-1.1591,-1.1591,-1.1591,-1.1888,-1.2504,-1.3867,-1.4698,-1.5128,-1.6009,-1.6402,-1.6402,-1.6402,-1.6948,-1.782,-1.8011,-1.8658,-1.9578,-1.9939,-2.0118,-2.0246,-2.0473,-2.0495,-2.0386,0.8381,0.8994,0.9523,0.9563,0.959,0.0,0.0,0.0,0.0,0.0,0.0,0.0,0.0,0.0,0.0,0.0,0.0,1.2561,1.1982,1.1781,0.0,0.0,0.0,0.0,0.0,0.0,0.0,0.0,0.0,0.0,0.0,0.0,0.0,0.0,0.0,0.0,0.0,0.0,0.0753,-0.0614,-0.0801,-0.1346,-0.2046,-0.1743,-0.1761,0.0,0.0,0.0,0.0,-0.2593,-0.2504,-0.2482,0.0,0.0,0.0,0.0,-0.3784,-0.4701,-0.5469,-0.6106,-0.6628,-0.7074,-0.675,-0.6362,-0.6551,-0.6399,-0.6154,-0.5937,-0.5582,-0.5286,-0.5208,-0.489,-0.4641,-0.4641,-0.4641,-0.46,-0.4505,-0.4601,-0.4854,-0.5217,-0.5516,-0.5815,-0.6067,-0.5912,-0.6108,-0.6782,-0.7563,-0.8474,-0.9583,-1.0307,-1.0982,-1.1591,-1.1404,-1.1404,-1.1591,-1.1591,-1.2073,-1.3053,-1.4076,-1.4952,-1.5662,-1.6173,-1.6402,-1.6402,-1.6402,-1.706,-1.8093,-1.8093,-1.8765,-1.9837,-1.9991,-2.0118,-2.0246,-2.0473,-2.0624,-2.0699,0.8044,0.879,0.951,0.0,0.0,0.0,0.0,0.0,0.0,0.0,0.0,0.0,0.0,0.0,0.0,0.0,0.0,0.0,1.2815,0.0,0.0,0.0,1.1247,1.085,1.0332,1.039,1.004,0.0,0.0,0.0,0.0,0.0,0.0,0.0,0.0,0.0,0.0,0.0,0.1693,0.0692,-0.0295,-0.0767,-0.0918,-0.1125,0.0,0.0,0.0,0.0,0.0,0.0,0.0,0.0,0.0,0.0,0.0,-0.311,-0.4014,-0.5138,-0.5917,-0.6586,-0.6986,-0.6672,-0.6696,-0.6632,-0.6064,-0.6009,-0.5937,-0.5363,-0.5226,-0.5062,-0.4546,-0.447,-0.447,-0.447,-0.4511,-0.4511,-0.4505,-0.4588,-0.4812,-0.5306,-0.5517,-0.5833,-0.6318,-0.6262,-0.6219,-0.6219,-0.73,-0.8257,-0.8913,-0.9595,-1.0433,-1.1529,-1.1059,-1.1059,-1.1591,-1.1591,-1.2413,-1.4004,-1.4004,-1.4835,-1.6402,-1.6402,-1.6402,-1.6402,-1.6431,-1.7067,-1.8093,-1.8093,-1.8765,-1.9785,-2.0042,-2.0144,-2.0195,-2.0574,-2.0699,-2.0699,0.0,0.0,0.0,0.0,0.0,0.0,0.0,0.0,0.0,0.0,0.0,0.0,0.0,0.0,0.0,0.0,0.0,0.0,1.2815,0.0,0.0,0.0,0.0,0.0,1.0755,1.0621,0.0,0.0,0.0,0.0,0.0,0.0,0.0,0.0,0.0,0.0,0.0,0.0,0.2577,0.17,0.0,0.0688,0.0457,0.0,0.0,0.0,0.0,0.0,0.0,0.0,0.0,0.0,0.0,-0.2115,-0.2183,0.0,0.0,-0.4687,-0.5285,-0.5931,-0.6411,-0.6325,-0.5773,-0.5234,-0.5069,-0.4877,-0.4656,-0.4519,-0.4236,-0.3981,-0.3849,-0.3902,-0.3966,-0.3966,-0.4435,-0.4762,-0.4675,-0.4282,-0.4235,-0.4739,-0.482,-0.5057,-0.5752,-0.6146,-0.6351,-0.6351,-0.7008,-0.7703,-0.8377,-0.9107,-0.9939,-1.0965,-1.087,-1.1059,-1.1591,-1.1591,-1.2413,-1.4004,-1.4004,-1.4835,-1.6402,-1.6402,-1.6402,-1.6431,-1.6814,-1.7407,-1.8093,-1.8093,-1.8525,-1.9212,-1.95,-1.9605,-1.9683,-2.0448,-2.0699,-2.0699,0.0,0.0,0.0,0.0,0.0,0.0,0.0,0.0,0.0,0.0,0.0,0.0,0.0,0.0,0.0,0.0,0.0,0.0,0.0,0.0,0.0,0.0,0.0,0.0,0.0,0.0,0.0,0.0,0.0,0.0,0.0,0.0,0.0,0.0,0.0,0.0,0.0,0.0,0.0,0.0,0.0,0.0,0.0,0.0,0.0,0.0,0.0,0.0,0.0,0.0,0.0,-0.2718,-0.2263,-0.2238,-0.2497,-0.2871,0.0,-0.4475,-0.5078,-0.5524,-0.5746,-0.5527,-0.5069,-0.4636,-0.4353,-0.4249,-0.4138,-0.3888,-0.3716,-0.3516,-0.3267,-0.327,-0.3314,-0.3314,-0.3705,-0.3939,-0.3873,-0.3565,-0.3575,-0.4182,-0.423,-0.4558,-0.5489,-0.5881,-0.6152,-0.6383,-0.6804,-0.7397,-0.8161,-0.8528,-0.9364,-1.0776,-1.0573,-1.0825,-1.1591,-1.1591,-1.229,-1.3704,-1.3914,-1.4717,-1.6087,-1.6316,-1.6402,-1.6402,-1.6722,-1.7157,-1.771,-1.771,-1.8066,-1.8655,-1.8977,-1.9085,-1.9214,-2.0067,-2.0397,-2.0422,0.0,0.0,0.0,0.0,0.0,0.0,0.0,0.0,0.0,1.0465,1.0616,1.1057,0.0,0.0,0.0,0.0,0.0,0.0,0.0,0.0,0.0,0.0,0.0,0.0,0.0,0.0,0.0,0.0,0.0,0.0,0.0,0.0,0.0,0.0,0.0,0.0,0.0,0.0,0.0,0.0,0.0,0.0,0.0,0.0,0.0,0.0,0.0,0.0,0.0,0.0,-0.2191,-0.3166,-0.2683,-0.2861,-0.3284,-0.3439,-0.389,-0.4453,-0.505,-0.5254,-0.5171,-0.4629,-0.4574,-0.4519,-0.3932,-0.3993,-0.4027,-0.3499,-0.3433,-0.3289,-0.2679,-0.2592,-0.2628,-0.2628,-0.2738,-0.2857,-0.2818,-0.2753,-0.2935,-0.3558,-0.3663,-0.4159,-0.5305,-0.5517,-0.5815,-0.635,-0.6679,-0.7204,-0.8074,-0.8009,-0.8786,-1.0649,-1.0383,-1.0654,-1.1591,-1.1591,-1.2166,-1.3299,-1.3765,-1.4599,-1.5711,-1.6202,-1.6402,-1.6402,-1.6488,-1.6758,-1.7191,-1.7191,-1.7495,-1.8011,-1.8367,-1.8528,-1.8635,-1.9605,-1.994,-2.0016,0.0,0.0,0.0,0.0,0.0,0.0,0.0,0.0,0.0,0.0,0.0,0.0,0.0,0.0,0.0,0.0,0.0,0.0,0.0,0.0,0.0,0.0,0.0,0.0,0.0,0.0,0.0,0.0,0.0,0.0,0.0,0.0,0.0,0.0,0.0,0.0,0.0,0.0,0.0,0.0,0.0,0.0,0.0,0.0,0.0,0.0,0.0,0.0,0.0,0.0,-0.2481,-0.3435,-0.2857,-0.3075,-0.3441,-0.2984,-0.3622,-0.4484,-0.4622,-0.4952,-0.5171,-0.4629,-0.4519,-0.4408,-0.3904,-0.391,0.0,-0.3499,-0.31,-0.2679,-0.2069,-0.2085,-0.2201,-0.2201,-0.2716,-0.3079,-0.2979,-0.2522,-0.2334,-0.2699,-0.2927,-0.3448,-0.4439,-0.5186,-0.5815,-0.635,-0.6449,-0.6811,-0.7587,-0.7587,-0.8355,-1.0085,-1.0919,-1.1404,-1.1591,-1.1591,-1.2166,-1.3299,-1.3765,-1.4599,-1.5711,-1.6202,-1.6402,-1.6431,-1.687,-1.7101,-1.7191,-1.7191,-1.7246,-1.7357,-1.7545,-1.7628,-1.7793,-1.9164,-1.9658,-1.9708,0.0,0.0,0.0,0.0,0.0,0.0,0.0,0.0,0.0,0.0,0.0,0.0,0.0,0.0,0.0,0.0,0.0,0.0,0.0,0.0,0.0,0.0,0.0,0.0,0.0,0.0,1.0332,0.0,0.0,0.0,0.0,0.0,0.0,0.0,0.0,0.0,0.0,0.0,0.0,0.0,0.0,0.0,0.0,0.0,0.0,0.0,0.0,0.0,0.0,0.0,-0.1618,-0.2544,-0.2751,-0.2738,-0.2659,-0.2683,-0.3095,-0.3627,-0.3938,-0.4215,-0.4353,-0.4104,-0.4021,-0.3975,-0.3745,0.0,0.0,-0.2871,-0.2485,-0.2041,-0.1455,-0.14,-0.1484,-0.1507,-0.1823,-0.2038,-0.2008,-0.1778,-0.1679,-0.2008,-0.2339,-0.288,-0.378,-0.4683,-0.5411,-0.5947,-0.6251,-0.6712,-0.7456,-0.8323,-0.916,-0.999,-1.1045,-1.1591,-1.1591,-1.1591,-1.2027,-1.2903,-1.339,-1.4082,-1.4931,-1.54,-1.5749,-1.6058,-1.6304,-1.656,-1.6786,-1.6786,-1.6786,-1.6786,-1.7011,-1.7095,-1.7234,-1.8471,-1.8924,-1.9004,0.0,0.0,0.0,0.0,0.0,0.0,0.0,0.0,0.0,0.0,0.0,0.0,0.0,0.0,0.0,0.0,0.0,0.0,0.0,0.0,0.0,0.0,0.0,0.0,0.0,0.0,0.0,0.9961,0.0,0.0,0.0,0.0,0.0,0.0,0.0,0.0,0.0,0.0,0.0,0.0,0.0,0.0,0.0,0.0,0.0,0.0,0.0,0.0,0.0,0.0,-0.0483,-0.1099,-0.2026,-0.2097,-0.1902,-0.2237,-0.2484,-0.2794,-0.3272,-0.3499,-0.361,-0.361,-0.361,-0.3589,-0.3517,-0.3294,0.0,-0.2243,-0.1949,-0.1623,-0.1009,-0.0898,-0.09,0.0,-0.0923,-0.0987,-0.0946,-0.1012,-0.1213,-0.1458,-0.1925,-0.2522,-0.3284,-0.4251,-0.5014,-0.555,-0.6243,-0.6876,-0.7456,-0.9,-0.9894,-0.999,-1.0919,-1.1466,-1.1591,-1.1591,-1.1872,-1.2428,-1.3025,-1.3571,-1.413,-1.4666,-1.5196,-1.5711,-1.5711,-1.5972,-1.6402,-1.6402,-1.6402,-1.6431,-1.663,-1.6694,-1.6835,-1.776,-1.8143,-1.8306,0.0,0.0,0.0,0.0,0.0,0.0,0.0,0.0,0.0,0.0,0.0,0.0,0.0,0.0,0.0,0.0,0.0,0.0,0.0,0.0,0.0,0.0,0.0,0.0,0.0,0.0,0.0,0.9825,0.9288,0.0,0.0,0.0,0.0,0.0,0.0,0.5166,0.0,0.0,0.0,0.0,0.0,0.0,0.0,0.0,0.0,0.0,0.0,0.0,0.0,0.0,0.0,0.0701,-0.0168,-0.1146,-0.1846,-0.1233,0.0,0.0,-0.2766,-0.3188,-0.361,-0.361,-0.361,-0.3522,-0.3201,0.0,-0.285,-0.2004,-0.1813,-0.1623,-0.1009,-0.0945,-0.0831,-0.0339,-0.0744,-0.0913,-0.0452,-0.0786,-0.1119,-0.1149,-0.1776,-0.2388,-0.2913,-0.4079,-0.5014,-0.555,-0.6704,-0.7423,-0.7489,-0.8689,-0.9556,-0.999,-1.0573,-1.1122,-1.1591,-1.1591,-1.1778,-1.2151,-1.2934,-1.345,-1.3782,-1.4558,-1.5196,-1.5711,-1.5711,-1.5972,-1.6402,-1.6402,-1.6402,-1.6402,-1.6431,-1.6431,-1.6516,-1.7234,-1.7678,-1.7979,0.0,0.0,0.0,0.0,0.0,0.0,0.0,0.0,0.0,0.0,0.0,0.0,0.0,0.0,0.0,0.0,0.0,0.0,0.0,0.0,0.0,0.0,0.0,0.0,0.0,0.0,0.0,0.9328,0.8862,0.0,0.0,0.0,0.0,0.0,0.0,0.5188,0.4622,0.0,0.0,0.0,0.0,0.0,0.0,0.0,0.0,0.0,0.0,0.0,0.0,0.0,0.0,0.0,0.062,0.0,0.0,0.0,-0.1091,-0.1762,-0.2512,-0.2877,-0.3132,-0.3499,-0.3388,-0.3141,-0.3024,-0.256,-0.2112,-0.1744,-0.1463,-0.1184,-0.095,-0.093,-0.0892,-0.0723,-0.0892,-0.0975,-0.0815,-0.0961,-0.11,-0.1095,-0.1753,-0.2262,-0.2455,-0.3589,-0.4688,-0.555,-0.6474,-0.7162,-0.7489,-0.8657,-0.9524,-0.999,-1.051,-1.1059,-1.1591,-1.1591,-1.1778,-1.212,-1.2582,-1.2964,-1.3316,-1.3812,-1.4469,-1.5225,-1.5225,-1.5662,-1.6402,-1.6402,-1.6402,-1.6402,-1.6402,-1.6402,-1.6459,-1.6892,-1.7234,-1.7512,0.0,0.0,0.0,0.0,0.0,0.0,0.0,0.0,0.0,0.0,0.0,0.0,0.0,0.0,0.0,0.0,0.0,0.0,0.0,0.0,0.0,0.0,0.0,0.0,0.0,0.0,0.0,0.9188,0.8659,0.8316,0.0,0.0,0.6541,0.6007,0.0,0.0,0.0,0.0,0.0,0.0,0.0,0.0,0.0,0.0,0.0,0.0,0.0,0.0,0.0,0.0,0.0,0.0,0.0,0.0,0.0,0.0,-0.0504,-0.1036,-0.1986,-0.2348,-0.2627,-0.3244,-0.3021,-0.2666,-0.2767,-0.2172,-0.1555,-0.1411,-0.113,-0.0904,-0.0897,-0.0927,-0.0886,-0.0789,-0.0922,-0.1002,-0.0888,-0.1009,-0.1119,-0.1117,-0.1678,-0.2087,-0.2185,-0.3309,-0.4461,-0.5517,-0.6178,-0.6802,-0.7456,-0.8398,-0.9236,-0.999,-1.0383,-1.0888,-1.1591,-1.1591,-1.1716,-1.1965,-1.2243,-1.2552,-1.2858,-1.3177,-1.3842,-1.4677,-1.4824,-1.54,-1.6202,-1.6345,-1.6402,-1.6402,-1.6402,-1.6402,-1.6431,-1.663,-1.6892,-1.7228,0.0,0.0,0.0,0.0,0.0,0.0,0.0,0.0,0.0,0.0,0.0,0.0,0.0,0.0,0.0,0.0,0.0,0.0,0.0,0.0,0.0,0.0,0.0,0.0,0.0,0.0,0.0,0.959,0.8785,0.8316,0.8177,0.7182,0.6626,0.6456,0.0,0.0,0.0,0.0,0.0,0.0,0.0,0.0,0.0,0.0,0.0,0.0,0.0,0.0,0.0,0.0,0.0,0.0,0.0,0.1747,0.1567,0.0,-0.0224,-0.0755,-0.1037,-0.1541,-0.2153,-0.2766,-0.246,-0.21,-0.2436,-0.2041,-0.1455,-0.1009,-0.0897,-0.0897,-0.0898,-0.0947,-0.0833,-0.0309,-0.0713,-0.0925,-0.047,-0.0819,-0.1108,-0.1204,-0.1483,-0.1823,-0.2173,-0.3279,-0.4461,-0.5517,-0.5914,-0.6507,-0.7456,-0.7814,-0.8624,-0.9958,-1.0021,-1.0528,-1.1591,-1.1591,-1.1591,-1.1622,-1.1934,-1.2243,-1.2521,-1.2858,-1.3437,-1.4219,-1.4695,-1.5196,-1.574,-1.6202,-1.6402,-1.6402,-1.6402,-1.6402,-1.6402,-1.6402,-1.6722,-1.72,0.0,0.0,0.0,0.0,0.0,0.0,0.0,0.0,0.0,0.0,0.0,0.0,0.0,0.0,0.0,0.0,0.0,0.0,0.0,0.0,0.0,0.0,0.0,0.0,0.0,0.0,0.0,0.8504,0.8255,0.7925,0.7524,0.7393,0.6976,0.6349,0.5925,0.5472,0.0,0.0,0.0,0.0,0.0,0.0,0.4987,0.0,0.0,0.0,0.0,0.0,0.0,0.0,0.0,0.0,0.0,0.0,0.0,0.0948,0.0413,-0.0056,-0.0504,-0.1008,-0.1541,-0.2125,-0.2014,-0.1762,-0.1874,-0.1483,-0.1093,-0.0925,-0.0913,-0.0906,-0.0956,-0.0975,-0.0945,-0.0835,-0.0976,-0.1063,-0.0977,-0.1066,-0.1175,-0.1152,-0.1672,-0.2251,-0.2829,-0.3242,-0.3889,-0.4981,-0.5378,-0.6005,-0.704,-0.7661,-0.8624,-0.9958,-0.999,-1.0528,-1.1591,-1.1591,-1.1591,-1.1591,-1.1934,-1.2151,-1.2243,-1.2767,-1.3316,-1.3902,-1.4588,-1.5196,-1.574,-1.6202,-1.6402,-1.6402,-1.6402,-1.6402,-1.6402,-1.6402,-1.663,-1.6948,0.0,0.0,0.0,0.0,0.0,0.0,0.0,0.0,0.0,0.0,0.0,0.0,0.0,0.0,0.0,0.0,0.0,0.0,0.0,0.0,0.0,0.0,0.0,0.0,0.0,0.0,0.0,0.83,0.7972,0.7593,0.7202,0.7379,0.7203,0.6734,0.6356,0.588,0.0,0.0,0.0,0.0,0.0,0.0,0.4873,0.0,0.0,0.0,0.0,0.0,0.0,0.0,0.0,0.0,0.0,0.0,0.0,0.0,0.0999,0.0645,0.014,-0.0336,-0.0785,-0.1203,-0.1034,-0.0838,-0.1313,-0.1008,-0.0673,-0.0869,-0.0893,-0.0919,-0.0968,-0.099,-0.1024,-0.1046,-0.1081,-0.1132,-0.1194,-0.1183,-0.1217,-0.1321,-0.1842,-0.2415,-0.2961,-0.3293,-0.3856,-0.4749,-0.518,-0.584,-0.6843,-0.7466,-0.8431,-0.9767,-0.9926,-1.0528,-1.1591,-1.1591,-1.1591,-1.1591,-1.1809,-1.1965,-1.212,-1.2582,-1.3042,-1.348,-1.4309,-1.4843,0.0,-1.5633,-1.5836,-1.5836,-1.6058,-1.6029,-1.5865,-1.6259,-1.6345,-1.6324,0.0,0.0,0.0,0.0,0.0,0.0,0.0,0.0,0.0,0.0,0.0,0.0,0.0,0.0,0.0,0.0,0.0,0.0,0.0,0.0,0.0,0.0,0.0,0.0,0.0,0.9428,0.8926,0.8728,0.791,0.7405,0.7188,0.7216,0.7322,0.7477,0.6712,0.0,0.0,0.0,0.0,0.0,0.4962,0.4889,0.0,0.0,0.0,0.0,0.0,0.0,0.0,0.0,0.0,0.0,0.0,0.0,0.0,0.0,0.0,0.0,0.0,0.042,0.0028,-0.0112,0.028,0.0392,-0.0727,-0.0588,0.0,-0.0757,-0.0894,-0.0917,-0.0917,-0.0964,-0.1005,-0.1008,-0.1062,-0.1133,-0.1194,-0.1201,-0.1308,-0.1673,-0.1991,-0.2319,-0.2659,-0.3456,-0.4189,-0.4749,-0.5246,-0.5914,-0.6811,-0.7237,-0.8074,-0.9352,-0.9735,-1.0433,-1.1591,-1.156,-1.156,-1.1591,-1.156,-1.1716,-1.2058,-1.2336,-1.2644,-1.3011,-1.383,-1.4189,-1.4249,-1.4725,-1.4883,-1.4961,-1.543,-1.5342,-1.5001,-1.5951,-1.5894,-1.5439,0.0,0.0,0.0,0.0,0.0,0.0,0.0,0.0,0.0,0.0,0.0,0.0,0.0,0.0,0.0,0.0,0.0,0.0,0.0,0.0,0.0,0.0,0.0,0.0,0.0,0.0,0.8765,0.7972,0.7765,0.7433,0.7048,0.7298,0.7446,0.0,0.7147,0.0,0.0,0.0,0.0,0.0,0.5171,0.5042,0.0,0.0,0.0,0.0,0.4294,0.4326,0.0,0.0,0.0,0.0,0.0,0.0,0.0,0.0,0.1299,0.1132,0.1404,0.0,0.0533,0.0505,0.0477,0.0393,0.0,-0.0084,-0.0224,-0.0336,0.0,-0.0977,-0.0977,-0.1027,-0.1073,-0.1062,-0.1106,-0.1123,-0.1198,-0.1147,-0.1273,-0.1664,-0.2005,-0.2338,-0.2656,-0.3125,-0.3789,-0.4716,-0.4915,-0.5451,-0.6449,-0.6843,-0.7498,-0.8463,-0.8839,-0.9831,-1.1591,-1.1185,-1.1185,-1.1591,-1.1185,-1.1247,-1.1716,-1.2058,-1.2336,-1.2674,-1.348,-1.3962,-1.4249,-1.4725,-1.4883,-1.4913,-1.5049,-1.5001,-1.4913,-1.5167,-1.5147,-1.5059,0.0,0.0,0.0,0.0,0.0,0.0,0.0,0.0,0.0,0.0,0.0,0.0,0.0,0.0,0.0,0.0,0.0,0.0,0.0,0.0,0.0,0.0,0.0,0.0,0.0,0.0,0.0,0.0,0.0,0.7321,0.0,0.0,0.0,0.0,0.0,0.0,0.0,0.0,0.0,0.0,0.507,0.0,0.0,0.0,0.0,0.0,0.3627,0.3561,0.0,0.3627,0.3164,0.2544,0.0,0.0,0.0,0.0,0.1471,0.142,0.1665,0.1343,0.0975,0.1204,0.1175,0.1032,0.0803,0.0,0.0,0.0,0.0,-0.0402,-0.0649,-0.0712,-0.0811,-0.1063,-0.1112,-0.1132,-0.1199,-0.114,-0.1261,-0.1647,-0.1986,-0.2321,-0.2653,-0.3456,-0.4189,-0.4749,-0.5246,-0.5782,-0.6383,-0.6721,-0.7302,-0.8172,-0.8517,-0.9404,-1.0856,-1.0839,-1.0965,-1.1216,-1.1185,-1.131,-1.1622,-1.1934,-1.2182,-1.2336,-1.2903,-1.3329,-1.3679,-1.392,-1.4112,-1.4291,-1.4469,-1.444,-1.4321,-1.4736,-1.4617,-1.4321,0.0,0.0,0.0,0.0,0.0,0.0,0.0,0.0,0.0,0.0,0.0,0.0,0.0,0.0,0.0,0.0,0.0,0.0,0.0,0.0,0.0,0.0,0.0,0.0,0.0,0.0,0.0,0.0,0.0,0.0,0.0,0.0,0.7282,0.0,0.0,0.0,0.0,0.0,0.0,0.4872,0.4922,0.0,0.0,0.0,0.0,0.0,0.0,0.0,0.0,0.2876,0.2544,0.2099,0.2099,0.0,0.0,0.0,0.0,0.0,0.1793,0.1559,0.1421,0.1784,0.1904,0.1792,0.1383,0.0,0.0,0.0,0.0,0.0,-0.0186,-0.0292,-0.0471,-0.1015,-0.1104,-0.113,-0.1192,-0.1133,-0.1218,-0.1568,-0.191,-0.2253,-0.2586,-0.3751,-0.4583,-0.4782,-0.565,-0.6218,-0.6383,-0.6679,-0.7171,-0.7977,-0.8323,-0.8903,-0.9703,-1.0288,-1.0649,-1.0807,-1.1185,-1.1435,-1.1622,-1.1903,-1.2058,-1.212,-1.2336,-1.2644,-1.2981,-1.2981,-1.3194,-1.3541,-1.395,-1.3842,-1.3601,-1.438,-1.4172,-1.3571,0.0,0.0,0.0,0.0,0.0,0.0,0.0,0.0,0.0,0.0,0.0,0.0,0.0,0.0,0.0,0.0,0.0,0.0,0.0,0.0,0.0,0.0,0.0,0.0,0.0,0.0,0.0,0.0,0.0,0.0,0.7006,0.7006,0.707,0.7218,0.0,0.0,0.0,0.0,0.0,0.5217,0.5105,0.0,0.0,0.0,0.0,0.0,0.0,0.0,0.0,0.2987,0.2544,0.2099,0.2099,0.0,0.0,0.0,0.0,0.0,0.1768,0.1845,0.1874,0.1834,0.1847,0.188,0.1821,0.0,0.0,0.0,0.0,0.0,0.0,-0.0263,-0.0474,-0.1006,-0.1083,-0.1088,-0.1127,-0.1102,-0.1116,-0.1184,-0.1482,-0.185,-0.2253,-0.272,-0.3518,-0.4716,-0.4948,-0.5451,-0.635,-0.6449,-0.6679,-0.7073,-0.7489,-0.7879,-0.8301,-0.9107,-0.9939,-1.0807,-1.0401,-1.0717,-1.1591,-1.1654,-1.184,-1.2089,-1.2151,-1.249,-1.2981,-1.2981,-1.3194,-1.3511,-1.3571,-1.3571,-1.3511,-1.3662,-1.3631,-1.3511,0.0,0.0,0.0,0.0,0.0,0.0,0.0,0.0,0.0,0.0,0.0,0.0,0.0,0.0,0.0,0.0,0.0,0.0,0.0,0.0,0.0,0.0,0.0,0.0,0.0,0.0,0.0,0.0,0.0,0.7245,0.7006,0.7339,0.7356,0.711,0.0,0.0,0.0,0.0,0.5368,0.5289,0.0,0.0,0.0,0.0,0.0,0.0,0.0,0.0,0.0,0.0,0.1899,0.1721,0.1721,0.0,0.0,0.0,0.0,0.0,0.1733,0.1834,0.194,0.1856,0.194,0.2009,0.2009,0.1801,0.0,0.0,0.0,0.0,0.0,0.0132,-0.0136,-0.0977,-0.1086,-0.1086,-0.1086,-0.1095,-0.1109,-0.1109,-0.1412,-0.1738,-0.2073,-0.269,-0.348,-0.4512,-0.4855,-0.5336,-0.61,-0.6132,-0.6331,-0.6784,-0.6976,-0.7375,-0.7987,-0.8409,-0.9075,-1.0002,-1.0288,-1.0699,-1.1185,-1.1466,-1.1685,-1.184,-1.184,-1.2089,-1.2521,-1.2674,-1.292,-1.3255,-1.342,-1.3511,-1.3511,-1.3511,-1.3511,-1.3511,0.0,0.0,0.0,0.0,0.0,0.0,0.0,0.0,0.0,0.0,0.0,0.0,0.0,0.0,0.0,0.0,0.0,0.0,0.0,0.0,0.0,0.0,0.0,0.0,0.0,0.0,0.85,0.7848,0.7641,0.7349,0.7006,0.7552,0.7549,0.7098,0.0,0.0,0.0,0.5597,0.5329,0.5289,0.0,0.0,0.0,0.0,0.0,0.0,0.0,0.0,0.0,0.0,0.0,0.0,0.0,0.0,0.0,0.1497,0.1575,0.1692,0.1719,0.186,0.2003,0.2018,0.2023,0.2059,0.2089,0.2048,0.0,0.0,0.0,0.0,0.0,0.0433,0.0,-0.0934,-0.1111,-0.1108,-0.1067,-0.1081,-0.1066,-0.1066,-0.1299,-0.1584,-0.1875,-0.2557,-0.3335,-0.4241,-0.4692,-0.5229,-0.5945,-0.5975,-0.6181,-0.6618,-0.6722,-0.7081,-0.7727,-0.7922,-0.8441,-0.93,-1.0066,-1.051,-1.0636,-1.1045,-1.131,-1.1404,-1.1404,-1.1654,-1.212,-1.2398,-1.2705,-1.3042,-1.3359,-1.3511,-1.3511,-1.3511,-1.3511,-1.3511,0.0,0.0,0.0,0.0,0.0,0.0,0.0,0.0,0.0,0.0,0.0,0.0,0.0,0.0,0.0,0.0,0.0,0.0,0.0,0.0,0.0,0.0,0.0,0.0,0.0,0.8785,0.8316,0.8255,0.7447,0.7048,0.7006,0.737,0.7367,0.711,0.0,0.0,0.6209,0.6136,0.5792,0.5297,0.5144,0.0,0.0,0.0,0.0,0.0,0.0,0.0,0.0,0.0,0.0,0.0,0.0,0.0,0.1427,0.1483,0.1545,0.1646,0.176,0.2037,0.2281,0.235,0.214,0.1954,0.207,0.2048,0.0,0.215,0.0,0.1341,0.124,0.0411,-0.0416,-0.1015,-0.1112,-0.107,-0.101,-0.1006,-0.1005,-0.1005,-0.1037,-0.1196,-0.158,-0.1632,-0.2311,-0.3895,-0.4077,-0.4713,-0.6116,-0.6186,-0.6245,-0.6424,-0.6728,-0.6933,-0.6983,-0.7661,-0.8441,-0.93,-0.9364,-0.9652,-1.0053,-1.0117,-1.0383,-1.087,-1.087,-1.1341,-1.212,-1.2398,-1.2705,-1.3042,-1.3359,-1.3511,-1.3511,-1.3511,-1.3511,-1.3511,0.0,0.0,0.0,0.0,0.0,0.0,0.0,0.0,0.0,0.0,0.0,0.0,0.0,0.0,0.0,0.0,0.0,0.0,0.0,0.0,0.0,0.0,0.0,0.9703,0.9703,0.9065,0.8582,0.8296,0.7426,0.71,0.733,0.7615,0.0,0.0,0.0,0.7571,0.7197,0.6507,0.6073,0.5809,0.5317,0.4942,0.0,0.0,0.0,0.0,0.0,0.0,0.0,0.0,0.2103,0.1772,0.1813,0.1634,0.1416,0.1438,0.1513,0.1599,0.167,0.1865,0.2104,0.2387,0.2353,0.0,0.0,0.2559,0.2687,0.2542,0.2318,0.1882,0.0975,-0.0069,-0.0864,-0.1025,-0.1065,-0.1092,-0.1012,-0.1005,-0.1005,-0.1005,-0.1005,-0.1123,-0.1437,-0.1449,-0.1899,-0.2987,-0.3213,-0.3698,-0.4603,-0.515,-0.5548,-0.5764,-0.6221,-0.6593,-0.6885,-0.7171,-0.7727,-0.8506,-0.9043,-0.9396,-0.9588,-0.9862,-1.0117,-1.0307,-1.0307,-1.0667,-1.131,-1.1622,-1.212,-1.2736,-1.3299,-1.3511,-1.3511,-1.3511,-1.3511,-1.3511,0.0,0.0,0.0,0.0,0.0,0.0,0.0,0.0,0.0,0.0,0.0,0.0,0.0,0.0,0.0,0.0,0.0,0.0,0.0,0.0,0.0,0.0,0.0,0.9703,0.9703,0.9246,0.8765,0.8296,0.7426,0.7174,0.7491,0.0,0.0,0.0,0.0,0.7779,0.7584,0.6535,0.0,0.5864,0.5371,0.5,0.0,0.0,0.0,0.0,0.0,0.0,0.0,0.0,0.2504,0.2196,0.2103,0.1858,0.1593,0.1478,0.1524,0.1649,0.1668,0.1955,0.228,0.2424,0.0,0.0,0.2567,0.2749,0.2961,0.275,0.2686,0.2181,0.0537,-0.0102,-0.0543,-0.0933,-0.1036,-0.106,-0.0968,-0.0968,-0.0973,-0.0973,-0.0973,-0.1027,-0.121,-0.1256,-0.1557,-0.2327,-0.2639,-0.3093,-0.3765,-0.4494,-0.5067,-0.5453,-0.5813,-0.6254,-0.6745,-0.6843,-0.7204,-0.7857,-0.856,-0.8958,-0.9055,-0.9396,-0.9608,-0.9767,-0.9767,-1.0066,-1.0573,-1.0919,-1.1483,-1.2166,-1.2642,-1.2948,-1.3161,-1.3161,-1.3312,-1.3511,0.0,0.0,0.0,0.0,0.0,0.0,0.0,0.0,0.0,0.0,0.0,0.0,0.0,0.0,0.0,0.0,0.0,0.0,0.0,0.0,0.0,0.0,0.0,0.9703,0.9703,0.9246,0.8781,0.8296,0.7447,0.7174,0.7527,0.7789,0.0,0.0,0.0,0.0,0.7063,0.0,0.0,0.0,0.5297,0.5124,0.4882,0.0,0.0,0.0,0.0,0.0,0.0,0.0,0.297,0.262,0.2152,0.0,0.0,0.1624,0.161,0.1719,0.1779,0.2382,0.2895,0.2496,0.0,0.0,0.2677,0.2548,0.2633,0.2702,0.2683,0.208,0.0067,0.047,0.0627,-0.0779,-0.0988,-0.0967,-0.0905,-0.0894,-0.0913,-0.0913,-0.0913,-0.0913,-0.0913,-0.0886,-0.1222,-0.2024,-0.2408,-0.2981,-0.3929,-0.4365,-0.4913,-0.5576,-0.5583,-0.5848,-0.6383,-0.6712,-0.7106,-0.7489,-0.7824,-0.8182,-0.8517,-0.8517,-0.8797,-0.93,-0.93,-0.9556,-1.0021,-1.0357,-1.0798,-1.1298,-1.1298,-1.1795,-1.2473,-1.2473,-1.2917,-1.348,0.0,0.0,0.0,0.0,0.0,0.0,0.0,0.0,0.0,0.0,0.0,0.0,0.0,0.0,0.0,0.0,0.0,0.0,0.0,0.0,0.0,0.0,0.0,0.0,0.0,0.0,0.9211,0.8787,0.7926,0.7788,0.0,0.0,0.0,0.8032,0.0,0.0,0.0,0.0,0.0,0.0,0.5342,0.4962,0.4882,0.0,0.0,0.0,0.0,0.0,0.0,0.0,0.0,0.0,0.297,0.0,0.2762,0.2172,0.225,0.2419,0.1874,0.1994,0.0,0.2437,0.0,0.0,0.0,0.3218,0.0,0.0,0.218,0.1264,0.0412,-0.0095,-0.05,-0.0872,-0.0927,-0.0913,-0.0902,-0.0905,-0.0911,-0.0911,-0.0911,-0.0911,-0.0911,-0.0902,-0.0986,-0.125,-0.1568,-0.2035,-0.2644,-0.3366,-0.397,-0.4456,-0.5219,-0.5683,-0.5848,-0.6317,-0.6712,-0.7073,-0.7456,-0.7954,-0.8517,-0.8517,-0.8582,-0.8732,-0.8732,-0.9022,-0.9556,-1.023,-1.0577,-1.0766,-1.1142,-1.1454,-1.1671,-1.1764,-1.1919,-1.2166,0.0,0.0,0.0,0.0,0.0,0.0,0.0,0.0,0.0,0.0,0.0,1.0216,0.0,0.0,0.0,0.0,0.0,0.0,0.0,0.0,0.0,0.0,0.0,0.0,0.0,1.0119,1.01,0.0,0.0,0.0,0.0,0.0,0.7971,0.8193,0.0,0.7498,0.7505,0.0,0.0,0.0,0.5217,0.4841,0.4766,0.0,0.0,0.0,0.0,0.0,0.0,0.0,0.0,0.0,0.3512,0.0,0.0,0.261,0.2607,0.2711,0.2046,0.2064,0.0,0.2365,0.2556,0.2746,0.2917,0.314,0.3213,0.2896,0.2275,0.154,0.0648,0.0216,-0.0214,-0.0799,-0.0914,-0.0903,-0.0901,-0.0897,-0.0897,-0.0897,-0.0897,-0.0897,-0.0897,-0.0897,-0.0902,-0.0886,-0.1224,-0.1561,-0.1878,-0.2642,-0.329,-0.3789,-0.4556,-0.5153,-0.5583,-0.5914,-0.635,-0.6918,-0.7138,-0.7629,-0.8312,-0.8452,-0.8517,-0.8517,-0.8517,-0.8668,-0.9022,-0.9524,-0.9767,-0.9862,-1.0243,-1.0591,-1.0923,-1.1062,-1.1267,-1.1547,0.0,0.0,0.963,0.9582,0.0,0.0,0.0,0.0,0.0,0.0,0.0,1.0294,0.0,0.0,0.0,1.0006,0.0,0.0,0.0,0.0,0.0,0.0,0.0,0.0,0.0,0.0,0.0,0.0,0.0,0.0,0.0,0.0,0.8342,0.8514,0.0,0.6924,0.7002,0.5818,0.0,0.5499,0.502,0.4739,0.4591,0.4584,0.0,0.0,0.0,0.0,0.0,0.0,0.0,0.0,0.3842,0.3861,0.385,0.3056,0.2858,0.2803,0.2299,0.2386,0.2576,0.2278,0.2412,0.2659,0.262,0.2564,0.2508,0.2472,0.2661,0.2411,0.0887,0.1037,0.0905,-0.0589,-0.0879,-0.0899,-0.0901,-0.0897,-0.0897,-0.0897,-0.0897,-0.0897,-0.0897,-0.0897,-0.0909,-0.0907,-0.1236,-0.148,-0.1593,-0.2183,-0.2799,-0.3405,-0.3751,-0.4422,-0.5451,-0.5517,-0.5947,-0.6778,-0.6811,-0.7204,-0.7922,-0.829,-0.8484,-0.8517,-0.8517,-0.8517,-0.8517,-0.8517,-0.8614,-0.8797,-0.8926,-0.946,-1.0212,-1.0351,-1.078,-1.1329,0.0,0.0,1.063,1.0207,0.0,0.0,0.0,0.0,1.0149,1.0149,1.0006,1.0026,1.0303,0.9869,0.0,0.9826,0.9904,0.0,0.0,0.0,0.0,0.0,0.0,0.0,0.0,0.0,0.0,0.0,0.0,0.0,0.0,0.0,0.0,0.7509,0.0,0.6976,0.0,0.0,0.598,0.5782,0.5302,0.4895,0.4597,0.449,0.4347,0.0,0.0,0.0,0.0,0.0,0.0,0.0,0.4072,0.4411,0.4624,0.3928,0.3682,0.3525,0.2823,0.2433,0.0,0.2147,0.2179,0.2323,0.2756,0.2441,0.2184,0.2702,0.2325,0.18,0.1429,0.0885,0.0285,-0.0255,-0.0652,-0.0905,-0.0898,-0.0897,-0.0897,-0.0897,-0.0897,-0.0897,-0.0897,-0.0897,-0.09,-0.0907,-0.0988,-0.1186,-0.1503,-0.1697,-0.213,-0.2756,-0.3317,-0.3856,-0.4328,-0.4749,-0.5279,-0.5881,-0.6145,-0.6572,-0.7171,-0.7824,-0.8247,-0.8517,-0.8517,-0.8517,-0.8517,-0.8517,-0.8517,-0.8582,-0.8765,-0.9022,-0.93,-0.9492,-0.9728,-1.0015,0.0,0.0,0.0,0.0,0.0,0.0,0.0,0.0,1.0678,1.0678,1.0528,1.0501,1.0665,1.0194,0.0,0.0,0.9972,0.9868,0.0,0.0,0.0,0.0,0.0,0.0,0.0,0.0,0.0,0.0,0.0,0.0,0.0,0.0,0.0,0.8081,0.0,0.7228,0.0,0.6557,0.6108,0.5769,0.5288,0.4793,0.4349,0.4277,0.4206,0.4104,0.4104,0.0,0.0,0.0,0.0,0.0,0.0,0.0,0.4842,0.4312,0.4233,0.4108,0.3162,0.0,0.0,0.2238,0.0,0.2174,0.2417,0.2164,0.2018,0.2477,0.232,0.2069,0.1846,0.1536,0.1004,0.014,-0.0168,-0.0421,-0.0841,-0.0841,-0.0841,-0.0897,-0.0897,-0.0897,-0.0897,-0.0897,-0.0897,-0.0897,-0.0912,-0.0985,-0.1207,-0.1427,-0.171,-0.2076,-0.2684,-0.3245,-0.3713,-0.4137,-0.4656,-0.5213,-0.5378,-0.5708,-0.6178,-0.7423,-0.8182,-0.8517,-0.8517,-0.8517,-0.8517,-0.8517,-0.8517,-0.8517,-0.8711,-0.8829,-0.8926,-0.9215,-0.9344,-0.9472,0.0,0.0,0.0,0.0,0.0,0.0,0.0,0.0,0.0,1.1247,1.1247,1.1215,1.1137,1.071,1.0349,0.0,0.0,0.0,0.9614,0.0,0.0,0.0,0.0,0.0,0.0,0.0,0.0,0.0,0.0,0.0,0.0,0.0,0.0,0.9076,0.0,0.0,0.0,0.6727,0.6188,0.576,0.5308,0.4786,0.4245,0.4106,0.4043,0.402,0.4099,0.4153,0.4214,0.4389,0.0,0.0,0.0,0.0,0.4816,0.4492,0.4536,0.4497,0.3523,0.0,0.2998,0.2336,0.2125,0.0,0.2062,0.197,0.1969,0.2226,0.2491,0.2579,0.2128,0.2237,0.1983,0.067,0.0364,0.0056,-0.0589,-0.0701,-0.0757,-0.0841,-0.0897,-0.0897,-0.0897,-0.0897,-0.0897,-0.0897,-0.0897,-0.0908,-0.0905,-0.1205,-0.1431,-0.1496,-0.209,-0.2682,-0.3253,-0.3575,-0.403,-0.4617,-0.474,-0.4943,-0.5337,-0.6874,-0.7759,-0.8084,-0.8247,-0.8312,-0.8344,-0.8452,-0.8517,-0.8517,-0.8679,-0.8776,-0.884,-0.9151,-0.9268,-0.93,0.0,0.0,0.0,0.0,0.0,0.0,0.0,0.0,0.0,0.0,1.1801,1.1645,1.1312,1.0553,0.9906,0.9491,0.9505,0.9466,0.0,0.0,0.0,0.0,0.0,0.0,0.0,0.0,0.0,0.0,0.0,0.0,0.0,0.0,0.0,0.9249,0.0,0.0,0.0,0.7126,0.6634,0.6188,0.5782,0.5306,0.4811,0.418,0.3994,0.4069,0.3917,0.3998,0.42,0.424,0.4362,0.0,0.0,0.0,0.4746,0.4788,0.4592,0.4364,0.4324,0.0,0.2881,0.0,0.2062,0.2062,0.2235,0.2023,0.1976,0.2527,0.2663,0.2607,0.224,0.2125,0.193,0.1481,0.056,-0.0028,0.0196,-0.0421,-0.0841,-0.0729,-0.0841,-0.0897,-0.0897,-0.0897,-0.0897,-0.0897,-0.0897,-0.09,-0.0904,-0.0957,-0.1151,-0.1482,-0.1854,-0.2253,-0.2606,-0.2942,-0.3378,-0.3949,-0.4469,-0.49,-0.5212,-0.5708,-0.6112,-0.6474,-0.7293,-0.7619,-0.7684,-0.8247,-0.8517,-0.8517,-0.8517,-0.8646,-0.8829,-0.899,-0.9139,-0.9276,0.0,0.0,0.0,0.0,0.0,0.0,0.0,0.0,0.0,0.0,0.0,1.2132,1.1535,1.0776,1.0191,0.9794,0.9459,0.0,0.0,0.0,0.0,0.0,0.0,0.0,0.0,0.0,0.0,0.0,0.0,0.0,0.0,1.0884,1.0361,0.0,0.0,0.0,0.0,0.0,0.6916,0.6295,0.6103,0.5681,0.5107,0.4599,0.4336,0.4197,0.3991,0.3952,0.3991,0.414,0.4267,0.4355,0.4464,0.0,0.0,0.0,0.4904,0.4809,0.4339,0.3622,0.2878,0.0,0.2076,0.2026,0.2122,0.1951,0.188,0.2132,0.2327,0.2436,0.2464,0.2436,0.2212,0.1679,0.1343,0.0924,0.028,0.0084,-0.014,-0.0477,-0.0673,-0.0785,-0.0785,-0.0785,-0.0813,-0.0897,-0.0841,-0.0813,-0.0897,-0.0911,-0.0975,-0.1147,-0.1626,-0.1977,-0.2161,-0.2643,-0.3058,-0.335,-0.3613,-0.3856,-0.4046,-0.4261,-0.5009,-0.6145,-0.6662,-0.6892,-0.6892,-0.7195,-0.7326,-0.7358,-0.7782,-0.7987,-0.8149,-0.87,-0.899,-0.9128,0.0,0.0,0.0,0.0,0.0,0.0,0.0,0.0,0.0,0.0,0.0,1.2436,1.1814,0.0,0.0,0.0,0.9592,0.0,0.0,0.0,0.0,0.0,0.0,0.0,0.0,0.0,0.0,0.0,0.0,0.0,1.1606,1.1475,1.1027,0.0,0.9496,0.8703,0.0,0.0,0.7181,0.6597,0.655,0.6224,0.5736,0.5321,0.5,0.4712,0.428,0.408,0.4045,0.4159,0.4194,0.4214,0.4375,0.4463,0.0,0.0,0.0,0.0,0.0,0.0,0.333,0.2836,0.2478,0.2271,0.2253,0.2039,0.1817,0.1817,0.1973,0.2184,0.2411,0.2523,0.238,0.1846,0.1846,0.1597,0.07,0.0672,0.0533,-0.0056,-0.0224,-0.0364,-0.0505,-0.0533,-0.0533,-0.0561,-0.0645,-0.0701,-0.0729,-0.0841,-0.0897,-0.0897,-0.1315,-0.1642,-0.1887,-0.247,-0.2826,-0.2917,-0.2941,-0.2987,-0.3026,-0.324,-0.4083,-0.5398,-0.5824,-0.6042,-0.6099,-0.6254,-0.6326,-0.6392,-0.6951,-0.7182,-0.7293,-0.8009,-0.8431,-0.8667,0.0,0.0,0.0,0.0,0.0,0.0,0.0,0.0,0.0,0.0,0.0,1.2526,1.2121,1.1647,1.0972,1.0083,0.9918,0.0,0.0,0.0,0.0,0.0,0.0,0.0,0.0,0.0,0.0,0.0,0.0,0.0,1.1584,1.1082,1.0871,1.0939,1.0628,0.966,0.825,0.0,0.758,0.7424,0.7236,0.7122,0.7037,0.6368,0.6125,0.5963,0.4872,0.4547,0.4607,0.4294,0.4194,0.42,0.4207,0.4132,0.4095,0.0,0.0,0.0,0.0,0.4644,0.0,0.4209,0.3567,0.3027,0.2973,0.24,0.1907,0.1907,0.1862,0.1824,0.1852,0.2045,0.2212,0.2184,0.1597,0.1373,0.1989,0.1399,0.0838,0.0673,0.0756,0.0587,0.0028,-0.0028,0.0056,0.0308,-0.0308,-0.0561,-0.0252,-0.0645,-0.0897,-0.0897,-0.0813,-0.1093,-0.1796,-0.2415,-0.2699,-0.2707,-0.2793,-0.2808,-0.2816,-0.3079,-0.3272,-0.3404,-0.4508,-0.5078,-0.5294,-0.5816,-0.6086,-0.6203,-0.6266,-0.6342,-0.6498,-0.6719,-0.7209,-0.7745,0.0,0.0,0.0,0.0,0.0,0.0,0.0,0.0,0.0,0.0,0.0,0.0,0.0,1.1822,1.126,1.0621,1.0097,0.0,0.0,0.0,0.0,0.0,0.0,0.0,0.0,0.0,0.0,0.0,0.0,1.0586,1.1152,1.1253,1.1183,1.0906,1.0434,0.9587,0.8473,0.8242,0.7997,0.7766,0.7926,0.7923,0.7812,0.753,0.734,0.7074,0.5973,0.5419,0.5147,0.4673,0.4381,0.4194,0.4194,0.416,0.4178,0.4435,0.4778,0.5005,0.0,0.0,0.0,0.415,0.383,0.3508,0.316,0.2818,0.2467,0.2006,0.1893,0.1839,0.1804,0.188,0.1936,0.1936,0.2048,0.2073,0.1958,0.2011,0.1899,0.1455,0.1174,0.095,0.0727,0.056,0.0449,0.0393,0.028,0.0196,0.0196,0.0028,-0.0056,-0.0056,-0.0196,-0.0532,-0.109,-0.1313,-0.1651,-0.2128,-0.2154,-0.2395,-0.28,-0.2888,-0.3024,-0.3232,-0.3686,-0.4016,-0.4269,-0.4528,-0.4694,-0.477,-0.5339,-0.5577,-0.57,-0.6286,-0.6683,-0.6944,0.0,0.0,0.0,1.3023,0.0,1.2709,1.2709,1.2709,1.2709,1.2709,0.0,0.0,0.0,0.0,1.1505,1.0869,1.0137,0.9703,0.9703,0.0,0.0,0.0,0.0,0.0,0.0,0.0,0.0,0.0,0.0,0.0,0.0,1.1232,1.1187,1.0853,1.0395,0.9739,0.0,0.8664,0.838,0.8158,0.8536,0.8631,0.8549,0.8551,0.8475,0.8229,0.7194,0.6454,0.5934,0.547,0.4927,0.4454,0.4401,0.4287,0.422,0.4351,0.4697,0.4969,0.4668,0.0,0.0,0.4765,0.4521,0.4241,0.395,0.3443,0.2888,0.2407,0.2089,0.1898,0.1831,0.1809,0.1798,0.1798,0.2132,0.23,0.1986,0.2293,0.2376,0.1986,0.1651,0.1481,0.1481,0.1121,0.0925,0.1009,0.0813,0.0673,0.0645,0.0477,0.0477,0.0617,0.0224,-0.0112,-0.0335,-0.0587,-0.0978,-0.1509,-0.1509,-0.1727,-0.2171,-0.2373,-0.2576,-0.2743,-0.3038,-0.3358,-0.3635,-0.3811,-0.3871,-0.3917,-0.4535,-0.4804,-0.4887,-0.5431,-0.5821,-0.6069,1.418,1.3867,1.3553,1.3529,1.3095,1.2716,1.2716,1.2709,1.2709,1.2716,0.0,0.0,0.0,0.0,0.0,1.0678,1.0039,0.9703,0.9703,0.9703,0.0,0.0,0.0,0.0,0.0,0.0,0.0,0.0,0.0,0.0,0.0,0.0,1.0879,1.0798,1.0664,1.0309,0.9777,0.9082,0.8738,0.8671,0.9032,0.9217,0.924,0.9439,0.9512,0.9392,0.8414,0.7612,0.7022,0.6675,0.5876,0.4994,0.4774,0.4476,0.4194,0.4194,0.4536,0.4934,0.0,0.0,0.0,0.6073,0.5651,0.5155,0.5337,0.4219,0.3151,0.3123,0.2489,0.1912,0.1912,0.1839,0.1801,0.1801,0.1798,0.1908,0.2156,0.2212,0.2212,0.2212,0.2212,0.2212,0.2212,0.1653,0.1569,0.2156,0.1289,0.0841,0.1095,0.0701,0.0645,0.1095,0.0421,0.0168,0.0421,-0.028,-0.0727,-0.0866,-0.0866,-0.0894,-0.0922,-0.1509,-0.1762,-0.1818,-0.2523,-0.3081,-0.3494,-0.3693,-0.3775,-0.3791,-0.3882,-0.397,-0.4078,-0.4078,-0.4556,-0.5132,1.377,1.4189,1.4478,1.4132,1.3626,1.3288,1.3288,1.295,1.2854,0.0,0.0,0.0,1.2685,1.1686,1.085,1.0409,0.9961,0.9703,0.9703,0.9703,0.9703,0.9703,0.9703,0.9967,0.0,0.0,0.0,0.0,0.0,0.0,0.0,0.0,1.0893,1.0862,1.0776,1.0466,0.9968,0.9087,0.8905,0.918,0.8965,0.9284,0.987,0.9927,1.0087,1.0193,0.9376,0.8814,0.8365,0.7778,0.691,0.5918,0.4979,0.4476,0.4194,0.4194,0.4462,0.4774,0.4929,0.0,0.0,0.0,0.0,0.0,0.5223,0.4728,0.4094,0.3266,0.2841,0.2491,0.2067,0.1965,0.194,0.1893,0.1994,0.2128,0.2184,0.2408,0.2551,0.2551,0.2352,0.2212,0.2212,0.188,0.174,0.1908,0.1656,0.1515,0.16,0.1487,0.1459,0.16,0.1403,0.1291,0.1263,0.0925,0.0448,-0.0112,-0.0196,-0.0476,-0.0894,-0.1062,-0.1146,-0.1174,-0.1453,-0.197,-0.261,-0.326,-0.3575,-0.3671,-0.3786,-0.3857,-0.3895,-0.3922,-0.4053,-0.4207,1.4189,1.4602,1.4917,1.4646,1.4161,1.3819,1.3819,1.3577,1.3481,0.0,0.0,0.0,1.3232,1.2054,1.1125,1.0805,1.0326,0.9947,0.9721,0.9703,0.9703,0.9703,0.9703,1.0021,1.0704,1.0639,0.0,0.0,0.0,0.0,0.0,1.0527,1.0645,1.0644,1.0609,1.0526,1.0328,0.9426,0.907,0.9124,0.9221,0.9529,0.9967,1.0207,1.0439,1.0523,1.0098,0.9649,0.9158,0.8751,0.7788,0.6557,0.5686,0.5078,0.4671,0.4456,0.4635,0.4896,0.4896,0.5065,0.528,0.5531,0.0,0.0,0.5489,0.5092,0.4597,0.3933,0.3325,0.2791,0.2447,0.2175,0.199,0.1954,0.2039,0.211,0.2054,0.2216,0.2355,0.2464,0.2212,0.2128,0.238,0.2048,0.1852,0.1964,0.1852,0.1798,0.1798,0.1798,0.1798,0.1798,0.1798,0.174,0.16,0.1487,0.1151,0.0561,0.0505,0.0252,-0.0168,-0.0419,-0.0532,-0.0532,-0.0866,-0.1285,-0.179,-0.232,-0.2938,-0.3621,-0.3736,-0.3809,-0.3791,-0.3833,-0.3846,-0.3809,0.0,1.5061,1.5085,1.5085,1.4694,1.4373,1.4373,1.4325,1.4301,0.0,1.4333,1.4153,1.3661,1.2764,1.1963,1.1429,1.0871,1.0324,0.9795,0.9758,0.9758,0.9703,0.9703,1.0052,1.0849,1.0747,1.0851,1.1208,1.1045,1.0762,1.0371,1.0332,1.0293,1.0293,1.0293,1.0439,1.0611,0.9866,0.9267,0.8869,0.9535,0.9778,0.9793,1.0345,1.0559,1.0586,1.0586,1.0161,0.962,0.9512,0.8492,0.714,0.6621,0.6032,0.5434,0.494,0.4983,0.518,0.5013,0.5188,0.5422,0.5516,0.5683,0.0,0.581,0.53,0.4829,0.4775,0.3831,0.2999,0.2879,0.2485,0.2133,0.2057,0.2065,0.2003,0.1831,0.1817,0.19,0.2151,0.1956,0.2041,0.2578,0.212,0.1919,0.2138,0.1939,0.1798,0.1798,0.1798,0.1798,0.1798,0.1798,0.174,0.1628,0.16,0.1431,0.1123,0.1095,0.1037,0.0869,0.0336,0.0112,0.0056,-0.0475,-0.081,-0.1006,-0.1146,-0.2097,-0.3482,-0.3634,-0.3706,-0.3764,-0.3764,-0.3764,-0.3764,1.5013,1.5348,1.5636,1.5636,1.5205,1.4845,1.4845,1.4546,1.4446,1.4818,1.4594,1.4061,1.3235,1.2483,1.1828,1.1274,1.0969,1.0646,1.0199,1.018,1.0033,0.9721,0.9703,0.9984,1.0571,1.0943,1.1223,1.1365,1.1421,1.1232,1.0781,1.0449,0.0,1.0293,1.0293,1.0135,0.9824,0.9883,0.9724,0.9417,0.9376,0.9617,1.0047,1.0154,1.0385,1.0586,1.0586,1.0491,1.0301,0.9716,0.9092,0.8396,0.7265,0.6602,0.6164,0.5471,0.5299,0.5352,0.5329,0.5359,0.5359,0.5225,0.5359,0.0,0.5358,0.5188,0.4928,0.4559,0.4151,0.3585,0.266,0.29,0.304,0.2479,0.2441,0.2365,0.2009,0.1968,0.1968,0.2028,0.1998,0.1998,0.2119,0.1982,0.1893,0.1951,0.1851,0.1798,0.1798,0.1798,0.1798,0.1798,0.1798,0.1798,0.1768,0.1656,0.1487,0.1263,0.1151,0.1037,0.0897,0.0785,0.0729,0.0729,0.0589,0.0196,-0.0391,-0.0532,-0.1427,-0.2738,-0.2867,-0.3217,-0.3643,-0.3643,-0.3643,-0.3643,1.5396,1.5612,1.5804,1.5804,1.5564,1.5396,1.5396,1.5202,1.5223,1.5732,1.5589,1.5152,1.4441,1.3603,1.2888,1.2345,1.1738,1.1206,1.073,1.0444,1.0199,0.9997,0.9813,1.004,1.0779,1.1138,1.1436,1.1714,1.1616,1.1349,1.0898,1.0488,1.041,1.0605,1.0605,1.0717,1.0887,1.0831,1.0754,1.0631,0.9926,0.9897,1.0262,1.0305,1.0466,1.0573,1.0425,1.0341,1.0323,1.0123,0.9693,0.9107,0.839,0.785,0.7314,0.6324,0.612,0.6102,0.5678,0.5554,0.5532,0.5381,0.5425,0.0,0.0,0.5122,0.5016,0.48,0.4418,0.3942,0.3441,0.3116,0.2838,0.2508,0.225,0.2134,0.2197,0.1911,0.1727,0.1847,0.1847,0.188,0.2004,0.1973,0.1943,0.1912,0.2203,0.2224,0.1826,0.1798,0.1798,0.1798,0.1798,0.1798,0.1798,0.174,0.1572,0.1291,0.1235,0.1095,0.0897,0.0897,0.0897,0.0897,0.0897,0.0701,0.0336,0.0196,-0.0476,-0.1509,-0.2038,-0.2432,-0.2742,-0.3049,-0.316,-0.3188,1.5804,1.5804,1.5804,1.5804,1.5876,1.5948,1.5948,1.602,1.6259,1.6691,1.6617,1.6316,1.5785,1.4882,1.4088,1.3569,1.2696,1.1959,1.1405,1.0934,1.061,1.0462,1.0074,1.019,1.0926,1.1098,1.1395,1.188,1.1594,1.133,1.1016,1.0547,1.0508,1.0918,1.0918,1.1385,1.2161,1.1746,1.1673,1.1797,1.0751,1.0334,1.0398,1.0428,1.0456,1.0385,1.0114,1.0074,1.0154,1.0425,1.0154,0.9679,0.9414,0.9029,0.8473,0.7379,0.7069,0.6926,0.6189,0.591,0.5743,0.5611,0.5569,0.5501,0.0,0.0,0.0,0.4986,0.454,0.417,0.4176,0.3456,0.2802,0.2696,0.2309,0.2154,0.2472,0.1922,0.1588,0.1865,0.1904,0.1974,0.2224,0.2212,0.2179,0.211,0.2536,0.2499,0.1843,0.1914,0.1964,0.1964,0.1964,0.1964,0.1964,0.1852,0.1628,0.1291,0.1291,0.1151,0.0897,0.0897,0.0897,0.0897,0.0897,0.0897,0.0897,0.0757,0.0336,-0.028,-0.1231,-0.1679,-0.1846,-0.2348,-0.2516,-0.2627,1.5804,1.5804,1.5804,1.5804,1.6211,1.6523,1.6523,1.6907,1.7243,1.7291,1.685,1.6327,1.5832,1.5116,1.4445,1.3977,1.3567,1.3051,1.2385,1.217,1.1743,1.1041,1.0629,1.0398,1.0407,1.0578,1.0913,1.1376,1.1107,1.1173,1.1508,1.0684,1.0508,1.0918,1.0918,1.1385,1.218,1.1635,1.1701,1.209,1.1383,1.0755,1.0298,1.0064,0.9897,0.9809,0.974,0.99,1.0127,1.0123,1.031,1.0364,0.9679,0.9436,0.9244,0.8516,0.7884,0.7386,0.7117,0.6604,0.6017,0.5552,0.5521,0.5442,0.4869,0.0,0.4843,0.4621,0.0,0.4294,0.3772,0.0,0.0,0.3716,0.3599,0.3395,0.2979,0.2299,0.202,0.2528,0.2589,0.2725,0.302,0.3022,0.2943,0.2883,0.2357,0.1995,0.1901,0.2331,0.2599,0.2599,0.2599,0.2599,0.2599,0.2076,0.1628,0.1291,0.1291,0.1151,0.0897,0.0897,0.0897,0.0897,0.0897,0.0897,0.0897,0.0757,0.0645,0.0477,-0.0449,-0.1231,-0.1818,-0.1874,-0.1902,-0.1986,1.5804,1.6066,1.6187,1.5852,1.6499,1.6955,1.6643,1.7315,1.7748,1.7435,1.7412,1.7227,1.6725,1.5839,1.5198,1.4982,1.427,1.3685,1.3374,1.3023,1.2663,1.2329,1.1666,1.1438,1.1685,1.1277,1.1464,1.2231,1.1619,1.1408,0.0,0.0,1.1134,1.133,1.1816,1.2402,1.2964,1.2972,1.2964,1.2929,1.2552,1.1923,1.1101,1.0451,0.9872,0.9446,0.9619,0.9646,0.9604,0.9806,1.006,1.027,0.9947,0.997,1.0002,0.93,0.8871,0.8549,0.8096,0.7665,0.7223,0.6602,0.6238,0.5879,0.5148,0.4892,0.4748,0.4648,0.0,0.0,0.0,0.0,0.0,0.0,0.3396,0.3209,0.3324,0.2825,0.2286,0.1939,0.1901,0.215,0.285,0.3713,0.4067,0.3542,0.3742,0.3625,0.3026,0.3213,0.3303,0.3239,0.3206,0.304,0.2706,0.246,0.1989,0.1291,0.1291,0.1151,0.0897,0.0897,0.0897,0.0897,0.0897,0.0897,0.0897,0.0841,0.0757,0.0645,0.014,-0.0308,-0.07,-0.1121,-0.1289,-0.1373,1.6259,1.6331,1.6307,1.6044,1.6787,1.7363,1.7267,1.7917,1.8277,1.7893,1.7999,1.7955,1.7561,1.6526,1.5842,1.5842,1.4917,1.4289,1.4227,1.383,1.3521,1.3406,1.2698,1.2392,1.2652,1.1945,1.196,1.2671,1.1956,1.1665,0.0,0.0,1.1643,1.18,1.2563,1.3184,1.3665,1.3977,1.3968,1.375,1.3515,1.2824,1.18,1.066,0.9769,0.9179,0.9365,0.9352,0.9244,0.9486,0.9753,1.0007,1.0087,1.0261,1.0385,0.9913,0.9652,0.9384,0.8903,0.8549,0.8118,0.7372,0.6915,0.6369,0.541,0.5037,0.4848,0.4737,0.4662,0.0,0.0,0.0,0.3942,0.3907,0.0,0.3343,0.3575,0.327,0.2695,0.1859,0.1898,0.2318,0.3155,0.4356,0.4851,0.4267,0.4708,0.469,0.395,0.3989,0.4001,0.3901,0.3866,0.3627,0.3206,0.304,0.2571,0.1793,0.1625,0.1401,0.1149,0.0981,0.0897,0.0897,0.0897,0.0897,0.0897,0.0897,0.0841,0.0729,0.0561,0.0393,0.0168,-0.0421,-0.0645,-0.0729,1.7339,1.6523,1.5972,1.6499,1.7027,1.7748,1.8758,1.8951,1.8951,1.8951,1.8471,1.8093,1.807,1.7002,1.6291,1.6291,1.5594,1.5061,1.4785,1.4634,1.4385,1.398,1.351,1.303,1.2505,1.2234,1.2092,1.2134,1.1777,1.18,0.0,0.0,0.0,0.0,1.2676,1.334,1.4094,1.4094,1.4249,1.4436,1.3964,1.3123,1.2024,1.0435,0.9475,0.9002,0.8884,0.8978,0.9217,0.9217,0.9446,0.974,1.002,1.0127,1.018,1.0474,1.0066,0.948,0.9492,0.9,0.8291,0.7405,0.7177,0.6842,0.5502,0.5299,0.5258,0.4807,0.4802,0.4874,0.4881,0.4881,0.4827,0.4678,0.4658,0.0,0.0,0.3576,0.3416,0.2983,0.3406,0.3923,0.4489,0.4888,0.5087,0.5047,0.4564,0.4232,0.4189,0.4501,0.4674,0.4667,0.4531,0.4463,0.4436,0.3876,0.3405,0.3049,0.2464,0.2041,0.1762,0.1177,0.0897,0.0897,0.0897,0.0897,0.0897,0.0897,0.0897,0.0869,0.0757,0.0561,0.0364,0.0084,-0.0028,-0.0112,1.7387,1.7099,1.6907,1.7099,1.7869,1.859,1.8927,1.8999,1.9119,1.9483,1.934,1.9373,1.9728,1.8664,1.79,1.79,1.6617,1.5771,1.5674,1.5323,1.5079,1.4943,1.4515,1.4196,1.4034,1.3361,1.3017,1.3017,1.2637,1.2363,0.0,0.0,0.0,0.0,1.3237,1.3841,1.4133,1.4718,1.4867,1.4611,1.3895,1.3337,1.277,1.1197,1.0141,0.951,0.9484,0.9228,0.8924,0.8924,0.9124,0.9377,0.9484,0.9644,0.9846,0.9983,0.983,0.9637,0.9637,0.9457,0.9162,0.859,0.8163,0.7547,0.6323,0.5763,0.5316,0.4803,0.4728,0.4802,0.4867,0.4887,0.4874,0.485,0.4755,0.46,0.0,0.3897,0.3563,0.3421,0.3742,0.4099,0.4384,0.502,0.5484,0.5624,0.5567,0.5521,0.5516,0.5495,0.5439,0.5295,0.5134,0.4857,0.4491,0.4153,0.3683,0.3105,0.2794,0.2348,0.179,0.1595,0.1289,0.0897,0.0897,0.0897,0.0897,0.0897,0.0897,0.0897,0.0757,0.0589,0.0364,0.0196,0.0084,-0.0084,1.7965,1.7965,1.7917,1.7724,1.8422,1.8999,1.8999,1.9143,1.9411,1.9748,1.9741,1.9809,2.0187,1.9067,1.8312,1.8312,1.7093,1.6261,1.6105,1.5831,1.5566,1.541,1.5156,1.4941,1.4785,1.4238,1.3887,1.3704,1.3301,1.3027,0.0,0.0,0.0,0.0,1.3685,1.4114,1.4172,1.5011,1.5254,1.4941,1.4238,1.3907,1.3688,1.2407,1.1184,1.0218,1.0115,0.9692,0.9133,0.9106,0.9085,0.9071,0.9178,0.9351,0.9552,0.9659,0.9715,0.9715,0.9715,0.9715,0.958,0.9065,0.8639,0.8092,0.7101,0.6379,0.5801,0.5401,0.515,0.5016,0.4979,0.5037,0.5026,0.4863,0.4802,0.4735,0.0,0.4235,0.3932,0.3978,0.4055,0.4137,0.4213,0.512,0.5716,0.5789,0.6046,0.6196,0.6213,0.5956,0.5771,0.5709,0.5454,0.5132,0.4794,0.4594,0.4263,0.3738,0.3378,0.2933,0.2432,0.1986,0.1595,0.1205,0.0981,0.0897,0.0897,0.0897,0.0897,0.0897,0.0813,0.0617,0.0393,0.0252,0.0112,-0.0056,1.8999,1.9023,1.8879,1.8374,1.8686,1.8999,1.9049,1.9483,1.982,1.9844,1.9703,1.9618,1.9641,1.8529,1.7761,1.775,1.7136,1.6613,1.6183,1.6144,1.5928,1.5469,1.5449,1.5254,1.4852,1.4833,1.4609,1.4133,1.3743,1.3743,0.0,0.0,0.0,0.0,1.3938,1.4114,1.4192,1.503,1.541,1.5342,1.4961,1.4813,1.4687,1.3828,1.2517,1.1099,1.0754,1.0269,0.9795,0.9614,0.9237,0.8858,0.9098,0.9191,0.9244,0.9552,0.9675,0.9675,0.9675,0.9675,0.9501,0.8791,0.8615,0.8428,0.7793,0.7168,0.6692,0.6461,0.6029,0.556,0.5211,0.5315,0.5274,0.4819,0.4843,0.4823,0.4545,0.4498,0.4552,0.4674,0.4357,0.4131,0.4136,0.5192,0.5782,0.5617,0.5947,0.6178,0.6178,0.5825,0.5707,0.5888,0.5519,0.5305,0.5297,0.5152,0.5014,0.4869,0.4181,0.3738,0.3572,0.24,0.1874,0.1818,0.1205,0.0953,0.0953,0.0925,0.0897,0.0897,0.0897,0.0701,0.0393,0.0252,0.0112,0.0,1.8999,1.9338,1.9555,1.9408,1.9167,1.9119,1.9528,1.9724,1.9941,2.035,2.0705,2.1063,2.1443,2.0725,2.0011,1.9501,1.8531,1.7728,1.7115,1.6738,1.6367,1.5948,1.5928,1.5713,1.5254,1.5254,1.5039,1.4609,1.4512,1.4336,1.4094,0.0,0.0,0.0,1.4055,1.4289,1.4648,1.5195,1.541,1.5342,1.4961,1.4813,1.4687,1.3828,1.3215,1.2681,1.1369,1.0423,0.9744,0.9316,0.9015,0.8818,0.8898,0.8898,0.8911,0.9005,0.9031,0.9031,0.9031,0.9031,0.903,0.9047,0.8916,0.8608,0.8164,0.774,0.7319,0.6855,0.6672,0.6425,0.5995,0.5951,0.5822,0.5317,0.5128,0.4941,0.4674,0.4662,0.4646,0.4687,0.4706,0.4733,0.4829,0.513,0.5398,0.5576,0.5683,0.5815,0.5954,0.5886,0.5771,0.5669,0.5574,0.5398,0.516,0.5014,0.4877,0.4739,0.4463,0.407,0.3599,0.3294,0.2901,0.2432,0.1818,0.1567,0.1539,0.1093,0.0897,0.0897,0.0897,0.0701,0.0364,0.014,0.0028,0.0,1.9336,1.9961,2.049,2.049,2.0442,2.0418,2.049,2.0298,2.0322,2.0904,2.0681,2.0596,2.0904,2.0222,1.9606,1.921,1.8606,1.7988,1.7435,1.7148,1.6816,1.6367,1.6348,1.6152,1.5703,1.5703,1.5488,1.5059,1.4883,1.4746,1.466,0.0,0.0,0.0,1.4414,1.4551,1.4833,1.5234,1.541,1.5391,1.5156,1.5059,0.0,1.4075,1.3763,1.3562,1.2023,1.1133,1.0559,0.9909,0.9484,0.9185,0.8883,0.8804,0.8804,0.8804,0.8804,0.8804,0.8804,0.8804,0.8844,0.8978,0.8898,0.8778,0.8669,0.8275,0.7846,0.7611,0.7294,0.6944,0.6563,0.6336,0.6006,0.5373,0.5135,0.4928,0.4721,0.4694,0.4667,0.4627,0.4728,0.485,0.4931,0.5123,0.5265,0.538,0.5452,0.5578,0.5749,0.5764,0.5724,0.5608,0.5584,0.5438,0.5097,0.4959,0.4849,0.4691,0.4574,0.4325,0.3987,0.371,0.3405,0.3067,0.246,0.2041,0.1762,0.1427,0.1149,0.0897,0.0841,0.0701,0.0505,0.0196,0.0056,0.0,2.0013,2.0875,2.1596,2.1524,2.2005,2.227,2.1885,2.1308,2.1038,2.1332,2.0409,1.9647,1.9421,1.8779,1.8305,1.8144,1.8144,1.7953,1.7513,1.7461,1.7266,1.6804,1.6785,1.6602,1.6183,1.6124,1.5909,1.5488,1.5078,1.5059,1.5391,0.0,0.0,0.0,0.0,1.4833,1.4883,1.5254,1.541,1.541,1.541,1.541,1.5332,1.4504,1.4153,1.3944,1.272,1.206,1.169,1.0914,1.0269,0.9692,0.9106,0.8883,0.8804,0.8804,0.8804,0.8804,0.8804,0.8804,0.8804,0.8804,0.8804,0.8871,0.9098,0.8709,0.8308,0.842,0.7937,0.7415,0.71,0.6641,0.6131,0.5501,0.5213,0.5012,0.4888,0.4822,0.4723,0.4566,0.4682,0.0,0.4694,0.5119,0.5294,0.5096,0.5283,0.5449,0.5576,0.5585,0.5583,0.5578,0.5579,0.5433,0.5069,0.4952,0.4822,0.4664,0.4546,0.4491,0.4491,0.3959,0.371,0.3683,0.3072,0.2512,0.2041,0.1958,0.1567,0.1009,0.0813,0.0729,0.0673,0.0364,0.0168,0.0028,2.1115,2.1981,2.2558,2.2125,2.2847,2.3616,2.3929,2.3183,2.2249,2.1275,2.1655,2.1497,2.0085,2.0137,1.9843,1.8918,1.8811,1.8556,1.7944,1.7891,1.7715,1.7285,1.7266,1.707,1.659,1.6281,1.6065,1.5987,1.5508,1.5332,1.5391,1.4902,1.4902,1.5293,1.4941,1.498,1.5312,1.5391,1.541,1.541,1.541,1.541,1.5352,1.4863,1.4453,1.4036,1.3471,1.2626,1.1715,1.1141,1.0448,0.9795,0.9666,0.9237,0.8804,0.8804,0.8804,0.8804,0.8804,0.8804,0.8804,0.8804,0.8804,0.8818,0.8871,0.8778,0.8698,0.8725,0.8617,0.8356,0.7833,0.7293,0.6957,0.7066,0.6443,0.5933,0.5787,0.5502,0.5161,0.4857,0.5095,0.5119,0.4743,0.4958,0.5128,0.5096,0.5283,0.5397,0.5425,0.5529,0.5542,0.5442,0.5547,0.5378,0.4932,0.4897,0.4787,0.4546,0.4519,0.4491,0.4491,0.438,0.4353,0.4325,0.371,0.3372,0.3239,0.2734,0.2181,0.1595,0.1065,0.0785,0.0701,0.0645,0.0421,0.014,2.2582,2.3071,2.3336,2.3095,2.364,2.4242,2.4482,2.4338,2.3805,2.2666,2.2343,2.1766,2.0544,2.0295,1.9829,1.8871,1.8582,1.8327,1.8008,1.8008,1.791,1.7715,1.7715,1.7519,1.709,1.6855,1.6555,1.6085,1.587,1.5625,1.541,1.5215,1.5215,1.5391,1.5195,1.5215,1.543,1.5644,1.5625,1.543,1.5664,1.5605,1.5371,1.4941,1.4648,1.4414,1.3958,1.3304,1.2551,1.1712,1.1166,1.0762,1.0346,0.9821,0.9316,0.9237,0.9001,0.8804,0.8804,0.8804,0.8804,0.8804,0.8804,0.8804,0.8804,0.8804,0.8804,0.8804,0.8804,0.8618,0.8018,0.7515,0.721,0.7289,0.675,0.644,0.6641,0.6219,0.5816,0.5737,0.5631,0.5361,0.4889,0.5112,0.5196,0.4995,0.5182,0.5324,0.5385,0.5624,0.5603,0.5259,0.5396,0.5269,0.4794,0.4794,0.4684,0.4491,0.4491,0.4491,0.4491,0.4491,0.4491,0.4491,0.4181,0.3876,0.3544,0.2956,0.2543,0.2209,0.1595,0.1317,0.1231,0.0841,0.0533,0.028,2.389,2.4059,2.4083,2.3986,2.4362,2.4675,2.4675,2.5035,2.4917,2.3881,2.2918,2.2003,2.1004,2.0471,1.9831,1.8914,1.8449,1.8144,1.8008,1.8008,1.8008,1.8008,1.8008,1.7852,1.7519,1.7422,1.7083,1.6378,1.6183,1.5909,1.5547,1.5449,1.5449,1.5547,1.5547,1.5605,1.5693,1.6055,1.5957,1.5586,1.5948,1.5831,1.5371,1.5039,1.4863,1.4746,1.4367,1.3977,1.3471,1.26,1.2084,1.169,1.104,1.0448,0.9935,0.9847,0.9406,0.8989,0.8989,0.8883,0.8804,0.8804,0.8804,0.8804,0.8804,0.8804,0.8804,0.8804,0.8804,0.8671,0.8241,0.7869,0.7605,0.7541,0.714,0.6946,0.7357,0.6832,0.644,0.6568,0.6072,0.5663,0.5463,0.5351,0.5268,0.5211,0.5204,0.5217,0.533,0.5642,0.561,0.5161,0.5275,0.5174,0.4797,0.4733,0.4629,0.4491,0.4491,0.4491,0.4491,0.4491,0.4491,0.4491,0.4491,0.4236,0.3738,0.3151,0.2901,0.2822,0.2237,0.1986,0.1902,0.1203,0.0813,0.0617,2.4434,2.4843,2.5011,2.453,2.4891,2.5228,2.5228,2.5276,2.4873,2.3677,2.3743,2.3309,2.1768,2.145,2.0895,1.9782,1.9212,1.8664,1.8042,1.8008,1.8008,1.8008,1.8008,1.7988,1.7949,1.7578,1.7376,1.7298,1.6476,1.6065,1.6026,1.5586,1.5625,1.6026,1.6026,1.623,1.659,1.6629,1.6406,1.6026,1.6065,1.5831,1.541,1.5371,1.5117,1.4785,1.4746,1.4453,1.4036,1.3917,1.2945,1.1789,1.1715,1.1166,1.0509,1.0509,1.0038,0.951,0.951,0.9159,0.8804,0.8804,0.8804,0.8804,0.8804,0.8804,0.8804,0.8804,0.8804,0.8871,0.9041,0.8855,0.8722,0.8955,0.8321,0.7784,0.7847,0.716,0.6721,0.6846,0.6293,0.6156,0.6845,0.5731,0.5314,0.6185,0.5549,0.5121,0.5117,0.5317,0.5417,0.5381,0.5214,0.5128,0.5164,0.4846,0.4629,0.4491,0.4491,0.4491,0.4491,0.4491,0.4491,0.4491,0.4491,0.4463,0.438,0.3766,0.3516,0.3461,0.2845,0.2623,0.2543,0.193,0.1595,0.1399,2.4987,2.4915,2.4867,2.4987,2.4915,2.4939,2.5252,2.53,2.5122,2.4661,2.4732,2.4365,2.3238,2.2873,2.2211,2.093,2.0715,2.016,1.9069,1.9312,1.9279,1.8805,1.8769,1.8652,1.8364,1.8188,1.7891,1.7383,1.7063,1.675,1.6465,1.6258,1.6258,1.6465,1.6465,1.6562,1.6726,1.7012,1.6875,1.6465,1.6465,1.6191,1.5811,1.5508,1.5312,1.5156,1.5156,1.4883,1.4531,1.4531,1.3915,1.3155,1.3148,1.2659,1.2061,1.1981,1.1325,1.0556,1.0212,0.9708,0.9211,0.8883,0.8804,0.8804,0.8804,0.8804,0.8804,0.8804,0.8804,0.8844,0.8938,0.8666,0.8555,0.891,0.8481,0.8217,0.8636,0.8206,0.7868,0.7917,0.7655,0.7445,0.7395,0.6644,0.6262,0.6563,0.5701,0.5206,0.5289,0.5555,0.5557,0.5241,0.5173,0.5076,0.4897,0.4678,0.4546,0.4491,0.4491,0.4491,0.4491,0.4491,0.4491,0.4491,0.4491,0.4491,0.4491,0.4236,0.4125,0.407,0.3489,0.3239,0.3155,0.2571,0.2261,0.2066,2.53,2.5011,2.4867,2.5252,2.5011,2.4867,2.5252,2.53,2.53,2.53,2.53,2.5087,2.4528,2.4061,2.334,2.2176,2.2021,2.1523,2.0371,2.0646,2.0623,2.0017,1.9785,1.9501,1.9183,1.8935,1.8535,1.7949,1.7812,1.7539,1.7077,1.6824,1.6765,1.6914,1.6914,1.696,1.7096,1.7441,1.7324,1.6914,1.6914,1.6582,1.6065,1.5723,1.5527,1.541,1.541,1.5215,1.4961,1.4961,1.4766,1.4445,1.4138,1.3738,1.334,1.3259,1.2528,1.1641,1.1113,1.0534,0.9941,0.9213,0.9028,0.8989,0.8831,0.8804,0.8804,0.8804,0.8804,0.8804,0.8804,0.856,0.8461,0.8765,0.8573,0.8523,0.9002,0.8733,0.8525,0.8653,0.8357,0.8167,0.8221,0.7541,0.7185,0.7462,0.6454,0.5732,0.5506,0.5683,0.5643,0.5286,0.5168,0.5033,0.4839,0.4622,0.4491,0.4491,0.4491,0.4491,0.4491,0.4491,0.4491,0.4491,0.4491,0.4491,0.4491,0.4491,0.4491,0.4463,0.4042,0.3876,0.3793,0.3183,0.2901,0.2734,2.53,2.53,2.53,2.53,2.53,2.53,2.53,2.53,2.53,2.53,2.53,2.53,2.5264,2.4808,2.4197,2.3514,2.2983,2.2378,2.1724,2.1655,2.1655,2.1677,2.0907,2.0481,2.0481,1.9713,1.9277,1.9258,1.8792,1.8364,1.7969,1.7096,1.6973,1.7383,1.7383,1.7598,1.7988,1.8008,1.7754,1.7383,1.7383,1.6887,1.6085,1.6085,1.5811,1.541,1.541,1.541,1.5381,1.5381,1.5391,1.5225,1.4367,1.406,1.3999,1.3999,1.3449,1.2742,1.2237,1.1693,1.1011,0.987,0.9588,0.9458,0.8936,0.8804,0.8804,0.8804,0.8804,0.8804,0.8804,0.8778,0.8778,0.8804,0.8778,0.8791,0.8804,0.8458,0.8355,0.8738,0.7925,0.7926,0.953,0.8229,0.7837,0.9177,0.8032,0.6817,0.5761,0.5642,0.563,0.5676,0.5188,0.4984,0.5179,0.4734,0.4491,0.4491,0.4491,0.4491,0.4491,0.4491,0.4491,0.4491,0.4491,0.4491,0.4491,0.4491,0.4491,0.4491,0.4491,0.4491,0.4408,0.3821,0.3599,0.3489,2.53,2.53,2.53,2.53,2.53,2.53,2.53,2.53,2.53,2.53,2.53,2.53,2.53,2.5155,2.481,2.4221,2.4387,2.4003,2.2923,2.3183,2.3113,2.2608,2.2353,2.2056,2.1732,2.0938,2.0394,2.0124,1.9429,1.8867,1.8403,1.813,1.7915,1.7812,1.7812,1.7891,1.8008,1.8008,1.793,1.7793,1.75,1.7031,1.6484,1.6202,1.5831,1.541,1.541,1.541,1.541,1.541,1.541,1.5371,1.5069,1.4972,1.4943,1.4943,1.4552,1.3951,1.3405,1.2563,1.1676,1.0936,1.0441,0.9987,0.9458,0.9054,0.8804,0.8804,0.8804,0.8804,0.8804,0.8804,0.8804,0.8804,0.8804,0.8804,0.8804,0.8841,0.8929,0.9057,0.9154,0.9415,0.9937,0.9272,0.8967,0.9404,0.863,0.7658,0.6569,0.631,0.6047,0.5654,0.5389,0.5158,0.4984,0.4769,0.4601,0.4491,0.4491,0.4491,0.4491,0.4491,0.4491,0.4491,0.4491,0.4491,0.4491,0.4491,0.4491,0.4491,0.4491,0.4491,0.4491,0.4291,0.4208,0.4125,2.53,2.53,2.53,2.53,2.53,2.53,2.53,2.53,2.53,2.53,2.53,2.53,2.53,2.53,2.518,2.4843,2.5131,2.4944,2.4155,2.44,2.4348,2.3877,2.3327,2.2989,2.2969,2.1913,2.1381,2.1452,2.0451,1.9667,1.9085,1.8909,1.8617,1.8242,1.8242,1.813,1.8008,1.8008,1.8008,1.7988,1.7734,1.7363,1.6953,1.666,1.6222,1.5644,1.5644,1.5547,1.541,1.541,1.541,1.541,1.541,1.541,1.541,1.541,1.5157,1.4782,1.4242,1.358,1.2824,1.1893,1.1392,1.0866,0.9888,0.9406,0.9106,0.8857,0.8804,0.8804,0.8804,0.8804,0.8804,0.8804,0.8804,0.8804,0.8804,0.8938,0.9084,0.9204,0.9537,0.9844,1.01,0.9873,0.9762,0.9894,0.93,0.8603,0.7772,0.7257,0.6761,0.6263,0.5806,0.5458,0.5231,0.4817,0.4574,0.4491,0.4491,0.4491,0.4491,0.4491,0.4491,0.4491,0.4491,0.4491,0.4491,0.4491,0.4491,0.4491,0.4491,0.4491,0.4491,0.4491,0.4491,0.4436,2.5372,2.5396,2.5396,2.5324,2.5348,2.5348,2.5324,2.53,2.53,2.53,2.53,2.53,2.53,2.53,2.53,2.53,2.53,2.53,2.53,2.53,2.53,2.53,2.3913,2.3475,2.4145,2.2675,2.2209,2.2846,2.1655,2.067,1.9902,1.9512,1.9082,1.8598,1.8598,1.8364,1.8008,1.8008,1.8008,1.8008,1.8008,1.7754,1.7383,1.7383,1.6887,1.6144,1.6144,1.582,1.5449,1.5449,1.543,1.541,1.541,1.541,1.541,1.541,1.541,1.5303,1.4781,1.4637,1.4258,1.2823,1.2369,1.1887,1.0301,0.9914,0.9666,0.8989,0.8857,0.8831,0.8804,0.8804,0.8818,0.8831,0.8831,0.8831,0.8831,0.8858,0.8965,0.9204,0.9257,0.9497,1.0087,1.011,1.0247,1.0546,1.005,0.9541,0.9126,0.8349,0.7703,0.7306,0.6395,0.5882,0.5855,0.5007,0.4574,0.4491,0.4491,0.4491,0.4491,0.4491,0.4491,0.4491,0.4491,0.4491,0.4491,0.4491,0.4491,0.4491,0.4491,0.4491,0.4491,0.4491,0.4491,0.4491,2.5997,2.6262,2.6249,2.5444,2.5636,2.5781,2.5372,2.53,2.53,2.53,2.53,2.53,2.53,2.53,2.53,2.53,2.53,2.53,2.53,2.53,2.53,2.53,2.4945,2.4838,2.5016,2.3511,2.2209,2.1165,2.0873,2.0425,1.9922,1.9805,1.9319,1.8598,1.8598,1.8364,1.8008,1.8008,1.8008,1.8008,1.8008,1.7754,1.7383,1.7383,1.7051,1.6551,1.6551,1.6289,1.5928,1.5928,1.5684,1.541,1.541,1.541,1.541,1.541,1.541,1.5362,1.5264,1.4906,1.4503,1.4154,1.3085,1.2035,1.1643,1.0873,1.009,0.9536,0.9406,0.929,0.8883,0.8804,0.8884,0.9071,0.9111,0.9111,0.9111,0.9325,0.9499,0.9566,0.978,1.0047,1.0452,1.0492,1.0425,1.0234,1.0087,0.9758,0.9203,0.8984,0.8389,0.7334,0.6984,0.6669,0.6426,0.58,0.5144,0.4491,0.4491,0.4491,0.4491,0.4491,0.4491,0.4491,0.4491,0.4491,0.4491,0.4491,0.4491,0.4491,0.4491,0.4491,0.4491,0.4491,0.4491,0.4491,2.6526,2.6681,2.6705,2.6105,2.6286,2.6286,2.5757,2.5661,2.5588,2.5348,2.53,2.53,2.53,2.53,2.53,2.53,2.53,2.53,2.53,2.53,2.53,2.53,2.4945,2.4921,2.5264,2.4131,2.2898,2.168,2.1318,2.0814,2.0215,2.0215,1.9863,1.9182,1.9023,1.8691,1.8247,1.8086,1.8008,1.8008,1.8008,1.7871,1.7676,1.7676,1.7402,1.7031,1.7031,1.6738,1.6367,1.6367,1.6211,1.5985,1.5985,1.5985,1.5946,1.5762,1.5566,1.541,1.541,1.5177,1.4906,1.474,1.3844,1.2892,1.2395,1.18,1.1131,1.0326,1.009,0.9884,0.9368,0.9323,0.9342,0.9218,0.9324,0.9417,0.9417,0.9579,0.9715,0.9715,0.982,0.998,1.0171,1.0184,1.0117,0.9927,0.9764,0.955,0.9231,0.9084,0.8706,0.8011,0.7583,0.73,0.7101,0.6426,0.5655,0.4869,0.4869,0.4732,0.4491,0.4491,0.4491,0.4491,0.4491,0.4491,0.4491,0.4491,0.4491,0.4491,0.4491,0.4491,0.4491,0.4491,0.4491,0.4491,2.7042,2.709,2.709,2.6922,2.697,2.6825,2.631,2.6214,2.6069,2.5612,2.5468,2.542,2.542,2.5348,2.53,2.53,2.53,2.53,2.53,2.53,2.53,2.53,2.4636,2.4564,2.5123,2.4348,2.3562,2.2809,2.2247,2.1565,2.0799,2.0799,2.0485,1.9902,1.9551,1.9102,1.8578,1.8262,1.8066,1.8008,1.8008,1.8008,1.8008,1.8008,1.7793,1.748,1.748,1.7207,1.6804,1.6804,1.6746,1.6707,1.6707,1.6707,1.6629,1.6269,1.5898,1.5586,1.5449,1.541,1.5332,1.4961,1.4523,1.3953,1.3035,1.2693,1.2278,1.1158,1.0761,1.0464,0.9881,0.9907,0.9866,0.9436,0.9579,0.9753,0.9753,0.9822,0.9809,0.9729,0.9726,0.9726,0.9715,0.9715,0.9659,0.9619,0.9351,0.9191,0.9151,0.8911,0.8804,0.8804,0.8182,0.7809,0.7664,0.6902,0.6172,0.5445,0.5445,0.5199,0.4767,0.4656,0.4629,0.4629,0.4546,0.4491,0.4491,0.4491,0.4491,0.4491,0.4491,0.4491,0.4491,0.4491,0.4491,0.4491,2.7642,2.7969,2.7993,2.7042,2.7258,2.7378,2.6849,2.6777,2.6729,2.6657,2.6262,2.5973,2.5973,2.5564,2.53,2.53,2.53,2.53,2.53,2.53,2.53,2.53,2.5194,2.485,2.4312,2.3526,2.2771,2.1983,2.2547,2.2397,2.1603,2.1603,2.0999,1.9922,1.9844,1.9375,1.8598,1.8539,1.8305,1.8008,1.8008,1.8008,1.8008,1.8008,1.7969,1.791,1.791,1.7637,1.7285,1.7285,1.7031,1.6707,1.6707,1.6707,1.6687,1.6609,1.6551,1.6336,1.5605,1.541,1.5391,1.5332,1.4915,1.4474,1.4313,1.3624,1.2687,1.1615,1.1061,1.056,0.9845,0.9604,0.9673,1.0137,1.011,1.0047,1.0047,1.0261,1.0265,0.9769,0.99,0.9953,0.9713,0.9715,0.9579,0.9297,0.9244,0.9098,0.8884,0.8831,0.8804,0.8804,0.8699,0.8289,0.7545,0.7289,0.6804,0.6073,0.6073,0.6018,0.5909,0.5418,0.5171,0.5144,0.4704,0.4491,0.4491,0.4491,0.4491,0.4491,0.4491,0.4491,0.4491,0.4491,0.4491,0.4491,2.8186,2.8354,2.8354,2.7834,2.7993,2.7969,2.7402,2.733,2.721,2.6946,2.6657,2.655,2.655,2.6297,2.6069,2.5757,2.5733,2.5612,2.5324,2.53,2.53,2.53,2.53,2.5123,2.4743,2.3621,2.2809,2.2435,2.1945,2.151,2.1165,2.1165,2.0834,2.0254,2.0019,1.9687,1.928,1.9082,1.8887,1.8672,1.8403,1.8305,1.8286,1.8086,1.8008,1.8008,1.8008,1.7891,1.7715,1.7715,1.7598,1.7389,1.7389,1.7389,1.735,1.7148,1.6738,1.6289,1.5879,1.5586,1.541,1.541,1.5216,1.4973,1.476,1.4336,1.38,1.3047,1.2705,1.2237,1.1229,1.1028,1.0885,1.0465,1.0431,1.0447,1.0385,1.0341,1.0167,0.9769,0.9659,0.9497,0.9245,0.9218,0.9152,0.8991,0.8978,0.8924,0.8818,0.8804,0.8804,0.8804,0.8804,0.858,0.809,0.8037,0.761,0.6804,0.6804,0.6588,0.6182,0.5909,0.5609,0.5281,0.5034,0.4759,0.4491,0.4491,0.4491,0.4491,0.4491,0.4491,0.4491,0.4491,0.4491,0.4491,2.8522,2.8522,2.8522,2.8522,2.8522,2.8378,2.7969,2.7897,2.7714,2.7306,2.7162,2.709,2.709,2.697,2.6729,2.6334,2.6286,2.6117,2.5709,2.5564,2.5444,2.5324,2.5123,2.5016,2.5016,2.3877,2.3254,2.3254,2.2021,2.1318,2.1165,2.0972,2.0799,2.0586,2.0215,2.0,1.9883,1.957,1.9375,1.9258,1.8926,1.8695,1.8559,1.8247,1.8086,1.8008,1.8008,1.8008,1.8008,1.8008,1.8008,1.8008,1.8008,1.8008,1.7949,1.7617,1.7005,1.6378,1.6281,1.5898,1.5566,1.5566,1.5488,1.5332,1.5,1.4891,1.466,1.4192,1.3957,1.354,1.255,1.2311,1.1955,1.0984,1.0874,1.0811,1.0586,1.0322,1.001,0.9619,0.9351,0.9098,0.8831,0.8804,0.8804,0.8804,0.8804,0.8804,0.8804,0.8804,0.8804,0.8804,0.8804,0.8752,0.8593,0.8593,0.8249,0.7557,0.753,0.7208,0.6669,0.648,0.6154,0.5719,0.5582,0.5281,0.4869,0.4732,0.4677,0.4684,0.4546,0.4491,0.4491,0.4491,0.4491,0.4491,2.8522,2.8522,2.8522,2.8522,2.8522,2.8498,2.845,2.845,2.845,2.8402,2.7969,2.7618,2.7618,2.7186,2.6873,2.6825,2.6825,2.6825,2.6777,2.6334,2.5829,2.5324,2.46,2.4181,2.4181,2.4072,2.4,2.4,2.3891,2.3489,2.2809,2.2059,2.1318,2.0605,2.0566,2.0293,1.9922,1.9883,1.9648,1.9297,1.9258,1.9004,1.8598,1.8559,1.8305,1.8008,1.8008,1.8008,1.8008,1.8008,1.8008,1.8008,1.8008,1.8008,1.8008,1.7969,1.7637,1.7207,1.6765,1.6348,1.6046,1.6046,1.5703,1.5381,1.5371,1.5059,1.4654,1.411,1.3654,1.3259,1.2998,1.2347,1.1914,1.2119,1.1562,1.093,1.0499,1.04,1.0091,0.9339,0.9231,0.9098,0.8831,0.8804,0.8804,0.8804,0.8804,0.8804,0.8804,0.8804,0.8804,0.8804,0.8804,0.8752,0.8593,0.8593,0.8501,0.8315,0.8195,0.8115,0.8035,0.7354,0.7004,0.695,0.6372,0.61,0.6046,0.5473,0.5254,0.5199,0.4677,0.4491,0.4491,0.4491,0.4491,0.4491,2.8522,2.8522,2.8522,2.8522,2.8522,2.8522,2.8522,2.8522,2.8522,2.8522,2.833,2.821,2.821,2.8017,2.7777,2.7426,2.7378,2.7234,2.6922,2.6705,2.6238,2.5348,2.5325,2.5181,2.4874,2.4384,2.4108,2.4108,2.3635,2.329,2.2995,2.2172,2.1642,2.1318,2.0818,2.0507,2.0312,2.0312,2.0273,2.0096,1.9785,1.957,1.9338,1.8812,1.85,1.8325,1.8105,1.8008,1.8008,1.8008,1.8008,1.8008,1.8008,1.8008,1.8008,1.8008,1.7891,1.7734,1.7545,1.7012,1.6406,1.6163,1.5968,1.5772,1.5469,1.5293,1.5118,1.4898,1.4725,1.4449,1.4008,1.3673,1.322,1.2427,1.1859,1.13,1.0611,1.0086,0.9656,0.9369,0.9099,0.8898,0.8818,0.8804,0.8804,0.8804,0.8804,0.8804,0.8804,0.8804,0.8804,0.8804,0.8804,0.8778,0.8725,0.8725,0.8659,0.8527,0.8474,0.8368,0.8195,0.7928,0.7542,0.7085,0.6858,0.6534,0.6182,0.5964,0.5855,0.5828,0.5637,0.5555,0.55,0.5144,0.5007,0.4952,2.8522,2.8522,2.8522,2.8522,2.8522,2.8522,2.8522,2.8522,2.8522,2.8522,2.8522,2.8522,2.8522,2.8522,2.8354,2.7993,2.7969,2.7825,2.7426,2.7402,2.6898,2.5877,2.6166,2.6117,2.5564,2.5015,2.4655,2.4492,2.3731,2.3364,2.3327,2.2547,2.2172,2.2134,2.1357,2.0972,2.0972,2.0722,2.0605,2.0586,2.0234,2.0039,1.9806,1.9221,1.8929,1.8773,1.8516,1.8418,1.8418,1.8418,1.832,1.8169,1.8169,1.8091,1.8008,1.8008,1.8008,1.8008,1.8008,1.7545,1.6999,1.6613,1.63,1.6026,1.5684,1.5508,1.541,1.541,1.541,1.5264,1.4854,1.4617,1.4172,1.3161,1.2631,1.2019,1.1107,1.0422,0.9882,0.9494,0.9086,0.8857,0.8804,0.8804,0.8804,0.8804,0.8804,0.8804,0.8804,0.8804,0.8804,0.8804,0.8804,0.8804,0.8804,0.8804,0.8752,0.8659,0.8633,0.8501,0.8328,0.8275,0.7981,0.7434,0.7434,0.7166,0.6723,0.6561,0.648,0.6453,0.6263,0.6209,0.6164,0.5835,0.5652,0.5536,2.8522,2.8522,2.8522,2.8522,2.8522,2.8522,2.8522,2.8522,2.8522,2.8522,2.8522,2.8522,2.8522,2.8522,2.8522,2.8522,2.8522,2.8522,2.8522,2.8522,2.8041,2.6946,2.6898,2.6671,2.6117,2.6117,2.5853,2.5324,2.4492,2.4108,2.4072,2.3342,2.3032,2.2957,2.2172,2.1794,2.1756,2.0934,2.0605,2.0605,2.0605,2.0312,1.9922,1.9922,1.9648,1.9297,1.9297,1.9297,1.9297,1.9297,1.9004,1.8598,1.8598,1.8325,1.8008,1.8008,1.8008,1.8008,1.8008,1.8008,1.791,1.748,1.675,1.6105,1.6085,1.5723,1.5381,1.541,1.541,1.541,1.541,1.4913,1.4499,1.4499,1.3932,1.3117,1.1968,1.1579,1.0926,0.966,0.9233,0.8962,0.8818,0.8818,0.8818,0.8818,0.8804,0.8804,0.8804,0.8804,0.8804,0.8804,0.8804,0.8804,0.8804,0.8804,0.8804,0.8804,0.8659,0.8593,0.8593,0.8474,0.8328,0.8195,0.8195,0.8088,0.7875,0.7327,0.7112,0.7058,0.6453,0.6209,0.6264,0.652,0.6444,0.6237,2.8522,2.8522,2.8522,2.8522,2.8522,2.8522,2.8522,2.8522,2.8522,2.8522,2.8522,2.8522,2.8522,2.8522,2.8522,2.8522,2.8522,2.8522,2.8522,2.8522,2.8378,2.8065,2.7642,2.7186,2.6657,2.6657,2.6406,2.5853,2.5636,2.5301,2.4921,2.4131,2.3745,2.3745,2.2995,2.2322,2.1794,2.1527,2.1126,2.0605,2.0605,2.0527,2.037,2.0039,1.9844,1.9687,1.9394,1.9297,1.9297,1.9297,1.9199,1.9043,1.8695,1.852,1.8364,1.8086,1.8008,1.8008,1.8008,1.8008,1.791,1.748,1.722,1.6848,1.6242,1.5987,1.5811,1.5469,1.541,1.541,1.541,1.5264,1.5001,1.4558,1.4143,1.356,1.2743,1.1922,1.1271,1.0898,1.0248,0.9785,0.9588,0.9588,0.9532,0.9447,0.9204,0.8991,0.8818,0.8804,0.8804,0.8804,0.8804,0.8804,0.8804,0.8804,0.8804,0.8804,0.8752,0.8685,0.8593,0.8553,0.8474,0.8342,0.8342,0.8248,0.8088,0.7955,0.7794,0.7649,0.7461,0.7509,0.7639,0.7351,0.7294,0.7349,2.8522,2.8522,2.8522,2.8522,2.8522,2.8522,2.8522,2.8522,2.8522,2.8522,2.8522,2.8522,2.8522,2.8522,2.8522,2.8522,2.8522,2.8522,2.8522,2.8522,2.8522,2.8522,2.821,2.7777,2.721,2.721,2.6946,2.643,2.643,2.6142,2.5612,2.5121,2.4787,2.4528,2.3781,2.3158,2.2675,2.2397,2.1794,2.1088,2.1088,2.0857,2.0566,2.0273,2.0176,2.0137,1.9883,1.9785,1.9785,1.9785,1.9687,1.9434,1.8792,1.8598,1.852,1.8144,1.8008,1.8008,1.8008,1.8008,1.7949,1.7695,1.75,1.7207,1.6484,1.6222,1.5968,1.5508,1.541,1.541,1.541,1.541,1.5264,1.4913,1.4705,1.4333,1.3696,1.2912,1.2219,1.1621,1.1026,1.0508,1.0049,1.002,0.9933,0.9802,0.9541,0.9339,0.9165,0.9152,0.9152,0.9152,0.9045,0.8951,0.8951,0.8871,0.8804,0.8804,0.8804,0.8752,0.8685,0.8685,0.8606,0.8474,0.8474,0.8395,0.8275,0.8221,0.8203,0.8166,0.8166,0.8296,0.8453,0.8288,0.8241,0.818,2.8522,2.8522,2.8522,2.8522,2.8522,2.8522,2.8522,2.8522,2.8522,2.8522,2.8522,2.8522,2.8522,2.8522,2.8522,2.8522,2.8522,2.8522,2.8522,2.8522,2.8522,2.8522,2.8522,2.8282,2.7762,2.7762,2.7498,2.697,2.697,2.6681,2.6166,2.6166,2.5925,2.5409,2.4596,2.4187,2.4032,2.3335,2.259,2.1794,2.1794,2.1357,2.0722,2.0644,2.0605,2.0605,2.0605,2.0605,2.0605,2.0605,2.0331,1.9824,1.8968,1.8715,1.8617,1.8169,1.8066,1.8066,1.8027,1.8008,1.8008,1.8008,1.7715,1.7324,1.6863,1.6445,1.6026,1.5566,1.5449,1.541,1.541,1.541,1.541,1.541,1.541,1.5206,1.4647,1.4274,1.3557,1.2204,1.1757,1.1254,1.048,1.0306,1.0176,0.9945,0.9829,0.9742,0.9715,0.9715,0.9715,0.9715,0.9391,0.9257,0.9257,0.8991,0.8858,0.8804,0.8804,0.8804,0.8804,0.8804,0.8738,0.8659,0.8633,0.8566,0.8433,0.8314,0.8384,0.8593,0.8621,0.8665,0.88,0.9253,0.9144,0.8836,2.8522,2.8522,2.8522,2.8522,2.8522,2.8522,2.8522,2.8522,2.8522,2.8522,2.8522,2.8522,2.8522,2.8522,2.8522,2.8522,2.8522,2.8522,2.8522,2.8522,2.8522,2.8522,2.8522,2.845,2.8354,2.833,2.8065,2.7522,2.7522,2.7234,2.6705,2.6705,2.6657,2.65,2.5652,2.4717,2.3785,2.3579,2.2831,2.1794,2.1794,2.168,2.1471,2.0818,2.0605,2.0605,2.0605,2.0605,2.0605,2.0605,2.0546,2.037,1.9805,1.9629,1.9492,1.8695,1.8461,1.8403,1.8105,1.8008,1.8008,1.8008,1.7949,1.7773,1.7344,1.6894,1.6465,1.6046,1.5644,1.541,1.541,1.541,1.541,1.541,1.541,1.5352,1.5206,1.4749,1.4282,1.3939,1.3394,1.2718,1.1935,1.1279,1.0734,1.0304,1.026,1.0105,0.9729,0.9715,0.9715,0.9715,0.9619,0.9593,0.9593,0.9526,0.9259,0.8804,0.8804,0.8804,0.8804,0.8804,0.8898,0.9043,0.8844,0.8804,0.8864,0.8618,0.856,0.8621,0.8704,0.8949,0.9266,0.9346,0.9482,0.95,2.8522,2.8522,2.8522,2.8522,2.8522,2.8522,2.8522,2.8522,2.8522,2.8522,2.8522,2.8522,2.8522,2.8522,2.8522,2.8522,2.8522,2.8522,2.8522,2.8522,2.8522,2.8522,2.8522,2.8522,2.8522,2.8522,2.8378,2.8089,2.8089,2.7825,2.7282,2.7282,2.7138,2.6898,2.642,2.5876,2.5218,2.4761,2.3952,2.2981,2.2345,2.1875,2.1467,2.0839,2.0605,2.0605,2.0605,2.0605,2.0605,2.0605,2.0605,2.0527,2.0059,1.9922,1.9785,1.9141,1.8945,1.8848,1.8383,1.8266,1.8227,1.8066,1.8008,1.7891,1.748,1.7207,1.6914,1.6465,1.6211,1.6005,1.6005,1.6005,1.5977,1.5762,1.5723,1.5644,1.5449,1.5118,1.4824,1.4529,1.4201,1.3554,1.252,1.1965,1.1441,1.0852,1.0667,1.0476,1.0235,1.0161,1.0131,1.0131,0.9967,0.9886,0.9886,0.9753,0.9526,0.9218,0.9218,0.9218,0.9218,0.9218,0.9312,0.9446,0.9285,0.9256,0.9332,0.9118,0.911,0.9224,0.9311,0.9479,0.9693,0.9787,0.9825,0.9748,2.8498,2.8522,2.8522,2.8522,2.8522,2.8522,2.8522,2.8522,2.8522,2.8522,2.8522,2.8522,2.8522,2.8522,2.8522,2.8522,2.8522,2.8522,2.8522,2.8522,2.8522,2.8522,2.8522,2.8522,2.8522,2.8522,2.8522,2.8522,2.8522,2.8282,2.7849,2.7849,2.7594,2.7162,2.7009,2.6924,2.679,2.6039,2.5312,2.4495,2.3242,2.2347,2.169,2.0958,2.0684,2.0703,2.0625,2.0605,2.0605,2.0605,2.0605,2.0546,2.0137,2.0019,1.9941,1.9512,1.9394,1.9297,1.8831,1.8715,1.8617,1.8223,1.8091,1.8008,1.7578,1.7441,1.7285,1.6882,1.6746,1.6707,1.6707,1.6707,1.657,1.6261,1.6202,1.6046,1.5586,1.5527,1.5283,1.4706,1.4469,1.3944,1.2931,1.2458,1.1965,1.1514,1.1122,1.087,1.0807,1.0681,1.0618,1.0586,1.0314,1.0194,1.0194,0.9953,0.9863,0.9863,0.9863,0.9809,0.9715,0.9715,0.9713,0.9753,0.9729,0.9713,0.9753,0.9596,0.9682,0.9914,0.9914,0.9991,1.0079,1.0238,1.0079,0.9836,2.8538,2.8522,2.8522,2.8522,2.8522,2.8522,2.8522,2.8522,2.8522,2.8522,2.8522,2.8522,2.8522,2.8522,2.8522,2.8522,2.8522,2.8522,2.8522,2.8522,2.8522,2.8522,2.8522,2.8522,2.8522,2.8522,2.8522,2.8522,2.8522,2.8474,2.8402,2.8402,2.8378,2.8266,2.7502,2.6926,2.6549,2.6375,2.5982,2.5415,2.4491,2.4075,2.3755,2.185,2.1112,2.1054,2.0703,2.0605,2.0605,2.0605,2.0605,2.0586,2.0527,2.0507,2.0391,1.9961,1.9824,1.9746,1.9316,1.9199,1.9102,1.8617,1.852,1.8403,1.8027,1.7637,1.7363,1.7305,1.6992,1.6707,1.6707,1.6707,1.6687,1.6629,1.6609,1.6484,1.6065,1.6007,1.584,1.5332,1.4321,1.3782,1.4201,1.2673,1.1825,1.2151,1.1608,1.1122,1.0839,1.0776,1.0713,1.0586,1.0546,1.0533,1.0533,1.0492,1.0479,1.0479,1.0479,1.0211,0.9715,0.9715,0.982,1.0047,0.9793,0.982,1.0033,0.9793,0.9771,0.9914,1.0036,1.0146,1.0269,1.0301,1.0142,0.9983,2.8697,2.8657,2.8618,2.8498,2.8578,2.8618,2.8498,2.8522,2.8522,2.8522,2.8522,2.8522,2.8522,2.8522,2.8522,2.8522,2.8522,2.8522,2.8522,2.8522,2.8522,2.8522,2.8522,2.8522,2.8522,2.8522,2.8522,2.8522,2.8522,2.8522,2.8522,2.8522,2.8522,2.8459,2.8099,2.7797,2.7545,2.6517,2.626,2.6394,2.474,2.4066,2.3942,2.2777,2.2029,2.1543,2.1094,2.0781,2.0605,2.0605,2.0605,2.0605,2.0605,2.0605,2.0566,2.0332,2.0273,2.0176,1.9746,1.9629,1.9531,1.9102,1.8773,1.8559,1.8364,1.8027,1.7734,1.7734,1.7578,1.7408,1.7408,1.7408,1.733,1.7129,1.709,1.6953,1.6504,1.6445,1.6269,1.582,1.5045,1.4558,1.4499,1.3704,1.313,1.2978,1.2274,1.1779,1.1655,1.1202,1.0902,1.0713,1.0713,1.0681,1.0586,1.0586,1.0586,1.0586,1.0586,1.0452,1.0198,1.0198,1.0278,1.0354,1.0251,1.0278,1.0385,1.0251,1.0247,1.0305,1.0367,1.0416,1.046,1.046,1.0333,1.0174]}]]